[[{"header":{"parameterUnit":"m.s-1","parameterCategory":1,"la1":31.0,"la2":29.5877,"lo1":-88.7671,"lo2":-86.6584,"dy":0.0162,"dx":0.0185,"nx":115,"ny":88,"refTime":"2024-08-02T06:00:00:Z","depth":0,"parameterNumber":2,"parameterNumberName":"U-component_of_WINDS"},"data":[0.0,0.0,0.0,0.0,0.0,0.0,0.0,0.0,0.0,0.0,0.0,0.0,0.0,0.0,0.0,0.0,0.0,0.0,0.0,0.0,0.0,0.0,0.0,0.0,0.0,0.0,0.0,0.0,0.0,0.0,0.0,0.0,0.0,0.0,0.0,0.0,0.0,0.0,0.0,0.0,0.0,0.0,0.0,0.0,0.0,0.0,0.0,0.0,0.0,0.0,0.0,0.0,0.0,0.0,0.0,0.0,0.0,0.0,0.0,0.0,0.0,0.0,0.0,0.0,0.0,0.0,0.0,0.0,0.0,0.0,0.0,0.0,0.0,0.0,0.0,0.0,0.0,0.0,0.0,0.0,0.0,0.0,0.0,0.0,0.0,0.0,0.0,0.0,0.0,0.0,0.0,0.0,0.0,0.0,0.0,0.0,0.0,0.0,0.0,0.0,0.0,0.0,0.0,0.0,0.0,0.0,0.0,0.0,0.0,0.0,0.0,0.0,0.0,0.0,0.0,0.0,0.0,0.0,0.0,0.0,0.0,0.0,0.0,0.0,0.0,0.0,0.0,0.0,0.0,0.0,0.0,0.0,0.0,0.0,0.0,0.0,0.0,0.0,0.0,0.0,0.0,0.0,0.0,0.0,0.0,0.0,0.0,0.0,0.0,0.0,0.0,0.0,0.0,0.0,0.0,0.0,0.0,0.0,0.0,0.0,0.0,0.0,0.0,0.0,0.0,0.0,0.0,0.0,0.0,0.0,0.0,0.0,0.0,0.0,0.0,0.0,0.0,0.0,0.0,0.0,0.0,0.0,0.0,0.0,0.0,0.0,0.0,0.0,0.0,0.0,0.0,0.0,0.0,0.0,0.0,0.0,0.0,0.0,0.0,0.0,0.0,0.0,0.0,0.0,0.0,0.0,0.0,0.0,0.0,0.0,0.0,0.0,0.0,0.0,0.0,0.0,0.0,0.0,0.0,0.0,0.0,0.0,0.0,0.0,0.0,0.0,0.0,0.0,0.0,0.0,0.0,0.0,0.0,0.0,0.0,0.0,0.0,0.0,0.0,0.0,0.0,0.0,0.0,0.0,0.0,0.0,0.0,0.0,0.0,0.0,0.0,0.0,0.0,0.0,0.0,0.0,0.0,0.0,0.0,0.0,0.0,0.0,0.0,0.0,0.0,0.0,0.0,0.0,0.0,0.0,0.0,0.0,0.0,0.0,0.0,0.0,0.0,0.0,0.0,0.0,0.0,0.0,0.0,0.0,0.0,0.0,0.0,0.0,0.0,0.0,0.0,0.0,0.0,0.0,0.0,0.0,0.0,0.0,0.0,0.0,0.0,0.0,0.0,0.0,0.0,0.0,0.0,0.0,0.0,0.0,0.0,0.0,0.0,0.0,0.0,0.0,0.0,0.0,0.0,0.0,0.0,0.0,0.0,0.0,0.0,0.0,0.0,0.0,0.0,0.0,0.0,0.0,0.0,0.0,0.0,0.0,0.0,0.0,0.0,0.0,0.0,0.0,0.0,0.0,0.0,0.0,0.0,0.0,0.0,0.0,0.0,0.0,0.0,0.0,0.0,0.0,0.0,0.0,0.0,0.0,0.0,0.0,0.0,0.0,0.0,0.0,0.0,0.0,0.0,0.0,0.0,0.0,0.0,0.0,0.0,0.0,0.0,0.0,0.0,0.0,0.0,0.0,0.0,0.0,0.0,0.0,0.0,0.0,0.0,0.0,0.0,0.0,0.0,0.0,0.0,0.0,0.0,0.0,0.0,0.0,0.0,0.0,0.0,0.0,0.0,0.0,0.0,0.0,0.0,0.0,0.0,0.0,0.0,0.0,0.0,0.0,0.0,0.0,0.0,0.0,0.0,0.0,0.0,0.0,0.0,0.0,0.0,0.0,0.0,0.0,0.0,0.0,0.0,0.0,0.0,0.0,0.0,0.0,0.0,0.0,0.0,0.0,0.0,0.0,0.0,0.0,0.0,0.0,0.0,0.0,0.0,0.0,0.0,0.0,0.0,0.0,0.0,0.0,0.0,0.0,0.0,0.0,0.0,0.0,0.0,0.0,0.0,0.0,0.0,0.0,0.0,0.0,0.0,0.0,0.0,0.0,0.0,0.0,0.0,0.0,0.0,0.0,0.0,0.0,0.0,0.0,0.0,0.0,0.0,0.0,0.0,0.0,0.0,0.0,0.0,0.0,0.0,0.0,0.0,0.0,0.0,0.0,0.0,0.0,0.0,0.0,0.0,0.0,0.0,0.0,0.0,0.0,0.0,0.0,0.0,0.0,0.0,0.0,0.0,0.0,0.0,0.0,0.0,0.0,0.0,0.0,0.0,0.0,0.0,0.0,0.0,0.0,0.0,0.0,0.0,0.0,0.0,0.0,0.0,0.0,0.0,0.0,0.0,0.0,0.0,0.0,0.0,0.0,0.0,0.0,0.0,0.0,0.0,0.0,0.0,0.0,0.0,0.0,0.0,0.0,0.0,0.0,0.0,0.0,0.0,0.0,0.0,0.0,0.0,0.0,0.0,0.0,0.0,0.0,0.0,0.0,0.0,0.0,0.0,0.0,0.0,0.0,0.0,0.0,0.0,0.0,0.0,0.0,0.0,0.0,0.0,0.0,0.0,0.0,0.0,0.0,0.0,0.0,0.0,0.0,0.0,0.0,0.0,0.0,0.0,0.0,0.0,0.0,0.0,0.0,0.0,0.0,0.0,0.0,0.0,0.0,0.0,0.0,0.0,0.0,0.0,0.0,0.0,0.0,0.0,0.0,0.0,0.0,0.0,0.0,0.0,0.0,0.0,0.0,0.0,0.0,0.0,0.0,0.0,0.0,0.0,0.0,0.0,0.0,0.0,0.0,0.0,0.0,0.0,0.0,0.0,0.0,0.0,0.0,0.0,0.0,0.0,0.0,0.0,0.0,0.0,0.0,0.0,0.0,0.0,0.0,0.0,0.0,0.0,0.0,0.0,0.0,0.0,0.0,0.0,0.0,0.0,0.0,0.0,0.0,0.0,0.0,0.0,0.0,0.0,0.0,0.0,0.0,0.0,0.0,0.0,0.0,0.0,0.0,0.0,0.0,0.0,0.0,0.0,0.0,0.0,0.0,0.0,0.0,0.0,0.0,0.0,0.0,0.0,0.0,0.0,0.0,0.0,0.0,0.0,0.0,0.0,0.0,0.0,0.0,0.0,0.0,0.0,0.0,0.0,0.0,0.0,0.0,0.0,0.0,0.0,0.0,0.0,0.0,0.0,0.0,0.0,0.0,0.0,0.0,0.0,0.0,0.0,0.0,0.0,0.0,0.0,0.0,0.0,0.0,0.0,0.0,0.0,0.0,0.0,0.0,0.0,0.0,0.0,0.0,0.0,0.0,0.0,0.0,0.0,0.0,0.0,0.0,0.0,0.0,0.0,0.0,0.0,0.0,0.0,0.0,0.0,0.0,0.0,0.0,0.0,0.0,0.0,0.0,0.0,0.0,0.0,0.0,0.0,0.0,0.0,0.0,0.0,0.0,0.0,0.0,0.0,0.0,0.0,0.0,0.0,0.0,0.0,0.0,0.0,0.0,0.0,0.0,0.0,0.0,0.0,0.0,0.0,0.0,0.0,0.0,0.0,0.0,0.0,0.0,0.0,0.0,0.0,0.0,0.0,0.0,0.0,0.0,0.0,0.0,0.0,0.0,0.0,0.0,0.0,0.0,0.0,0.0,0.0,0.0,0.0,0.0,0.0,0.0,0.0,0.0,0.0,0.0,0.0,0.0,0.0,0.0,0.0,0.0,0.0,0.0,0.0,0.0,0.0,0.0,0.0,0.0,0.0,0.0,0.0,0.0,0.0,0.0,0.0,0.0,0.0,0.0,0.0,0.0,0.0,0.0,0.0,0.0,0.0,0.0,0.0,0.0,0.0,0.0,0.0,0.0,0.0,0.0,0.0,0.0,0.0,0.0,0.0,0.0,0.0,0.0,0.0,0.0,0.0,0.0,0.0,0.0,0.0,0.0,0.0,0.0,0.0,0.0,0.0,0.0,0.0,0.0,0.0,0.0,0.0,0.0,0.0,0.0,0.0,0.0,0.0,0.0,0.0,0.0,0.0,0.0,0.0,0.0,0.0,0.0,0.0,0.0,0.0,0.0,0.0,0.0,0.0,0.0,0.0,0.0,0.0,0.0,0.0,0.0,0.0,0.0,0.0,0.0,0.0,0.0,0.0,0.0,0.0,0.0,0.0,0.0,0.0,0.0,0.0,0.0,0.0,0.0,0.0,0.0,0.0,0.0,-0.7798,0.0,0.0,0.0,0.0,0.0,0.0,0.0,0.0,0.0,0.0,0.0,0.0,0.0,0.0,0.0,0.0,0.0,0.0,0.0,0.0,0.0,0.0,0.0,0.0,0.0,0.0,0.0,0.0,0.0,0.0,0.0,0.0,0.0,0.0,0.0,0.0,0.0,0.0,0.0,0.0,0.0,0.0,0.0,0.0,0.0,0.0,0.0,0.0,0.0,0.0,0.0,0.0,0.0,0.0,0.0,0.0,0.0,0.0,0.0,0.0,0.0,0.0,0.0,0.0,0.0,0.0,0.0,0.0,0.0,0.0,0.0,0.0,0.0,0.0,0.0,0.0,0.0,0.0,0.0,0.0,0.0,0.0,0.0,0.0,0.0,0.0,0.0,0.0,0.0,0.0,0.0,0.0,0.0,0.0,0.0,0.0,0.0,0.0,0.0,0.0,0.0,0.0,0.0,0.0,0.0,0.0,0.0,0.0,0.0,0.0,-0.8396,-0.9162,-0.8811,-0.8772,-0.9116,0.0,0.0,0.0,0.0,0.0,0.0,0.0,0.0,0.0,0.0,0.0,0.0,0.0,0.0,0.0,0.0,0.0,0.0,0.0,0.0,0.0,0.0,0.0,0.0,0.0,0.0,0.0,0.0,0.0,0.0,0.0,0.0,0.0,0.0,0.0,0.0,0.0,0.0,0.0,0.0,0.0,0.0,0.0,0.0,0.0,0.0,0.0,0.0,0.0,0.0,0.0,0.0,0.0,0.0,0.0,0.0,0.0,0.0,0.0,0.0,0.0,0.0,0.0,0.0,0.0,0.0,0.0,0.0,0.0,0.0,0.0,0.0,0.0,0.0,0.0,0.0,0.0,0.0,0.0,0.0,0.0,0.0,0.0,0.0,0.0,0.0,0.0,0.0,0.0,0.0,0.0,0.0,0.0,0.0,0.0,0.0,0.0,0.0,0.0,0.0,0.0,0.0,0.0,0.0,0.0,0.0,0.0,0.0,0.0,0.0,0.0,0.0,-1.0371,-1.031,-1.0676,0.0,0.0,0.0,0.0,0.0,0.0,0.0,0.0,0.0,0.0,0.0,0.0,0.0,0.0,0.0,0.0,0.0,0.0,0.0,0.0,0.0,0.0,0.0,0.0,0.0,0.0,0.0,0.0,0.0,0.0,0.0,0.0,0.0,0.0,0.0,0.0,0.0,0.0,0.0,0.0,0.0,0.0,0.0,0.0,0.0,0.0,0.0,0.0,0.0,0.0,0.0,0.0,0.0,0.0,0.0,0.0,0.0,0.0,0.0,0.0,0.0,0.0,0.0,0.0,0.0,0.0,0.0,0.0,0.0,0.0,0.0,0.0,0.0,0.0,0.0,0.0,0.0,0.0,0.0,0.0,0.0,0.0,0.0,0.0,0.0,0.0,0.0,0.0,0.0,0.0,0.0,0.0,0.0,0.0,0.0,0.0,0.0,0.0,0.0,0.0,0.0,0.0,0.0,0.0,0.0,0.0,0.0,0.0,0.0,0.0,-1.2564,-1.5101,-1.4924,0.0,-1.3541,0.0,0.0,0.0,0.0,0.0,0.0,0.0,0.0,0.0,0.0,0.0,0.0,0.0,0.0,0.0,0.0,0.0,0.0,0.0,0.0,0.0,0.0,0.0,0.0,0.0,0.0,0.0,0.0,0.0,0.0,0.0,0.0,0.0,0.0,0.0,0.0,0.0,0.0,0.0,0.0,0.0,0.0,0.0,0.0,0.0,0.0,0.0,0.0,0.0,0.0,0.0,0.0,0.0,0.0,0.0,0.0,0.0,0.0,0.0,0.0,0.0,0.0,0.0,0.0,0.0,0.0,0.0,0.0,0.0,0.0,0.0,0.0,0.0,0.0,0.0,0.0,0.0,0.0,0.0,0.0,0.0,0.0,0.0,0.0,0.0,0.0,0.0,0.0,0.0,0.0,0.0,0.0,0.0,0.0,0.0,0.0,0.0,0.0,0.0,0.0,0.0,0.0,0.0,0.0,0.0,0.0,0.0,0.0,0.0,0.0,-1.5061,-1.666,-1.7058,-1.6383,0.0,0.0,0.0,0.0,0.0,0.0,0.0,0.0,0.0,0.0,0.0,0.0,0.0,0.0,0.0,0.0,0.0,0.0,0.0,0.0,0.0,0.0,0.0,0.0,0.0,0.0,0.0,0.0,0.0,0.0,0.0,0.0,0.0,0.0,0.0,0.0,0.0,0.0,0.0,0.0,0.0,0.0,0.0,0.0,0.0,0.0,0.0,0.0,0.0,0.0,0.0,0.0,0.0,0.0,0.0,0.0,0.0,0.0,0.0,0.0,0.0,0.0,0.0,0.0,0.0,0.0,0.0,0.0,0.0,0.0,0.0,0.0,0.0,0.0,0.0,0.0,0.0,0.0,0.0,0.0,0.0,0.0,0.0,0.0,0.0,0.0,0.0,0.0,0.0,0.0,0.0,0.0,0.0,0.0,0.0,0.0,0.0,0.0,0.0,0.0,0.0,0.0,0.0,0.0,0.0,0.0,0.0,0.0,0.0,0.0,-1.6318,-1.7469,-1.8606,-1.941,-1.8637,-1.6248,0.0,0.0,0.0,0.0,0.0,0.0,0.0,0.0,0.0,0.0,0.0,0.0,0.0,0.0,0.0,0.0,0.0,0.0,0.0,0.0,0.0,0.0,0.0,0.0,0.0,0.0,0.0,0.0,0.0,0.0,0.0,0.0,0.0,0.0,0.0,0.0,0.0,0.0,0.0,0.0,0.0,0.0,0.0,0.0,0.0,0.0,0.0,0.0,0.0,0.0,0.0,0.0,0.0,0.0,0.0,0.0,0.0,0.0,0.0,0.0,0.0,0.0,0.0,0.0,0.0,0.0,0.0,0.0,0.0,0.0,0.0,0.0,0.0,0.0,0.0,0.0,0.0,0.0,0.0,0.0,0.0,0.0,0.0,0.0,0.0,0.0,0.0,0.0,0.0,0.0,0.0,0.0,0.0,0.0,0.0,0.0,0.0,0.0,0.0,0.0,0.0,0.0,0.0,0.0,0.0,0.0,0.0,0.0,-1.7962,-1.8465,-1.9691,-2.1946,-2.265,-2.169,0.0,0.0,0.0,0.0,0.0,0.0,0.0,0.0,0.0,0.0,0.0,0.0,0.0,0.0,0.0,0.0,0.0,0.0,0.0,0.0,0.0,0.0,0.0,0.0,0.0,0.0,0.0,0.0,0.0,0.0,0.0,0.0,0.0,0.0,0.0,0.0,0.0,0.0,0.0,0.0,0.0,0.0,0.0,0.0,0.0,0.0,0.0,0.0,0.0,0.0,0.0,0.0,0.0,0.0,0.0,0.0,0.0,0.0,0.0,0.0,0.0,0.0,0.0,0.0,0.0,0.0,0.0,0.0,0.0,0.0,0.0,0.0,0.0,0.0,0.0,0.0,0.0,0.0,0.0,0.0,0.0,0.0,0.0,0.0,0.0,0.0,0.0,0.0,0.0,0.0,0.0,0.0,0.0,0.0,0.0,0.0,0.0,0.0,0.0,0.0,0.0,0.0,0.0,0.0,0.0,0.0,0.0,0.0,0.0,-1.8749,-2.0873,-2.3256,-2.5728,-2.4678,-2.3147,0.0,0.0,0.0,0.0,0.0,0.0,0.0,0.0,0.0,0.0,0.0,0.0,0.0,0.0,0.0,0.0,0.0,0.0,0.0,0.0,0.0,0.0,0.0,0.0,0.0,0.0,0.0,0.0,0.0,0.0,0.0,0.0,0.0,0.0,0.0,0.0,0.0,0.0,0.0,0.0,0.0,0.0,0.0,0.0,0.0,0.0,0.0,0.0,0.0,0.0,0.0,0.0,0.0,0.0,0.0,0.0,0.0,0.0,0.0,0.0,0.0,0.0,0.0,0.0,0.0,0.0,0.0,0.0,0.0,0.0,0.0,0.0,0.0,0.0,0.0,0.0,0.0,0.0,0.0,0.0,0.0,0.0,0.0,0.0,0.0,0.0,0.0,0.0,0.0,0.0,0.0,0.0,0.0,0.0,0.0,0.0,0.0,0.0,0.0,0.0,0.0,0.0,0.0,0.0,0.0,0.0,0.0,0.0,0.0,-2.1423,0.0,-2.6284,-2.7623,-2.6204,-2.4507,0.0,0.0,0.0,0.0,0.0,0.0,0.0,0.0,0.0,0.0,0.0,0.0,0.0,0.0,0.0,0.0,0.0,0.0,0.0,0.0,0.0,0.0,0.0,0.0,0.0,0.0,0.0,0.0,0.0,0.0,0.0,0.0,0.0,0.0,0.0,0.0,0.0,0.0,0.0,0.0,0.0,0.0,0.0,0.0,0.0,0.0,0.0,0.0,0.0,0.0,0.0,0.0,0.0,0.0,0.0,0.0,0.0,0.0,0.0,0.0,0.0,0.0,0.0,0.0,0.0,0.0,0.0,0.0,0.0,0.0,0.0,0.0,0.0,0.0,0.0,0.0,0.0,0.0,0.0,0.0,0.0,0.0,0.0,0.0,0.0,0.0,0.0,0.0,0.0,0.0,0.0,0.0,0.0,0.0,0.0,0.0,0.0,0.0,0.0,0.0,0.0,0.0,0.0,0.0,0.0,0.0,0.0,0.0,-2.2546,-2.6214,-2.8137,-2.8555,-2.7449,-2.7319,-2.5931,0.0,0.0,0.0,0.0,0.0,0.0,0.0,0.0,0.0,0.0,0.0,0.0,0.0,0.0,0.0,0.0,0.0,0.0,0.0,0.0,0.0,0.0,0.0,0.0,0.0,0.0,0.0,0.0,0.0,0.0,0.0,0.0,0.0,0.0,0.0,0.0,0.0,0.0,0.0,0.0,0.0,0.0,0.0,0.0,0.0,0.0,0.0,0.0,0.0,0.0,0.0,0.0,0.0,0.0,0.0,0.0,0.0,0.0,0.0,0.0,0.0,0.0,0.0,0.0,0.0,0.0,0.0,0.0,0.0,0.0,0.0,0.0,0.0,0.0,0.0,0.0,0.0,0.0,0.0,0.0,0.0,0.0,0.0,0.0,0.0,0.0,0.0,0.0,0.0,0.0,0.0,0.0,0.0,0.0,0.0,0.0,0.0,0.0,0.0,0.0,0.0,0.0,0.0,0.0,0.0,0.0,0.0,0.0,0.0,-2.7259,-2.82,-2.9414,-3.0803,-2.9107,-2.7667,0.0,0.0,0.0,0.0,0.0,0.0,0.0,0.0,0.0,0.0,0.0,0.0,0.0,0.0,0.0,0.0,0.0,0.0,0.0,0.0,0.0,0.0,0.0,0.0,0.0,0.0,0.0,0.0,0.0,0.0,0.0,0.0,0.0,0.0,0.0,0.0,0.0,0.0,0.0,0.0,0.0,0.0,0.0,0.0,0.0,0.0,0.0,0.0,0.0,0.0,0.0,0.0,0.0,0.0,0.0,0.0,0.0,0.0,0.0,0.0,0.0,0.0,0.0,0.0,0.0,0.0,0.0,0.0,0.0,0.0,0.0,0.0,0.0,0.0,0.0,0.0,0.0,0.0,0.0,0.0,0.0,0.0,0.0,0.0,0.0,0.0,0.0,0.0,0.0,0.0,0.0,0.0,0.0,0.0,0.0,0.0,0.0,0.0,0.0,0.0,0.0,0.0,0.0,0.0,0.0,0.0,0.0,0.0,0.0,-2.954,-3.0075,-3.1061,-3.2567,-3.0678,-2.9391,-2.8802,0.0,0.0,0.0,0.0,0.0,0.0,0.0,0.0,0.0,0.0,0.0,0.0,0.0,0.0,0.0,0.0,0.0,0.0,0.0,0.0,0.0,0.0,0.0,0.0,0.0,0.0,0.0,0.0,0.0,0.0,0.0,0.0,0.0,0.0,0.0,0.0,0.0,0.0,0.0,0.0,0.0,0.0,0.0,0.0,0.0,0.0,0.0,0.0,0.0,0.0,0.0,0.0,0.0,0.0,0.0,0.0,0.0,0.0,0.0,0.0,0.0,0.0,0.0,0.0,0.0,0.0,0.0,0.0,0.0,0.0,0.0,0.0,0.0,0.0,0.0,0.0,0.0,0.0,0.0,0.0,0.0,0.0,0.0,0.0,0.0,0.0,0.0,0.0,0.0,0.0,0.0,0.0,0.0,0.0,0.0,0.0,0.0,0.0,0.0,0.0,0.0,0.0,0.0,0.0,0.0,0.0,0.0,0.0,-3.2635,-3.3461,-3.3549,-3.2873,-3.2064,-3.1019,0.0,0.0,0.0,0.0,0.0,0.0,0.0,0.0,0.0,0.0,0.0,0.0,0.0,0.0,0.0,0.0,0.0,0.0,0.0,0.0,0.0,0.0,0.0,0.0,0.0,0.0,0.0,0.0,0.0,0.0,0.0,0.0,0.0,0.0,0.0,0.0,0.0,0.0,0.0,0.0,0.0,0.0,0.0,0.0,0.0,0.0,0.0,0.0,0.0,0.0,0.0,0.0,0.0,0.0,0.0,0.0,0.0,0.0,0.0,0.0,0.0,0.0,0.0,0.0,0.0,0.0,0.0,0.0,0.0,0.0,0.0,0.0,0.0,0.0,0.0,0.0,0.0,0.0,0.0,0.0,0.0,0.0,0.0,0.0,0.0,0.0,0.0,0.0,0.0,0.0,0.0,0.0,0.0,0.0,0.0,0.0,0.0,0.0,0.0,0.0,0.0,0.0,0.0,0.0,0.0,0.0,0.0,0.0,0.0,-3.1991,-3.4563,-3.5889,-3.5584,-3.341,-3.1998,0.0,0.0,0.0,0.0,0.0,0.0,0.0,0.0,0.0,0.0,0.0,0.0,0.0,0.0,0.0,0.0,0.0,0.0,0.0,0.0,0.0,0.0,0.0,0.0,0.0,0.0,0.0,0.0,0.0,0.0,0.0,0.0,0.0,0.0,0.0,0.0,0.0,0.0,0.0,0.0,0.0,0.0,0.0,0.0,0.0,0.0,0.0,0.0,0.0,0.0,0.0,0.0,0.0,0.0,0.0,0.0,0.0,0.0,0.0,0.0,0.0,0.0,0.0,0.0,0.0,0.0,0.0,0.0,0.0,0.0,0.0,0.0,0.0,0.0,0.0,0.0,0.0,0.0,0.0,0.0,0.0,0.0,0.0,0.0,0.0,0.0,0.0,0.0,0.0,0.0,0.0,0.0,0.0,0.0,0.0,0.0,0.0,0.0,0.0,0.0,0.0,0.0,0.0,0.0,0.0,0.0,0.0,0.0,-3.2544,-3.2505,-3.497,-3.6431,-3.6729,-3.4822,-3.3428,0.0,0.0,0.0,0.0,0.0,0.0,0.0,0.0,0.0,0.0,0.0,0.0,0.0,0.0,0.0,0.0,0.0,0.0,0.0,0.0,0.0,0.0,0.0,0.0,0.0,0.0,0.0,0.0,0.0,0.0,0.0,0.0,0.0,0.0,0.0,0.0,0.0,0.0,0.0,0.0,0.0,0.0,0.0,0.0,0.0,0.0,0.0,0.0,0.0,0.0,0.0,0.0,0.0,0.0,0.0,0.0,0.0,0.0,0.0,0.0,0.0,0.0,0.0,0.0,0.0,0.0,0.0,0.0,0.0,0.0,0.0,0.0,0.0,0.0,0.0,0.0,0.0,0.0,0.0,0.0,0.0,0.0,0.0,0.0,0.0,0.0,0.0,0.0,0.0,0.0,0.0,0.0,0.0,0.0,0.0,0.0,0.0,0.0,0.0,0.0,0.0,0.0,0.0,0.0,0.0,0.0,0.0,0.0,-3.3026,-3.3691,-3.502,-3.6039,-3.6597,-3.591,-3.4822,0.0,0.0,0.0,0.0,0.0,0.0,0.0,0.0,0.0,0.0,0.0,0.0,0.0,0.0,0.0,0.0,0.0,0.0,0.0,0.0,0.0,0.0,0.0,0.0,0.0,0.0,0.0,0.0,0.0,0.0,0.0,0.0,0.0,0.0,0.0,0.0,0.0,0.0,0.0,0.0,0.0,0.0,0.0,0.0,0.0,0.0,0.0,0.0,0.0,0.0,0.0,0.0,0.0,0.0,0.0,0.0,0.0,0.0,0.0,0.0,0.0,0.0,0.0,0.0,0.0,0.0,0.0,0.0,0.0,0.0,0.0,0.0,0.0,0.0,0.0,0.0,0.0,0.0,0.0,0.0,0.0,0.0,0.0,0.0,0.0,0.0,0.0,0.0,0.0,0.0,0.0,0.0,0.0,0.0,0.0,0.0,0.0,0.0,0.0,0.0,0.0,0.0,0.0,0.0,0.0,0.0,0.0,0.0,-3.398,-3.3658,-3.5525,-3.6329,-3.5853,-3.5131,-3.4303,0.0,0.0,0.0,0.0,0.0,0.0,0.0,0.0,0.0,0.0,0.0,0.0,0.0,0.0,0.0,0.0,0.0,0.0,0.0,0.0,0.0,0.0,0.0,0.0,0.0,0.0,0.0,0.0,0.0,0.0,0.0,0.0,0.0,0.0,0.0,0.0,0.0,0.0,0.0,0.0,0.0,0.0,0.0,0.0,0.0,0.0,0.0,0.0,-2.9397,0.0,0.0,0.0,0.0,0.0,0.0,0.0,0.0,0.0,0.0,0.0,0.0,0.0,0.0,0.0,0.0,0.0,0.0,0.0,0.0,0.0,0.0,0.0,0.0,0.0,0.0,0.0,0.0,0.0,0.0,0.0,0.0,0.0,0.0,0.0,0.0,0.0,0.0,0.0,0.0,0.0,0.0,0.0,0.0,0.0,0.0,0.0,0.0,0.0,0.0,0.0,0.0,0.0,0.0,0.0,0.0,0.0,0.0,0.0,-3.4409,-3.4143,-3.5478,-3.6028,-3.56,-3.5233,-3.4506,0.0,0.0,0.0,0.0,0.0,0.0,0.0,0.0,0.0,0.0,0.0,0.0,0.0,0.0,0.0,0.0,0.0,0.0,0.0,0.0,0.0,0.0,0.0,0.0,0.0,0.0,0.0,0.0,0.0,0.0,0.0,0.0,0.0,0.0,0.0,0.0,0.0,0.0,0.0,0.0,0.0,0.0,0.0,0.0,0.0,0.0,0.0,0.0,0.0,0.0,0.0,0.0,0.0,0.0,0.0,0.0,0.0,0.0,0.0,0.0,0.0,0.0,0.0,0.0,0.0,0.0,0.0,0.0,0.0,0.0,0.0,0.0,0.0,0.0,0.0,0.0,0.0,0.0,0.0,0.0,0.0,0.0,0.0,0.0,0.0,0.0,0.0,0.0,0.0,0.0,0.0,0.0,0.0,0.0,0.0,0.0,0.0,0.0,0.0,0.0,0.0,0.0,0.0,0.0,0.0,0.0,0.0,-3.3499,-3.4477,-3.475,-3.5299,-3.5616,-3.5616,-3.5616,-3.4906,-3.3474,0.0,0.0,0.0,0.0,0.0,0.0,0.0,0.0,0.0,0.0,0.0,0.0,0.0,0.0,0.0,0.0,0.0,0.0,0.0,0.0,0.0,0.0,0.0,0.0,0.0,0.0,0.0,0.0,0.0,0.0,0.0,0.0,0.0,0.0,0.0,0.0,0.0,0.0,-2.6368,-2.7499,0.0,0.0,0.0,0.0,0.0,0.0,0.0,0.0,-3.157,0.0,0.0,0.0,0.0,0.0,0.0,0.0,0.0,0.0,0.0,0.0,0.0,0.0,0.0,0.0,0.0,0.0,0.0,0.0,0.0,0.0,0.0,0.0,0.0,0.0,0.0,0.0,0.0,0.0,0.0,0.0,0.0,0.0,0.0,0.0,0.0,0.0,0.0,0.0,0.0,0.0,0.0,0.0,0.0,0.0,0.0,0.0,0.0,0.0,0.0,0.0,0.0,0.0,0.0,0.0,0.0,-3.3121,-3.3495,-3.4232,-3.5391,-3.5554,-3.5616,-3.5616,-3.5616,-3.4906,-3.3491,0.0,0.0,0.0,0.0,0.0,0.0,0.0,0.0,0.0,0.0,0.0,0.0,0.0,0.0,0.0,0.0,0.0,0.0,0.0,0.0,0.0,0.0,0.0,0.0,0.0,0.0,0.0,0.0,0.0,0.0,0.0,0.0,0.0,0.0,0.0,0.0,0.0,0.0,0.0,-2.7685,-2.8951,0.0,0.0,0.0,0.0,0.0,0.0,0.0,0.0,-3.1615,0.0,0.0,0.0,0.0,0.0,0.0,0.0,0.0,0.0,0.0,0.0,0.0,0.0,0.0,0.0,0.0,0.0,0.0,0.0,0.0,0.0,0.0,0.0,0.0,0.0,0.0,0.0,0.0,0.0,0.0,0.0,0.0,0.0,0.0,0.0,0.0,0.0,0.0,0.0,0.0,0.0,0.0,0.0,0.0,0.0,0.0,0.0,0.0,0.0,0.0,0.0,0.0,0.0,0.0,0.0,-3.3295,-3.3842,-3.4569,-3.556,-3.5616,-3.5414,-3.5064,-3.503,-3.4427,0.0,0.0,0.0,0.0,0.0,0.0,0.0,0.0,0.0,0.0,0.0,0.0,0.0,0.0,0.0,0.0,0.0,0.0,0.0,0.0,0.0,0.0,0.0,0.0,0.0,0.0,0.0,0.0,0.0,0.0,0.0,0.0,0.0,0.0,0.0,0.0,0.0,0.0,0.0,0.0,-2.8276,-2.9396,-3.0365,0.0,0.0,0.0,0.0,0.0,0.0,-3.2437,-3.2228,0.0,0.0,0.0,0.0,0.0,0.0,0.0,0.0,0.0,0.0,0.0,0.0,0.0,0.0,0.0,0.0,0.0,0.0,0.0,0.0,0.0,0.0,0.0,0.0,0.0,0.0,0.0,0.0,0.0,0.0,0.0,0.0,0.0,0.0,0.0,0.0,0.0,0.0,0.0,0.0,0.0,0.0,0.0,0.0,0.0,0.0,0.0,0.0,0.0,0.0,0.0,0.0,0.0,0.0,0.0,-3.3292,-3.3927,-3.4659,-3.556,-3.5616,-3.525,-3.4523,-3.4489,-3.3989,0.0,0.0,0.0,0.0,0.0,0.0,0.0,0.0,0.0,0.0,0.0,0.0,0.0,0.0,0.0,0.0,0.0,0.0,0.0,0.0,0.0,0.0,0.0,0.0,0.0,0.0,0.0,0.0,0.0,0.0,0.0,0.0,0.0,0.0,0.0,0.0,0.0,0.0,0.0,0.0,0.0,-3.015,-3.0578,-3.1257,0.0,0.0,0.0,0.0,-3.3634,-3.3365,0.0,0.0,0.0,0.0,0.0,0.0,0.0,0.0,0.0,0.0,0.0,0.0,0.0,0.0,0.0,0.0,0.0,0.0,0.0,0.0,0.0,0.0,0.0,0.0,0.0,0.0,0.0,0.0,0.0,0.0,0.0,0.0,0.0,0.0,0.0,0.0,0.0,0.0,0.0,0.0,0.0,0.0,0.0,0.0,0.0,0.0,0.0,0.0,0.0,0.0,0.0,0.0,0.0,0.0,0.0,0.0,-3.3225,-3.2984,-3.37,-3.5493,-3.5616,-3.5228,-3.4544,-3.4489,-3.3838,0.0,0.0,0.0,0.0,0.0,0.0,0.0,0.0,0.0,0.0,0.0,0.0,0.0,0.0,0.0,0.0,0.0,0.0,0.0,0.0,0.0,0.0,0.0,0.0,0.0,0.0,0.0,0.0,0.0,0.0,0.0,0.0,0.0,0.0,0.0,0.0,0.0,0.0,0.0,0.0,0.0,-3.1846,-3.22,-3.2338,-3.2687,0.0,0.0,-3.4966,-3.4488,-3.4801,0.0,0.0,0.0,0.0,0.0,0.0,0.0,0.0,0.0,0.0,0.0,0.0,0.0,0.0,0.0,0.0,0.0,0.0,0.0,0.0,0.0,0.0,0.0,0.0,0.0,0.0,0.0,0.0,0.0,0.0,0.0,0.0,0.0,0.0,0.0,0.0,0.0,0.0,0.0,0.0,0.0,0.0,0.0,0.0,0.0,0.0,0.0,0.0,0.0,0.0,0.0,0.0,0.0,0.0,0.0,-2.9842,-3.322,-3.2863,-3.3531,-3.5504,-3.5616,-3.5042,-3.3897,-3.388,-3.3094,0.0,0.0,0.0,0.0,0.0,0.0,0.0,0.0,0.0,0.0,0.0,0.0,0.0,0.0,0.0,0.0,0.0,0.0,0.0,0.0,0.0,0.0,0.0,0.0,0.0,0.0,0.0,0.0,0.0,0.0,0.0,0.0,0.0,0.0,0.0,0.0,0.0,0.0,0.0,0.0,0.0,0.0,-3.3386,-3.3221,0.0,0.0,0.0,-3.4966,-3.504,0.0,0.0,0.0,0.0,0.0,0.0,0.0,0.0,0.0,0.0,0.0,0.0,0.0,0.0,0.0,0.0,0.0,0.0,0.0,0.0,0.0,0.0,0.0,0.0,0.0,0.0,0.0,0.0,0.0,0.0,0.0,0.0,0.0,0.0,0.0,0.0,0.0,0.0,0.0,0.0,0.0,0.0,0.0,0.0,0.0,0.0,0.0,0.0,0.0,0.0,0.0,0.0,0.0,0.0,0.0,0.0,0.0,-3.3275,-3.2723,-3.3402,-3.5504,-3.5616,-3.4991,-3.3728,-3.3508,0.0,0.0,0.0,0.0,0.0,0.0,0.0,0.0,0.0,0.0,0.0,0.0,0.0,0.0,0.0,0.0,0.0,0.0,0.0,0.0,0.0,0.0,0.0,0.0,0.0,0.0,0.0,-2.5854,0.0,0.0,0.0,0.0,0.0,0.0,0.0,0.0,0.0,0.0,0.0,0.0,0.0,0.0,-3.2523,-3.3786,-3.3882,-3.4279,0.0,0.0,-3.534,-3.5699,-3.4906,-3.4068,0.0,0.0,0.0,0.0,0.0,0.0,0.0,0.0,0.0,0.0,0.0,0.0,0.0,0.0,0.0,0.0,0.0,0.0,0.0,0.0,0.0,0.0,0.0,0.0,0.0,0.0,0.0,0.0,0.0,0.0,0.0,0.0,0.0,0.0,0.0,0.0,0.0,0.0,0.0,0.0,0.0,0.0,0.0,0.0,0.0,0.0,0.0,0.0,0.0,0.0,0.0,0.0,0.0,0.0,-2.9288,-3.3204,-3.2256,-3.2936,-3.5487,-3.5616,-3.5211,-3.4438,-3.3761,-3.2983,0.0,0.0,0.0,0.0,0.0,0.0,0.0,0.0,0.0,0.0,0.0,0.0,0.0,0.0,0.0,0.0,0.0,0.0,0.0,0.0,0.0,0.0,0.0,0.0,0.0,0.0,0.0,0.0,0.0,0.0,0.0,0.0,0.0,0.0,0.0,0.0,0.0,0.0,0.0,0.0,0.0,-3.3778,-3.2935,-3.4169,-3.5206,0.0,-3.6396,-3.703,-3.6507,-3.6342,-3.5639,-3.3799,0.0,0.0,0.0,0.0,0.0,0.0,0.0,0.0,0.0,0.0,0.0,0.0,0.0,0.0,0.0,0.0,0.0,0.0,0.0,0.0,0.0,0.0,0.0,0.0,0.0,0.0,0.0,0.0,0.0,0.0,0.0,0.0,0.0,0.0,0.0,0.0,0.0,0.0,0.0,0.0,0.0,0.0,0.0,0.0,0.0,0.0,0.0,0.0,0.0,0.0,0.0,0.0,0.0,-2.9049,-3.2685,-3.1582,-3.21,-3.4244,-3.4358,-3.4023,-3.3279,-3.2606,-3.1667,0.0,0.0,0.0,0.0,0.0,0.0,0.0,0.0,0.0,0.0,0.0,0.0,0.0,0.0,0.0,0.0,0.0,0.0,0.0,0.0,0.0,0.0,0.0,0.0,0.0,0.0,0.0,0.0,-2.6763,-2.7342,-2.8121,0.0,0.0,0.0,0.0,0.0,0.0,0.0,0.0,0.0,0.0,-3.3428,-3.3709,-3.3744,0.0,0.0,-3.6108,-3.6192,-3.6948,-3.6402,-3.5474,-3.4292,-3.3754,0.0,0.0,0.0,0.0,0.0,0.0,0.0,0.0,0.0,0.0,0.0,0.0,0.0,0.0,0.0,0.0,0.0,0.0,0.0,0.0,0.0,0.0,0.0,0.0,0.0,0.0,0.0,0.0,0.0,0.0,0.0,0.0,0.0,0.0,0.0,0.0,0.0,0.0,0.0,0.0,0.0,0.0,0.0,0.0,0.0,0.0,0.0,0.0,0.0,0.0,0.0,0.0,-2.9135,-3.2344,-3.1029,-3.1259,-3.3246,-3.3095,-3.2759,-3.2229,-3.1558,-3.0702,0.0,0.0,0.0,0.0,0.0,0.0,0.0,0.0,0.0,0.0,0.0,0.0,0.0,0.0,0.0,0.0,0.0,0.0,0.0,0.0,0.0,0.0,0.0,0.0,0.0,0.0,0.0,0.0,-2.6905,-2.7677,-2.8528,0.0,0.0,0.0,0.0,0.0,0.0,0.0,0.0,0.0,0.0,-3.3199,-3.3695,-3.3617,-3.4163,-3.5994,-3.579,-3.5839,-3.6943,-3.6123,-3.5108,-3.4413,0.0,0.0,0.0,0.0,0.0,0.0,0.0,0.0,0.0,0.0,0.0,0.0,0.0,0.0,0.0,0.0,0.0,0.0,0.0,0.0,0.0,0.0,0.0,0.0,0.0,0.0,0.0,-3.1151,0.0,0.0,-2.9406,0.0,0.0,0.0,0.0,0.0,0.0,0.0,0.0,0.0,0.0,0.0,0.0,0.0,0.0,0.0,0.0,0.0,0.0,0.0,0.0,0.0,0.0,-2.9619,-3.2327,-3.0561,-3.06,-3.2526,-3.1975,-3.163,-3.1582,-3.0917,-3.05,-3.0428,0.0,0.0,0.0,0.0,0.0,0.0,0.0,0.0,0.0,0.0,0.0,0.0,0.0,0.0,0.0,0.0,0.0,0.0,0.0,0.0,0.0,0.0,0.0,0.0,0.0,0.0,-2.6321,-2.6961,-2.779,0.0,0.0,0.0,0.0,0.0,0.0,0.0,0.0,0.0,0.0,-3.3264,-3.332,-3.2415,-3.3953,-3.4953,-3.454,-3.5594,-3.644,-3.65,-3.5619,-3.4657,0.0,0.0,0.0,0.0,0.0,0.0,0.0,0.0,0.0,0.0,0.0,0.0,0.0,0.0,0.0,0.0,0.0,0.0,0.0,0.0,0.0,0.0,0.0,0.0,0.0,0.0,0.0,-3.0674,-3.0652,0.0,0.0,0.0,0.0,0.0,0.0,0.0,0.0,0.0,0.0,0.0,-2.6987,-2.6879,0.0,0.0,0.0,0.0,0.0,0.0,0.0,0.0,0.0,0.0,0.0,0.0,-2.9435,-3.1525,-2.99,-2.989,-3.1787,-3.1217,-3.0849,-3.0865,-3.0236,-2.9666,-2.9202,0.0,0.0,0.0,0.0,0.0,0.0,0.0,0.0,0.0,0.0,0.0,0.0,0.0,0.0,0.0,0.0,0.0,0.0,0.0,0.0,0.0,0.0,0.0,0.0,0.0,-2.6374,0.0,0.0,0.0,0.0,0.0,0.0,0.0,0.0,0.0,0.0,0.0,-3.3562,-3.3383,-3.3643,-3.3441,-3.237,-3.28,-3.3391,0.0,0.0,0.0,0.0,0.0,0.0,0.0,0.0,0.0,0.0,0.0,0.0,0.0,0.0,-3.2385,-3.2019,-3.1916,-3.1903,-3.2132,0.0,0.0,0.0,0.0,0.0,0.0,0.0,0.0,0.0,0.0,0.0,0.0,0.0,0.0,-3.0847,0.0,-3.0616,0.0,0.0,0.0,0.0,0.0,0.0,0.0,0.0,-2.7354,-2.7245,-2.6809,-2.6681,-2.67,0.0,-2.7996,-2.8046,0.0,0.0,0.0,0.0,0.0,0.0,0.0,0.0,-2.9153,-3.0605,-2.9098,-2.9101,-3.0703,-3.0193,-2.9953,-3.0163,-2.9564,-2.8906,-2.8195,-2.8143,-2.8006,0.0,0.0,0.0,0.0,0.0,0.0,0.0,0.0,0.0,0.0,0.0,0.0,0.0,0.0,0.0,0.0,0.0,0.0,0.0,0.0,0.0,0.0,0.0,-2.5278,0.0,0.0,0.0,0.0,0.0,0.0,0.0,0.0,0.0,-3.286,-3.3252,-3.369,-3.3998,-3.3801,-3.3345,-3.2616,0.0,0.0,0.0,0.0,0.0,0.0,0.0,-3.4913,-3.4188,-3.4192,-3.4238,-3.4122,-3.3754,-3.3539,-3.3697,0.0,0.0,-3.2632,-3.2704,-3.285,-3.309,-3.3306,-3.3495,-3.3736,-3.3468,-3.3156,0.0,0.0,0.0,0.0,0.0,0.0,0.0,0.0,-3.1476,-3.1736,0.0,-3.1036,0.0,0.0,0.0,0.0,0.0,-2.7794,0.0,0.0,-2.6644,-2.6521,-2.6508,-2.6508,-2.6474,-2.6577,-2.8141,-2.8184,-2.6921,-2.9235,0.0,0.0,0.0,0.0,0.0,0.0,-2.8828,-2.9478,-2.8283,-2.8259,-2.9592,-2.9011,-2.8966,-2.9567,-2.8913,-2.8241,-2.7599,-2.7394,-2.7089,-2.6525,-2.7023,0.0,0.0,0.0,0.0,0.0,0.0,0.0,0.0,0.0,0.0,0.0,0.0,0.0,0.0,0.0,0.0,0.0,0.0,0.0,0.0,-2.4245,0.0,0.0,0.0,0.0,0.0,0.0,0.0,0.0,0.0,0.0,-3.2736,-3.3367,-3.4007,-3.4628,0.0,0.0,0.0,0.0,-3.3474,-3.2883,-3.3636,-3.4238,-3.4276,-3.3964,-3.3725,-3.3671,0.0,0.0,-3.3613,-3.3341,-3.3263,-3.3599,-3.3367,-3.3124,-3.3116,-3.3369,-3.3789,-3.4398,-3.4,-3.3922,-3.4369,-3.3743,-3.295,-3.319,0.0,0.0,0.0,0.0,-3.2541,-3.2671,-3.3528,-3.2609,-3.2018,-3.1688,-3.1354,0.0,0.0,0.0,0.0,0.0,0.0,-2.7534,-2.6737,-2.7144,-2.7061,-2.6487,-2.6487,-2.6487,-2.6555,-2.7584,-2.7841,-2.7505,-2.8767,-2.913,-2.8583,0.0,0.0,0.0,0.0,-2.8828,-2.9382,-2.8243,-2.8468,-3.0208,-2.9624,-2.9322,-2.9376,-2.8371,-2.7442,-2.6623,-2.6212,-2.6075,-2.6259,-2.6103,0.0,0.0,0.0,0.0,0.0,0.0,0.0,0.0,0.0,0.0,0.0,0.0,0.0,0.0,0.0,0.0,0.0,0.0,0.0,-2.6317,-2.5145,-2.4715,0.0,0.0,0.0,0.0,0.0,0.0,0.0,0.0,0.0,-3.4014,-3.4622,-3.5072,0.0,0.0,-3.4255,-3.4224,-3.3698,-3.322,-3.3013,-3.328,0.0,-3.3421,-3.3584,-3.3599,-3.3334,-3.3169,-3.3147,-3.3225,-3.3169,-3.3147,-3.3255,-3.3169,-3.3124,-3.3111,-3.3199,-3.3335,-3.3518,-3.3373,-3.3322,-3.3462,-3.3283,-3.3074,-3.4407,-3.3602,-3.3452,-3.3634,-3.396,-3.3194,-3.3311,-3.4013,-3.2854,-3.2266,-3.2057,-3.1225,-3.012,-2.8866,-2.8402,0.0,0.0,0.0,-2.7408,-2.6646,-2.7028,-2.6973,-2.6521,-2.6487,-2.6487,-2.6533,-2.733,-2.755,-2.7229,-2.8084,-2.8191,-2.7655,0.0,0.0,-2.8958,-2.8669,-2.8752,-2.9093,-2.8404,-2.8708,-3.0103,-2.9974,-2.9537,-2.8788,-2.7867,-2.7017,-2.6223,-2.5608,-2.5422,-2.5745,-2.5652,-2.5639,0.0,0.0,0.0,0.0,0.0,0.0,0.0,0.0,0.0,0.0,0.0,-2.3108,-2.3116,0.0,0.0,0.0,-2.3525,-2.4774,-2.6171,-2.5335,0.0,0.0,0.0,0.0,0.0,0.0,0.0,-3.1475,-3.1689,-3.2265,-3.33,-3.4407,-3.518,-3.5447,-3.4838,-3.4357,-3.4392,0.0,-3.3124,-3.3124,-3.3124,-3.3124,-3.3124,-3.3305,-3.3412,-3.3147,-3.3124,-3.3124,-3.3124,-3.3124,-3.3124,-3.3124,-3.3124,-3.3124,-3.3124,-3.3124,-3.3124,-3.3124,-3.3124,-3.3124,-3.3124,-3.3124,-3.3124,-3.5311,-3.5142,-3.394,-3.348,-3.3556,-3.3618,-3.3556,-3.3386,-3.2603,-3.2503,-3.2806,-3.0792,-2.9783,-2.9567,-2.842,0.0,-2.6706,-2.7321,-2.7229,-2.6487,-2.6487,-2.6487,-2.6487,-2.6487,-2.6487,-2.6533,-2.725,-2.7229,-2.6555,-2.7263,-2.7295,-2.6757,-2.8344,-2.8855,-2.824,-2.837,-2.8467,-2.8482,-2.8482,-2.8794,-2.9448,-2.9959,-2.9482,-2.8002,-2.7418,-2.6783,-2.6116,-2.5362,-2.4987,-2.5078,-2.5498,-2.5533,-2.5097,0.0,0.0,0.0,0.0,0.0,0.0,0.0,0.0,0.0,0.0,0.0,0.0,0.0,0.0,0.0,-2.3264,0.0,-2.4935,-2.5256,0.0,0.0,0.0,-2.8283,-2.8189,-2.8221,-2.8705,-2.9782,0.0,0.0,-3.1412,-3.3091,-3.4462,-3.5171,-3.451,-3.3979,-3.3979,-3.3512,-3.3124,-3.3124,-3.3124,-3.3124,-3.3124,-3.3129,-3.3116,-3.3111,-3.3124,-3.3124,-3.3124,-3.3124,-3.3124,-3.3124,-3.3124,-3.3124,-3.3124,-3.3124,-3.3124,-3.3124,-3.3124,-3.3124,-3.3124,-3.3124,-3.3124,-3.3939,-3.3262,-3.2931,-3.3229,-3.3943,-3.4691,-3.4204,-3.2887,-3.3345,-3.2942,-3.1909,-3.0989,-2.9683,-2.8153,-2.7272,-2.6734,-2.6544,-2.6718,-2.6679,-2.6487,-2.6487,-2.6487,-2.6487,-2.6487,-2.6487,-2.6521,-2.6679,-2.6679,-2.6533,-2.6692,-2.6718,-2.6612,-2.759,-2.7839,-2.7341,-2.7365,-2.7367,-2.7382,-2.7353,-2.7691,-2.8366,-2.8988,-2.8793,-2.7805,-2.685,-2.5972,-2.5152,-2.4134,-2.3961,-2.4798,-2.4601,-2.4437,-2.4408,-2.4501,0.0,0.0,0.0,0.0,0.0,0.0,0.0,0.0,0.0,-2.384,-2.3159,0.0,-2.4745,0.0,-2.3032,-2.4239,-2.6661,-2.6581,0.0,0.0,-2.8694,-2.905,-2.7945,-2.9512,-3.0553,-3.024,-3.0167,-3.0664,-3.1951,-3.2137,-3.2483,-3.3253,-3.4016,-3.4508,-3.4513,-3.3688,-3.3124,-3.3124,-3.3124,-3.3124,-3.3124,-3.3124,-3.3124,-3.3124,-3.3124,-3.3124,-3.3124,-3.3124,-3.3124,-3.3124,-3.3124,-3.3124,-3.3124,-3.3124,-3.3124,-3.3124,-3.3124,-3.3124,-3.3124,-3.3124,-3.3124,-3.3449,-3.2607,-3.2593,-3.2678,-3.282,-3.3802,-3.3616,-3.2629,-3.2713,-3.2272,-3.1361,-3.0357,-2.893,-2.7201,-2.6933,-2.6725,-2.6499,-2.6487,-2.6487,-2.6487,-2.6487,-2.6487,-2.6487,-2.6487,-2.6487,-2.6487,-2.6487,-2.6487,-2.6487,-2.6487,-2.6487,-2.6533,-2.6939,-2.7025,-2.6805,-2.723,-2.7626,-2.8027,-2.764,-2.7578,-2.7863,-2.8233,-2.8019,-2.7183,-2.633,-2.564,-2.5172,-2.4139,-2.3959,-2.4743,-2.4344,-2.3996,-2.3793,-2.3724,-2.3343,0.0,0.0,0.0,0.0,0.0,0.0,0.0,0.0,0.0,0.0,0.0,-2.5119,-2.482,-2.451,-2.537,-2.7875,-2.7506,-2.7399,-2.8077,-2.8783,-2.8838,-2.8048,-2.9249,-2.988,-2.9472,-2.9408,-2.9641,-3.0188,-3.0532,-3.0893,-3.1457,-3.269,-3.3643,-3.3905,-3.3441,-3.3124,-3.3124,-3.3124,-3.3124,-3.3124,-3.3124,-3.3124,-3.3124,-3.3124,-3.3124,-3.3124,-3.3124,-3.3124,-3.3124,-3.3124,-3.3124,-3.3124,-3.3124,-3.3124,-3.3124,-3.3124,-3.3124,-3.3124,-3.3124,-3.3124,-3.3087,-3.2249,-3.2249,-3.1756,-3.1082,-3.1888,-3.2249,-3.2177,-3.1499,-3.1064,-3.0708,-2.9376,-2.7946,-2.6549,-2.7065,-2.7014,-2.6499,-2.6487,-2.6487,-2.6487,-2.6487,-2.6487,-2.6487,-2.6487,-2.6487,-2.6487,-2.6487,-2.6487,-2.6487,-2.6487,-2.6452,-2.6314,-2.6418,-2.6487,-2.6517,-2.7351,-2.8184,-2.8928,-2.8184,-2.7722,-2.7557,-2.7537,-2.7149,-2.6311,-2.5719,-2.534,-2.5206,-2.4366,-2.4094,-2.4489,-2.4186,-2.3733,-2.3186,-2.3242,-2.3052,0.0,-2.2507,0.0,0.0,0.0,0.0,0.0,0.0,0.0,0.0,-2.4394,-2.5544,-2.7425,-2.658,-2.6656,-2.8437,-2.8081,-2.7891,-2.8242,-2.8301,-2.8301,-2.8291,-2.8301,-2.8271,-2.8213,-2.8213,-2.8057,-2.7793,-2.8727,-2.9569,-2.9888,-3.0928,-3.1893,-3.2493,-3.2884,-3.3124,-3.3124,-3.3124,-3.3124,-3.3124,-3.3124,-3.3086,-3.3036,-3.3074,-3.3086,-3.2943,-3.3061,-3.3124,-3.3124,-3.3124,-3.3124,-3.3124,-3.3124,-3.3124,-3.3124,-3.3124,-3.3124,-3.3124,-3.3124,-3.3124,-3.1193,-3.0355,-3.0317,-3.0203,-3.0075,-3.0254,-3.0317,-3.0355,-3.0932,-3.0262,-2.8692,-2.8384,-2.7607,-2.6575,-2.7065,-2.7027,-2.6499,-2.6487,-2.6487,-2.6487,-2.6487,-2.6487,-2.6487,-2.6487,-2.6487,-2.6487,-2.6487,-2.6487,-2.6487,-2.6487,-2.6094,-2.5335,-2.6094,-2.6436,-2.6361,0.0,0.0,0.0,-2.6873,-2.6769,-2.6748,-2.6714,-2.6255,-2.5323,-2.4748,0.0,-2.3304,-2.2638,-2.2581,-2.305,-2.3024,0.0,0.0,0.0,0.0,0.0,0.0,0.0,0.0,0.0,0.0,0.0,-2.4904,-2.4713,-2.3908,-2.4842,-2.6044,-2.728,-2.7351,-2.7467,-2.7883,-2.8078,-2.8203,-2.8281,-2.8291,-2.8301,-2.8301,-2.8291,-2.8164,-2.7875,-2.7836,-2.7617,-2.729,-2.7943,-2.8471,-2.8636,-2.9322,-2.9897,-3.0158,-3.1833,-3.3038,-3.3124,-3.2896,-3.3038,-3.3124,-3.3056,-3.2769,-3.2579,-3.2835,-3.2842,-3.2503,-3.2767,-3.3043,-3.3074,-3.3124,-3.3086,-3.3099,-3.3124,-3.3048,-3.3111,-3.3099,-3.3124,-3.3124,-3.3124,-3.3124,-3.0658,0.0,-2.9779,-2.9628,0.0,-2.9352,-2.9202,-2.9013,-2.9754,-2.9335,-2.8122,-2.8109,-2.7645,-2.6914,-2.719,-2.7014,-2.6487,-2.6487,-2.6487,-2.6487,-2.6487,-2.6487,-2.6487,-2.6487,-2.6245,-2.5769,-2.5756,-2.5511,-2.5028,-2.5016,-2.4767,-2.4264,-2.4767,-2.4992,-2.4933,-2.5004,-2.5276,-2.5769,-2.5288,-2.5016,-2.5016,-2.5016,-2.4767,-2.4253,0.0,0.0,0.0,0.0,0.0,0.0,0.0,0.0,0.0,0.0,0.0,-2.221,-2.2561,-2.3026,-2.3524,-2.3981,-2.4195,-2.4233,-2.4801,-2.4982,-2.4484,-2.5591,-2.6556,-2.715,-2.7695,-2.7978,-2.7978,-2.8164,-2.8301,-2.8281,-2.8105,-2.7988,-2.7959,-2.7793,-2.7588,-2.7402,-2.7344,-2.7187,-2.6768,-2.7013,-2.747,-2.7823,-2.8246,-2.8727,-2.9361,-3.0463,-3.1235,-3.1279,-3.1279,-3.1404,-3.1668,-3.1748,-3.1834,-3.1834,-3.2051,-3.2102,-3.1863,-3.2051,-3.224,-3.224,-3.2252,-3.2282,-3.2282,-3.2252,-3.2282,-3.2294,-3.2282,-3.2282,-3.2277,-3.2692,-3.3124,-3.0482,-2.9792,-2.9779,-2.9453,-2.8888,-2.8888,-2.8524,-2.7996,0.0,0.0,0.0,-2.8109,-2.7808,-2.7329,-2.7381,-2.7115,-2.6499,-2.6487,-2.6487,-2.6487,-2.6487,-2.6418,-2.6245,-2.6245,-2.5734,-2.4743,-2.4707,-2.4301,-2.3514,-2.3478,-2.3415,-2.3257,-2.3415,-2.3478,-2.3478,-2.3331,-2.3635,-2.4409,-2.3843,-2.3478,-2.3478,-2.3478,-2.3404,-2.3257,-2.322,-2.3147,-2.2962,-2.2178,-2.1976,-2.2389,-2.1671,-2.1405,-2.1858,-2.1961,-2.2149,-2.2497,-2.2545,-2.2773,-2.3081,-2.3535,-2.3857,-2.4004,-2.4746,-2.5233,-2.5185,-2.624,-2.6904,-2.6904,-2.7617,-2.8057,-2.8066,-2.8066,-2.8066,-2.8057,-2.7754,-2.7549,-2.7591,-2.7246,-2.7021,-2.6924,-2.6904,-2.6748,-2.6338,-2.6309,-2.6488,-2.7095,-2.7231,-2.7589,-2.8541,-2.9177,-2.9624,-2.9624,-2.967,-2.9556,-2.9945,-3.004,-3.0191,-3.0448,-3.0655,-3.0844,-3.0934,-3.0889,-3.091,-3.1104,-3.1005,-3.0782,-3.0811,-3.0736,-3.0828,-3.0828,-3.0828,-3.0828,-3.0914,-3.1544,-3.2197,-2.9934,-2.9779,-2.9779,-2.9465,-2.8888,-2.8888,-2.8348,-2.7419,-2.7482,-2.7733,-2.8109,-2.8109,-2.7795,-2.7306,-2.7783,-2.7431,-2.6512,-2.6487,-2.6487,0.0,-2.6487,-2.6025,-2.5229,-2.5217,-2.4707,-2.3781,-2.3708,-2.3635,-2.3514,-2.3478,-2.3073,-2.2403,-2.3073,-2.3478,-2.3441,-2.2627,-2.2291,-2.244,-2.3147,-2.3478,-2.3478,-2.3478,-2.3073,-2.2253,-2.2226,-2.1811,-2.1049,-2.0905,-2.0976,-2.1372,-2.1283,-2.1401,-2.1874,-2.2168,-2.2451,-2.251,-2.2808,-2.3033,-2.3101,-2.3555,-2.4111,-2.4824,-2.5352,-2.5596,-2.5615,-2.6152,-2.6475,-2.6494,-2.6953,-2.7187,-2.7187,-2.7226,-2.7256,-2.7217,-2.7158,-2.7109,-2.71,-2.7021,-2.6836,-2.6514,-2.6475,-2.6318,-2.5898,-2.585,-2.5898,-2.5995,-2.6109,-2.6091,-2.6648,-2.8075,-2.9269,-2.934,-2.9094,-2.897,-2.8833,-2.8649,-2.8402,-2.7942,-2.8364,-2.8815,-2.9212,-2.8939,-2.9016,-2.9822,-2.9263,-2.8722,-2.8648,-2.8545,-2.868,-2.8688,-2.8719,-2.8657,-2.8688,-2.8896,-2.9507,-2.9779,-2.9754,-2.9453,-2.9001,-2.8436,-2.7846,-2.7354,-2.6914,-2.719,-2.7595,-2.8084,-2.8109,-2.7971,-2.7733,-2.7682,-2.6957,-2.5699,-2.5699,-2.5394,-2.4909,-2.4886,-2.4624,-2.4228,-2.4192,-2.3672,-2.2739,-2.2702,-2.2451,-2.1973,-2.1935,-2.1718,-2.1298,-2.1718,-2.1945,-2.1897,-2.1489,-2.1221,-2.127,-2.1718,-2.1924,-2.1935,-2.1935,-2.1707,-2.127,-2.1221,-2.1039,-2.0605,-2.0615,-2.0771,-2.1171,-2.0557,-2.0544,-2.1212,-2.0764,-2.0596,-2.0855,-2.1025,-2.1445,-2.2076,-2.2728,-2.3299,-2.3896,-2.3663,-2.3534,-2.3534,-2.5301,-2.6377,-2.6396,-2.6768,-2.7012,-2.7012,-2.7012,-2.7012,-2.7012,-2.6816,-2.668,-2.665,-2.6445,-2.624,-2.6064,-2.6035,-2.5908,-2.5713,-2.5684,-2.5684,-2.5664,-2.5508,-2.5469,-2.5615,-2.6222,-2.6825,-2.6956,-2.671,-2.6639,-2.6896,-2.6801,-2.6703,-2.6814,-2.704,-2.7337,-2.7589,-2.7337,-2.747,-2.787,-2.7535,-2.7282,-2.7209,-2.7229,-2.724,-2.724,-2.7229,-2.7229,-2.7229,-2.7229,-2.7843,-2.9779,-2.9741,-2.8936,-2.8189,-2.7494,-2.6586,-2.6191,-2.6317,-2.6635,-2.7042,-2.7544,-2.778,-2.7755,-2.7373,-2.6968,-2.6021,-2.4802,-2.4683,-2.4253,-2.3551,-2.3478,-2.3368,-2.3195,-2.3147,-2.2664,-2.1773,-2.1707,-2.1298,-2.0683,-2.0615,-2.0615,-2.0605,-2.0615,-2.0615,-2.0615,-2.0615,-2.0615,-2.0566,-2.0362,-2.0362,-2.0605,-2.0615,-2.0479,-2.0245,-2.0245,-2.0118,-1.9874,-1.9835,-2.008,-2.0489,-1.9678,-1.9567,-2.0333,-1.9521,-1.9109,-1.9464,-1.9497,-1.9898,-2.0791,-2.1578,-2.2152,-2.2443,-2.2002,-2.1693,-2.187,-2.3921,-2.5505,-2.5752,-2.5982,-2.6275,-2.6579,-2.6699,-2.6719,-2.6709,-2.6435,-2.625,-2.6211,-2.5937,-2.5684,-2.5684,-2.5684,-2.5693,-2.5684,-2.5684,-2.5684,-2.5635,-2.543,-2.5361,-2.5459,-2.4893,-2.46,-2.4619,-2.4482,-2.459,-2.4948,-2.4936,-2.5131,-2.5673,-2.5663,-2.5801,-2.5935,-2.5955,-2.5913,-2.601,-2.5852,-2.5644,-2.5715,-2.5684,-2.5675,-2.5623,-2.5602,-2.5664,-2.5612,-2.5644,-2.6069,-2.9753,-2.9575,-2.8195,-2.7018,-2.602,-2.5409,-2.5373,-2.5632,-2.5363,-2.543,-2.5956,-2.6917,-2.6593,-2.5415,-2.5286,-2.4665,-2.3669,-2.3624,-2.3562,-2.3441,-2.3478,-2.2999,-2.2188,-2.2151,-2.1631,-2.0857,-2.0789,-2.075,-2.0605,-2.0615,-2.0615,-2.0615,-2.0615,-2.0566,-2.0566,-2.0566,-2.0566,-2.0566,-1.9638,-1.9599,-2.0527,-2.0615,-2.0157,-1.9155,-1.9164,-1.8669,-1.7779,-1.7617,-1.7953,-1.859,-1.8572,-1.8819,-1.9467,-1.9439,-1.941,-1.9443,-1.9451,-1.9588,-1.972,-2.0345,-2.077,-2.0853,-2.1304,-2.1533,-2.1541,-2.1937,-2.2669,-2.3623,-2.3949,-2.4529,-2.5664,-2.58,-2.5741,-2.5613,-2.5781,-2.5801,-2.5625,-2.5723,-2.5684,-2.5684,-2.5635,-2.5684,-2.5684,-2.5684,-2.5684,-2.5479,-2.5509,-2.543,-2.5195,-2.4717,-2.4248,-2.4043,-2.3867,-2.3883,-2.3979,-2.357,-2.3636,-2.3604,-2.3517,-2.4016,-2.4542,-2.4296,-2.3724,-2.4723,-2.4264,-2.381,-2.3681,-2.343,-2.3604,-2.3897,-2.381,-2.356,-2.3474,-2.3637,-2.4118,-2.7851,-2.7752,-2.6776,-2.5945,-2.5215,-2.496,-2.4956,-2.5108,-2.5284,-2.5102,-2.4794,-2.5494,-2.5521,-2.5015,-2.5004,-2.415,-2.2649,-2.2627,-2.2301,-2.1832,-2.1794,-2.1555,-2.1193,-2.1193,-2.0934,-2.0605,-2.0615,-2.0615,-2.0615,-2.0605,-2.0615,-2.0615,-2.0615,-2.0294,-1.9717,-1.9638,-1.9313,-1.8669,-1.823,-1.8189,-1.859,-1.863,-1.8461,-1.8069,-1.7989,-1.7819,-1.7408,-1.7458,-1.7853,-1.8296,-1.787,-1.7807,-1.8388,-1.7716,-1.7296,-1.7343,-1.8041,-1.8411,-1.8419,-1.8855,-1.9213,-1.9351,-1.9167,-1.9111,-1.9243,-1.9258,-1.9826,-2.11,-2.2013,-2.2776,-2.3335,-2.4048,-2.4205,-2.3741,-2.4707,-2.5118,-2.3484,-2.4766,-2.543,-2.4756,-2.5226,-2.5684,-2.5684,-2.5684,-2.5333,-2.4875,-2.4927,-2.5235,-2.5059,-2.4492,-2.4023,-2.3809,-2.3584,-2.3364,-2.3398,-2.3237,-2.311,-2.3101,-2.3101,-2.343,-2.3551,-2.3507,-2.3309,-2.38,-2.343,-2.3144,-2.3222,-2.3101,-2.3101,-2.3101,-2.3101,-2.3101,-2.3101,-2.3101,-2.3387,-2.6483,-2.6393,-2.5842,-2.5152,-2.4395,-2.4395,-2.4471,-2.4556,-2.4692,-2.4344,-2.3822,-2.4163,-2.4326,-2.4309,-2.4216,-2.3257,-2.1917,-2.1655,-2.126,-2.0644,-2.0615,-2.0605,-2.0615,-2.0615,-2.0615,-2.0615,-2.0615,-2.044,-2.0167,-1.9795,-1.9708,-1.9678,-1.9678,-1.9313,-1.863,-1.851,-1.8149,-1.7383,-1.705,-1.6846,-1.6846,-1.6568,-1.6568,-1.6805,-1.6846,-1.6763,-1.6552,-1.6752,-1.7087,-1.75,-1.6907,-1.6738,-1.7102,-1.6292,-1.5825,-1.5872,-1.6669,-1.7178,-1.7178,-1.7421,-1.7739,-1.7895,-1.7475,-1.732,-1.7508,-1.7589,-1.8042,-1.8961,-1.9973,-2.0735,-2.1744,-2.2567,-2.2667,-2.1954,-2.3583,-2.3683,-2.2165,-2.3583,-2.4156,-2.3434,-2.385,-2.4609,-2.4559,-2.4461,-2.4057,-2.3398,-2.4045,-2.4546,-2.4458,-2.4069,-2.3926,-2.3652,-2.3286,-2.314,-2.3101,-2.3101,-2.3101,-2.3101,-2.3101,-2.3101,-2.3101,-2.3101,-2.3101,-2.343,-2.3178,-2.3101,-2.3101,-2.3101,-2.3101,-2.3101,-2.3101,-2.3101,-2.3101,-2.3101,-2.3101,-2.6483,-2.6363,-2.5813,-2.4675,-2.3383,-2.3404,-2.3614,-2.3991,-2.3125,-2.2863,-2.3177,-2.3246,-2.2977,-2.2705,-2.2435,-2.1784,-2.1252,-2.0899,-2.0722,-2.0615,-2.0615,-2.0615,-2.0615,-2.0615,-2.0566,-2.0323,-2.0284,-1.9923,-1.9036,-1.806,-1.7464,-1.7536,-1.7617,-1.7496,-1.7383,-1.7383,-1.7342,-1.7009,-1.6214,-1.5801,-1.5684,-1.4838,-1.4902,-1.5722,-1.5794,-1.5449,-1.4831,-1.4683,-1.5004,-1.5528,-1.5582,-1.5677,-1.5886,-1.5872,-1.5825,-1.5825,-1.5872,-1.592,-1.6001,-1.6278,-1.6569,-1.6817,-1.7015,-1.7306,-1.7502,-1.7542,-1.7654,-1.774,-1.7996,-1.9013,-2.0982,-2.155,-2.1651,-2.144,-2.1744,-2.1904,-2.16,-2.1803,-2.1895,-2.1803,-2.2055,-2.2265,-2.2013,-2.1845,-2.2055,-2.2106,-2.2891,-2.3443,-2.2888,-2.3495,-2.3604,-2.3127,-2.2955,-2.3091,-2.3047,-2.3101,-2.3101,-2.3101,-2.3101,-2.3101,-2.3101,-2.3101,-2.3101,-2.3101,-2.3101,-2.3101,-2.3101,-2.3101,-2.3101,-2.3101,-2.3101,-2.3101,-2.3101,-2.3101,-2.3101,-2.4349,-2.4296,-2.4089,-2.3671,-2.321,-2.3148,-2.3268,-2.3365,-2.3083,-2.2945,-2.3071,-2.3101,-2.3013,-2.2838,-2.2187,-2.165,-2.1171,-2.0771,-2.0615,-2.0615,-2.0615,-2.0235,-1.9599,-1.9599,-1.9155,-1.859,-1.8461,-1.8301,-1.7948,-1.7464,-1.7302,-1.7302,-1.7302,-1.6968,-1.6396,-1.6273,-1.5951,-1.5291,-1.4993,-1.4942,-1.4963,-1.476,-1.4899,-1.5184,-1.5047,-1.4783,-1.4509,-1.4877,-1.5184,-1.5391,-1.5571,-1.5671,-1.5812,-1.5825,-1.5825,-1.5825,-1.5825,-1.5825,-1.5838,-1.5878,-1.6112,-1.6393,-1.6569,-1.6864,-1.7246,-1.7367,-1.7427,-1.7588,-1.7589,-1.8251,-1.8864,-1.9826,-2.0025,-1.9465,-2.0633,-2.0939,-1.9922,-2.0531,-2.1397,-2.0743,-2.1041,-2.1397,-2.0735,-2.1084,-2.1296,-2.0684,-2.155,-2.1917,-2.1519,-2.1735,-2.1831,-2.122,-2.1445,-2.1933,-2.1933,-2.2677,-2.3101,-2.3101,-2.3101,-2.3101,-2.3101,-2.3101,-2.3101,-2.3101,-2.3101,-2.3101,-2.3101,-2.3101,-2.3101,-2.3101,-2.3101,-2.3101,-2.3101,-2.3101,-2.3101,-2.3101,-2.3101,-2.3101,-2.3101,-2.3101,-2.3101,-2.3101,-2.3047,-2.2677,-2.2545,-2.2448,-2.2138,-2.1952,-2.1822,-2.1117,-2.0615,-2.0331,-2.0148,-2.0089,-2.004,-1.9717,-1.9155,-1.8559,-1.847,-1.8069,-1.7334,-1.6927,-1.6805,-1.6723,-1.6445,-1.6288,-1.6247,-1.634,-1.6027,-1.5422,-1.5424,-1.507,-1.4538,-1.4569,-1.4669,-1.4696,-1.4901,-1.5015,-1.5001,-1.4856,-1.4803,-1.481,-1.519,-1.5451,-1.5545,-1.5684,-1.5825,-1.5778,-1.5391,-1.5384,-1.573,-1.5825,-1.5825,-1.5825,-1.5825,-1.5959,-1.6239,-1.6293,-1.6569,-1.7112,-1.7199,-1.734,-1.7554,-1.7589,-1.7589,-1.7733,-1.8454,-1.8558,-1.7937,-1.9265,-1.9672,-1.7996,-1.9265,-1.9723,-1.9265,-1.9672,-1.9775,-1.9317,-1.9826,-1.9775,-1.9013,-2.0128,-2.066,-2.0126,-2.0361,-2.0314,-1.9708,-2.0223,-2.0621,-2.089,-2.1578,-2.2677,-2.2862,-2.3091,-2.3101,-2.3101,-2.3101,-2.3101,-2.3101,-2.3101,-2.3101,-2.3101,-2.3101,-2.3101,-2.3101,-2.3101,-2.3101,-2.3101,-2.3101,-2.3101,-2.3101,-2.3101,-2.3101,-2.3047,-2.296,-2.2916,-2.3003,-2.2633,-2.1702,-2.1293,-2.1159,-2.0169,-1.9906,-1.9537,-1.9181,-1.8596,-1.8676,-1.8807,-1.8904,-1.8877,-1.798,-1.7496,-1.7293,-1.7302,-1.7172,-1.6944,-1.6165,-1.5718,-1.5665,-1.4937,-1.4508,-1.4352,-1.4704,-1.4763,-1.4522,-1.4736,-1.4859,-1.4628,-1.4514,-1.4681,-1.4925,-1.474,-1.4682,-1.4779,-1.4963,-1.5028,-1.514,-1.5266,-1.5358,-1.5569,-1.5575,-1.5737,-1.5296,-1.4507,-1.4405,-1.5242,-1.5581,-1.5683,-1.5588,-1.5486,-1.5508,-1.5965,-1.6149,-1.6318,-1.6961,-1.7152,-1.7286,-1.7515,-1.7589,-1.7589,-1.7589,-1.774,-1.774,-1.7641,-1.7996,-1.7891,-1.774,-1.7641,-1.7687,-1.7793,-1.8048,-1.7687,-1.7687,-1.7996,-1.8048,-1.8199,-1.8797,-1.9367,-1.88,-1.9365,-1.9924,-1.9521,-1.933,-1.9451,-1.9898,-2.0486,-2.1623,-2.2589,-2.2906,-2.3101,-2.3101,-2.3101,-2.3101,-2.3101,-2.3101,-2.3101,-2.3101,-2.3101,-2.3101,-2.3101,-2.3101,-2.3101,-2.3101,-2.3101,-2.3101,-2.3101,-2.3101,-2.3101,-2.2633,-2.1889,-2.1845,-2.1445,-2.0629,-2.0169,-2.0079,-1.9988,-1.9679,-1.9497,-1.9352,-1.8896,-1.8559,-1.8339,-1.7534,-1.7285,-1.7659,-1.7423,-1.6846,-1.6314,-1.6191,-1.5786,-1.5187,-1.4951,-1.4877,-1.4833,-1.47,-1.4733,-1.4716,-1.4725,-1.4314,-1.3497,-1.3531,-1.3245,-1.2438,-1.249,-1.2573,-1.259,-1.2797,-1.2881,-1.2844,-1.2964,-1.2997,-1.3045,-1.3862,-1.4374,-1.4459,-1.3596,-1.3108,-1.306,-1.2716,-1.2721,-1.306,-1.3108,-1.3108,-1.3108,-1.3204,-1.3673,-1.4377,-1.4642,-1.5403,-1.659,-1.6746,-1.6965,-1.7429,-1.7589,-1.7589,-1.7589,-1.7589,-1.7477,-1.7589,-1.7589,-1.7589,-1.7589,-1.7589,-1.7589,-1.7589,-1.7589,-1.7589,-1.7589,-1.7589,-1.7589,-1.7589,-1.8048,-1.8064,-1.784,-1.796,-1.7794,-1.7385,-1.7727,-1.8326,-1.862,-1.9188,-2.0178,-2.1177,-2.1819,-2.2271,-2.2501,-2.2545,-2.2687,-2.2775,-2.2818,-2.2862,-2.2916,-2.3091,-2.3091,-2.3067,-2.3086,-2.3076,-2.3101,-2.3179,-2.3296,-2.2448,-2.2403,-2.1943,-2.1346,-2.0666,-2.0621,-2.0215,-1.9451,-1.9001,-1.8818,-1.8772,-1.8311,-1.8126,-1.8026,-1.7605,-1.7328,-1.7054,-1.5965,-1.5788,-1.6175,-1.6154,-1.5711,-1.5075,-1.4698,-1.4311,-1.3746,-1.3378,-1.323,-1.3236,-1.3438,-1.3568,-1.3529,-1.3665,-1.3302,-1.2525,-1.2505,-1.2129,-1.1494,-1.1609,-1.168,-1.1705,-1.1821,-1.1896,-1.1896,-1.1896,-1.1896,-1.1945,-1.2328,-1.2668,-1.2813,-1.1896,-1.1409,-1.1799,-1.1507,-1.1409,-1.1799,-1.1896,-1.1945,-1.1896,-1.2042,-1.2188,-1.3006,-1.3156,-1.3665,-1.4835,-1.5131,-1.5423,-1.5765,-1.5901,-1.6009,-1.5962,-1.5962,-1.6015,-1.6015,-1.6988,-1.7529,-1.7589,-1.7589,-1.7589,-1.7589,-1.7589,-1.7589,-1.7589,-1.7589,-1.7589,-1.7589,-1.7582,-1.7475,-1.7266,-1.7089,-1.6784,-1.6572,-1.6891,-1.7223,-1.7279,-1.7937,-1.8696,-1.9542,-2.0367,-2.0863,-2.1177,-2.1177,-2.1221,-2.1445,-2.1534,-2.1489,-2.1543,-2.2677,-2.3091,-2.3076,-2.2944,-2.331,-2.3452,-2.3647,-2.3812,-2.1203,-2.1069,-1.9988,-1.9588,-1.9405,-1.9397,-1.9268,-1.8985,-1.8087,-1.7591,-1.7365,-1.6615,-1.6062,-1.5799,-1.575,-1.5413,-1.4899,-1.4712,-1.4327,-1.4252,-1.4087,-1.3854,-1.3673,-1.3014,-1.2742,-1.2648,-1.1858,-1.1375,-1.1563,-1.1626,-1.1165,-1.1569,-1.1822,-1.1517,-1.1505,-1.1689,-1.1599,-1.1249,-1.138,-1.1385,-1.1385,-1.1502,-1.1507,-1.1458,-1.1409,-1.1361,-1.1165,-1.0534,-1.0534,-1.1317,-1.0435,-1.0337,-1.1116,-1.0485,-1.0391,-1.1263,-1.1604,-1.1458,-1.1556,-1.1263,-1.1512,-1.175,-1.1809,-1.1992,-1.2683,-1.3068,-1.3224,-1.3509,-1.3587,-1.3557,-1.3621,-1.3642,-1.3642,-1.375,-1.553,-1.6829,-1.7364,-1.7364,-1.7312,-1.7529,-1.7589,-1.7589,-1.7589,-1.7589,-1.7589,-1.7589,-1.7582,-1.7455,-1.7353,-1.7192,-1.7058,-1.6897,-1.6735,-1.6614,-1.6793,-1.6862,-1.7591,-1.7855,-1.8718,-1.9314,-1.9988,-2.0133,-2.0178,-2.0305,-2.0395,-2.0305,-2.0539,-2.1543,-2.2258,-2.2227,-2.2565,-2.3422,-2.367,-2.3551,-2.3466,-1.9988,-1.9943,-1.9633,-1.9001,-1.8234,-1.818,-1.763,-1.6842,-1.648,-1.6393,-1.6197,-1.5967,-1.5778,-1.5758,-1.5571,-1.4966,-1.4004,-1.3728,-1.294,-1.2106,-1.195,-1.1912,-1.1824,-1.1526,-1.1391,-1.1553,-1.1351,-1.1417,-1.1432,-1.1372,-1.1499,-1.172,-1.1505,-1.1216,-1.0569,-1.0458,-0.9948,-0.9164,-0.9065,-0.9118,-0.9167,-0.9167,-0.9019,-0.9019,-0.9114,-0.9118,-0.9069,-0.8726,-0.8627,-0.892,-0.8775,-0.8627,-0.9118,-0.8821,-0.8821,-0.9114,-0.9164,-0.9065,-0.9118,-0.9118,-0.9509,-1.0386,-1.0489,-1.1067,-1.2308,-1.243,-1.2649,-1.2924,-1.3044,-1.3044,-1.317,-1.3156,-1.321,-1.3372,-1.3965,-1.4824,-1.5743,-1.6009,-1.6333,-1.7305,-1.7477,-1.7371,-1.7312,-1.7424,-1.7477,-1.7477,-1.7575,-1.7562,-1.7474,-1.7333,-1.7192,-1.6985,-1.6767,-1.6462,-1.6338,-1.6252,-1.6312,-1.6339,-1.6929,-1.7708,-1.8626,-1.9443,-1.9542,-1.9724,-1.9588,-1.9497,-1.9633,-2.0178,-2.0633,-2.1191,-2.1717,-2.2262,-2.2593,-2.2653,-2.2306,-1.8726,-1.868,-1.8172,-1.7537,-1.6943,-1.6897,-1.648,-1.592,-1.5825,-1.5825,-1.5825,-1.5825,-1.5486,-1.5032,-1.4823,-1.3973,-1.2742,-1.259,-1.2088,-1.1388,-1.0846,-1.0893,-1.1003,-1.067,-1.0371,-1.0556,-1.0245,-1.0013,-0.9982,-1.0187,-1.0235,-1.0124,-1.0239,-0.985,-0.9205,-0.9118,-0.8825,-0.8137,-0.7988,-0.7988,-0.7988,-0.7988,-0.8038,-0.7988,-0.7988,-0.7988,-0.8038,-0.7988,-0.7988,-0.8038,-0.7988,-0.7988,-0.7988,-0.7988,-0.7988,-0.7988,-0.7988,-0.8038,-0.7988,-0.7988,-0.8333,-0.897,-0.9167,-0.9607,-1.0267,-1.0681,-1.0927,-1.0967,-1.1199,-1.1356,-1.1394,-1.1428,-1.1428,-1.1319,-1.1487,-1.2344,-1.4239,-1.4556,-1.4877,-1.5524,-1.5796,-1.5802,-1.5849,-1.628,-1.6605,-1.6764,-1.7252,-1.7417,-1.7549,-1.7408,-1.7347,-1.7192,-1.7025,-1.6804,-1.6556,-1.6419,-1.619,-1.6048,-1.6062,-1.6702,-1.7296,-1.8303,-1.8118,-1.8172,-1.8495,-1.8696,-1.8581,-1.8759,-1.9548,-2.01,-2.0586,-2.1124,-2.157,-2.1913,-2.1561,-1.7505,-1.7412,-1.6292,-1.5825,-1.5872,-1.5825,-1.5872,-1.5825,-1.5825,-1.5683,-1.5534,-1.5588,-1.4758,-1.3669,-1.3417,-1.2603,-1.1362,-1.1387,-1.1182,-1.0639,-1.0118,-0.9975,-1.0491,-0.972,-0.9473,-0.9527,-0.852,-0.8269,-0.8407,-0.8276,-0.8134,-0.8379,-0.8283,-0.8137,-0.8233,-0.8134,-0.7935,-0.7686,-0.7534,-0.7335,-0.7182,-0.708,-0.703,-0.708,-0.7484,-0.7736,-0.7889,-0.7988,-0.7988,-0.7988,-0.7988,-0.7988,-0.7988,-0.7988,-0.7988,-0.7988,-0.7988,-0.7988,-0.7988,-0.7988,-0.7988,-0.8187,-0.8137,-0.7988,-0.8389,-0.87,-0.8913,-0.9073,-0.8791,-0.9217,-0.9313,-0.9099,-0.9261,-0.9427,-0.921,-1.0296,-1.2082,-1.2945,-1.3107,-1.3318,-1.3372,-1.3318,-1.3642,-1.4288,-1.5204,-1.5257,-1.5849,-1.628,-1.6611,-1.6759,-1.7049,-1.7521,-1.7353,-1.7172,-1.6911,-1.6656,-1.6362,-1.614,-1.5905,-1.6109,-1.615,-1.6608,-1.6237,-1.6285,-1.7117,-1.7221,-1.6843,-1.7359,-1.8424,-1.9265,-1.991,-2.0427,-2.0923,-2.1204,-2.1084,-1.6204,-1.6197,-1.5927,-1.5825,-1.5825,-1.5825,-1.5778,-1.5778,-1.5778,-1.5146,-1.4465,-1.431,-1.3542,-1.2328,-1.2169,-1.1536,-1.04,-1.0206,-0.9836,-0.872,-0.8572,-0.8474,-0.8732,-0.8212,-0.8237,-0.8297,-0.8184,-0.7939,-0.7889,-0.7683,-0.7939,-0.7839,-0.7584,-0.7939,-0.7836,-0.7584,-0.7434,-0.6631,-0.6431,-0.5924,-0.522,-0.5118,-0.5118,-0.517,-0.5977,-0.6983,-0.7786,-0.7988,-0.7988,-0.7988,-0.7889,-0.7686,-0.7939,-0.7988,-0.7988,-0.7988,-0.7988,-0.7988,-0.7988,-0.7988,-0.7988,-0.7988,-0.7988,-0.7988,-0.7988,-0.8052,-0.8265,-0.8414,-0.855,-0.8716,-0.8899,-0.8937,-0.8937,-0.8937,-0.8937,-0.9158,-0.9915,-1.0891,-1.1914,-1.2783,-1.3048,-1.3264,-1.321,-1.3318,-1.375,-1.3804,-1.4234,-1.4776,-1.531,-1.5849,-1.6174,-1.6611,-1.7016,-1.6788,-1.6879,-1.6733,-1.672,-1.6446,-1.6219,-1.5945,-1.5939,-1.5932,-1.5972,-1.5919,-1.6008,-1.5986,-1.6234,-1.6513,-1.7646,-1.8394,-1.9162,-1.966,-2.0097,-2.0393,-2.0657,-1.5825,-1.5825,-1.5825,-1.5825,-1.5825,-1.5778,-1.5486,-1.4997,-1.4895,-1.4178,-1.3156,-1.2958,-1.2231,-1.1068,-1.0974,-1.0288,-0.9312,-0.9069,-0.8722,-0.7982,-0.7484,-0.7033,-0.6825,-0.6473,-0.6319,-0.688,-0.7033,-0.6781,-0.6326,-0.6224,-0.5972,-0.6124,-0.6174,-0.5972,-0.6124,-0.6171,-0.5722,-0.5222,-0.507,-0.4668,-0.4116,-0.4016,-0.4016,-0.4066,-0.472,-0.5472,-0.5972,-0.6074,-0.6074,-0.6124,-0.6176,-0.6828,-0.7789,-0.7988,-0.7988,-0.7988,-0.7988,-0.7988,-0.7988,-0.7988,-0.7988,-0.7988,-0.7988,-0.7988,-0.8015,-0.8046,-0.8245,-0.8435,-0.8564,-0.8693,-0.8903,-0.8937,-0.8937,-0.8937,-0.8937,-0.8937,-0.9044,-0.9644,-1.0296,-1.1055,-1.1051,-1.1109,-1.1269,-1.1919,-1.224,-1.2295,-1.3318,-1.3857,-1.3965,-1.4449,-1.4615,-1.5079,-1.5905,-1.6296,-1.6548,-1.6749,-1.7096,-1.6914,-1.6757,-1.6386,-1.6172,-1.6172,-1.6124,-1.6106,-1.6114,-1.6388,-1.663,-1.6861,-1.7103,-1.7801,-1.8523,-1.889,-1.9219,-1.9498,-1.9659,-1.5683,-1.5534,-1.5534,-1.5391,-1.5194,-1.5099,-1.4513,-1.368,-1.3584,-1.2861,-1.1799,-1.1609,-1.0921,-0.9899,-0.9706,-0.892,-0.7982,-0.7633,-0.7434,-0.6877,-0.6077,-0.5724,-0.547,-0.4962,-0.4608,-0.5425,-0.5625,-0.507,-0.4468,-0.4016,-0.4516,-0.4166,-0.4116,-0.4466,-0.4166,-0.4016,-0.4066,-0.3765,-0.3667,-0.3416,-0.3115,-0.3115,-0.3165,-0.3566,-0.3616,-0.3967,-0.4316,-0.4366,-0.4166,-0.4016,-0.4016,-0.5218,-0.6675,-0.7381,-0.7584,-0.7534,-0.7282,-0.7332,-0.7786,-0.7789,-0.7637,-0.7889,-0.7988,-0.7988,-0.8015,-0.817,-0.8313,-0.8479,-0.8625,-0.874,-0.8865,-0.8937,-0.8937,-0.8937,-0.8937,-0.8937,-0.8937,-0.8937,-0.9154,-0.9154,-0.9644,-0.9809,-0.9864,-1.0241,-1.0511,-1.0941,-1.2023,-1.2832,-1.2886,-1.3048,-1.3264,-1.3813,-1.4691,-1.4982,-1.5229,-1.5425,-1.5972,-1.607,-1.6207,-1.5979,-1.5664,-1.5314,-1.5185,-1.6236,-1.6426,-1.6647,-1.6985,-1.7382,-1.7589,-1.7736,-1.8104,-1.8803,-1.8863,-1.8666,-1.8911,-1.5188,-1.422,-1.4214,-1.359,-1.2673,-1.2576,-1.2528,-1.2285,-1.2231,-1.1507,-1.0391,-1.0293,-0.9558,-0.8627,-0.8333,-0.7584,-0.6578,-0.6329,-0.5824,-0.5118,-0.4468,-0.4318,-0.4218,-0.3767,-0.3417,-0.3115,-0.3566,-0.3917,-0.3817,-0.4016,-0.3516,-0.3815,-0.3765,-0.3715,-0.3665,-0.3915,-0.3115,-0.2413,-0.2314,-0.1913,-0.126,0.0,0.0,-0.2213,-0.2314,-0.2815,-0.3615,-0.3915,-0.4016,-0.4016,-0.4016,-0.4216,-0.4518,-0.4668,-0.522,-0.5924,-0.557,-0.5822,-0.7132,-0.683,-0.7033,-0.7637,-0.7736,-0.7786,-0.7872,-0.8029,-0.7917,-0.8361,-0.8561,-0.8799,-0.8875,-0.8937,-0.8937,-0.8937,-0.8937,-0.8937,-0.8937,-0.8937,-0.8937,-0.8937,-0.8937,-0.8937,-0.9154,-0.932,-0.9588,-0.986,-1.0292,-1.1105,-1.1428,-1.1647,-1.1919,-1.2697,-1.36,-1.3706,-1.3718,-1.3859,-1.4187,-1.4272,-1.4309,-1.426,-1.3997,-1.3802,-1.4116,-1.5255,-1.6221,-1.6645,-1.7119,-1.7417,-1.784,-1.774,-1.8246,-1.8738,-1.8925,-1.8985,-1.9072,-1.3868,-1.2782,-1.2806,-1.2528,-1.1945,-1.1896,-1.1507,-1.0925,-1.0877,-1.0194,-0.9266,-0.8924,-0.8226,-0.7232,-0.6983,-0.6229,-0.5275,-0.4972,-0.4568,-0.3966,-0.3366,-0.2964,-0.2815,-0.2364,-0.1662,-0.126,-0.1662,0.0,-0.1913,-0.1862,0.0,-0.1912,-0.1913,-0.1913,-0.1913,-0.1762,0.0,0.0,0.0,0.0,0.0,0.0,0.0,0.0,0.0,-0.131,-0.1712,-0.1962,-0.1913,-0.1862,-0.1913,0.0,0.0,0.0,0.0,-0.4368,-0.4268,-0.4416,-0.5672,-0.527,-0.5322,-0.5722,-0.5972,-0.5922,-0.5949,-0.5979,-0.6586,-0.7298,-0.7672,-0.81,-0.8771,-0.8771,-0.8937,-0.8937,-0.8881,-0.8826,-0.8937,-0.8937,-0.8937,-0.8937,-0.8937,-0.8937,-0.8937,-0.8992,-0.8937,-0.8937,-0.8937,-0.9427,-1.0076,-1.0351,-1.0676,-1.1219,-1.2099,-1.2786,-1.2758,-1.2951,-1.2875,-1.281,-1.2786,-1.2739,-1.2822,-1.2917,-1.3497,-1.4511,-1.5378,-1.5586,-1.5681,-1.5592,-1.66,-1.7631,-1.7611,-1.7898,-1.8905,-1.9417,-1.9068,-1.2408,-1.1342,-1.1468,-1.1365,-1.1116,-1.1116,-1.0534,-0.9752,-0.9608,-0.8867,-0.7736,-0.7534,-0.688,-0.5877,-0.5422,-0.487,-0.3667,-0.3566,-0.3366,-0.2765,-0.2063,-0.1611,-0.126,0.0,0.0,0.0,0.0,0.0,0.0,0.0,0.0,0.0,0.0,0.0,0.0,0.0,0.0,0.0,0.0,0.0,0.0,0.0,0.0,0.0,0.0,0.0,0.0,0.0,0.0,0.0,0.0,0.0,0.0,0.0,0.0,-0.2764,-0.3165,-0.3414,-0.3966,-0.3715,-0.3817,-0.4416,-0.4116,-0.4073,-0.4172,-0.4608,-0.4822,-0.5825,-0.6196,-0.6591,-0.7374,-0.7875,-0.8097,-0.8377,-0.838,-0.8549,-0.8826,-0.8937,-0.8937,-0.8937,-0.8881,-0.8881,-0.8771,-0.8937,-0.8937,-0.8937,-0.8937,-0.8937,-0.9427,-0.9316,-0.9562,-0.9723,-1.0473,-1.1614,-1.2061,-1.2338,-1.2131,-1.1879,-1.1832,-1.1803,-1.2086,-1.2343,-1.2865,-1.297,-1.2915,-1.3105,-1.332,-1.4159,-1.5338,-1.6213,-1.6404,-1.6733,-1.7155,-1.7455,-1.7337,-1.1138,-1.0014,-1.0157,-0.9558,-0.8623,-0.857,-0.8428,-0.8283,-0.818,-0.7481,-0.6229,-0.6176,-0.5475,-0.447,-0.4117,-0.3416,-0.2564,-0.2163,-0.1762,-0.1008,0.0,0.0,0.0,-0.0151,0.0,0.0,0.0,0.0,0.0,0.0,0.0,0.0,0.0,0.0,0.0,0.0,0.0,0.0,0.0,0.0,0.0,0.0,0.0,0.0,0.0,0.0,0.0,0.0,0.0,0.0,0.0,0.0,0.0,0.0,0.0,-0.0404,-0.0706,-0.146,-0.3118,-0.2815,-0.2621,-0.3274,-0.3624,-0.3901,-0.3618,-0.3654,-0.3908,-0.4607,-0.4747,-0.5027,-0.5419,-0.525,-0.5753,-0.6478,-0.698,-0.7706,-0.8322,-0.7706,-0.7873,-0.8208,-0.7986,-0.8377,-0.8602,-0.8768,-0.8937,-0.8937,-0.8937,-0.8937,-0.8954,-0.8964,-0.9039,-0.932,-0.957,-1.0576,-1.1079,-1.1419,-1.1383,-1.1063,-1.0992,-1.0977,-1.1082,-1.1193,-1.0688,-1.0771,-1.0838,-1.1543,-1.2574,-1.3542,-1.4406,-1.4777,-1.4831,-1.4896,-1.496,-1.5257,-1.5849,-0.8956,-0.8543,-0.8615,-0.8418,-0.7918,-0.7156,-0.6816,-0.6719,-0.6024,-0.542,-0.4918,-0.487,-0.4117,-0.2964,-0.2163,-0.141,0.0,0.0,0.0,0.0,0.0,0.0,0.0,0.0,0.0,0.0,0.0,0.0,0.0,0.0,0.0,0.0,0.0,0.0,0.0,0.0,0.0,0.0,0.0,0.0,0.0,0.0,0.0,0.0,0.0,0.0,0.0,0.0,0.0,0.0,0.0,0.0,0.0,0.0,0.0,0.0,0.0,0.0,-0.1417,0.0,0.0,0.0,0.0,-0.1607,-0.1752,-0.1946,-0.2418,-0.3124,-0.3185,-0.3521,-0.4191,-0.447,-0.4804,-0.5252,-0.5472,-0.642,-0.698,-0.6422,-0.6255,-0.67,-0.7146,-0.7315,-0.7706,-0.8097,-0.8432,-0.8937,-0.8937,-0.8937,-0.8981,-0.9035,-0.9137,-0.9333,-0.9477,-0.9811,-1.0098,-1.034,-1.0521,-1.0329,-1.0329,-1.0261,-1.0098,-0.9919,-0.9819,-0.9819,-1.0162,-1.1,-1.1976,-1.2157,-1.2333,-1.2753,-1.3228,-1.3412,-1.3651,-1.4421,-1.4896,-0.6798,-0.6692,-0.701,-0.7116,-0.6921,-0.5794,-0.5431,-0.537,-0.4518,-0.3865,-0.3416,-0.3115,-0.2364,-0.1561,0.0,0.0,0.0,0.0,0.0,0.0,0.0,0.0,0.0,0.0,0.0,0.0958,0.0,0.0,0.0,0.0,0.0,0.0101,0.0,0.0,0.0,0.0,0.0,0.0,0.0,0.0,0.0,0.0,0.0,0.0,0.0,0.0,0.0,0.0,0.0,0.0,0.0,0.0,0.0,0.0,0.0,0.0,0.0,0.0,0.0,0.0,0.0,0.0,0.0,0.0,0.0,0.0,-0.0276,-0.1622,-0.1622,-0.2292,-0.3018,-0.3187,-0.3409,-0.3576,-0.3967,-0.4914,-0.5639,-0.5194,-0.5027,-0.553,-0.5808,-0.5697,-0.62,-0.7035,-0.7817,-0.8657,-0.8937,-0.8826,-0.8886,-0.8907,-0.9171,-0.93,-0.9479,-0.9605,-0.968,-0.9768,-0.9788,-0.9819,-0.9819,-0.9819,-0.9819,-0.9819,-0.9819,-0.9819,-0.9819,-1.0119,-1.0899,-1.0479,-1.0122,-1.0959,-1.1675,-1.2157,-1.2633,-1.3347,-1.3467,-0.4937,-0.416,-0.5408,-0.5277,-0.4411,-0.4208,-0.4097,-0.4116,-0.3966,-0.3115,-0.2063,0.0,0.0,0.0,0.0,0.0,0.0,0.0,0.0,0.0,0.0,0.0,0.1461,0.2012,0.2363,0.3215,0.3115,0.3215,0.3515,0.3015,0.1913,0.0504,0.1461,0.1008,0.0958,0.141,0.131,0.0,0.0,0.0,0.0,0.0,0.0,0.0,0.0,0.0,0.0,0.0,0.0,0.0,0.0,0.0,0.0,0.0,0.0,0.0,0.0,0.0,0.0,0.0,0.0,0.0,0.0,0.0,0.0,0.0,0.0,0.0,0.0,0.0,0.0,-0.0504,-0.1511,-0.2014,-0.2573,-0.3296,-0.391,-0.4078,-0.4024,-0.447,-0.4414,-0.4024,-0.4303,-0.5137,-0.6308,-0.7202,-0.7654,-0.7601,-0.8404,-0.8589,-0.8997,-0.9235,-0.9493,-0.9605,-0.9639,-0.9703,-0.9791,-0.9819,-0.9819,-0.9819,-0.9819,-0.9819,-0.9819,-0.9819,-0.9819,-0.9819,-0.9819,-0.9879,-0.994,-0.9879,-1.024,-1.0899,-1.108,-1.1378,-1.1197,-0.3635,-0.2625,-0.3147,-0.3616,-0.3907,-0.3043,-0.2691,-0.2608,-0.1913,-0.1309,0.0,0.0,0.0,0.0,0.0,0.0,0.0,0.0,0.0,0.1008,0.0,0.2063,0.2815,0.3265,0.3515,0.4016,0.4066,0.4016,0.3915,0.4266,0.3665,0.2914,0.3115,0.2914,0.2864,0.2764,0.2665,0.2564,0.2364,0.2414,0.2464,0.2413,0.2063,0.126,0.126,0.0706,0.0,0.0,0.0,0.0,0.0,0.0,0.0,0.0,0.0,0.0,0.0,0.0,0.0,0.0,0.0,0.0,0.0,0.0,0.0,0.0,0.0,0.0,0.0,0.0,0.0,0.0,-0.0448,-0.0728,-0.1232,-0.1902,-0.2292,-0.2517,-0.2683,-0.2962,-0.246,-0.1902,-0.246,-0.3129,-0.4411,-0.5639,-0.6035,-0.6497,-0.723,-0.7852,-0.8042,-0.8421,-0.8657,-0.8951,-0.8985,-0.9341,-0.9697,-0.9697,-0.9697,-0.9819,-0.9819,-0.9819,-0.9819,-0.9819,-0.9819,-0.9819,-0.9819,-0.9819,-0.9819,-0.9822,-0.9822,-1.0001,-0.9879,-0.9819,-0.9819,-0.237,-0.1299,-0.1254,-0.1842,-0.2587,-0.1671,-0.1309,-0.1246,-0.0503,0.0,0.0,0.0,0.0252,0.0454,0.0,0.0,0.0,0.0,0.0,0.2314,0.2715,0.3417,0.4168,0.4718,0.492,0.5018,0.5218,0.5368,0.547,0.5268,0.527,0.527,0.5118,0.4868,0.3865,0.4016,0.4016,0.4016,0.4016,0.4034,0.3942,0.3901,0.3772,0.2813,0.2772,0.2464,0.1902,0.0,0.0,0.0,0.0,0.0,0.0,0.0,0.133,0.1338,0.1286,0.128,0.1211,0.0,0.0,0.0,0.0,0.0,0.0,0.0,0.0,0.0,0.0,0.0,0.0,0.0,0.0,0.0,0.0,-0.084,-0.1008,-0.1176,-0.1287,-0.1399,0.0,0.0,0.0,0.0,-0.3074,-0.4369,-0.5187,-0.5527,-0.5816,-0.6319,-0.6642,-0.7012,-0.7472,-0.7851,-0.8221,-0.8346,-0.859,-0.8897,-0.9022,-0.9697,-0.9819,-0.9636,-0.9636,-0.9819,-0.9819,-0.9819,-0.9758,-0.9697,-0.9758,-0.9819,-0.9825,-0.9778,-0.9819,-0.9819,-0.9819,-0.1165,-0.009,0.0,0.0,0.0,0.0,0.0,0.0,0.0,0.0,0.0,0.0,0.0958,0.1762,0.1962,0.2414,0.3165,0.3414,0.3715,0.3867,0.3967,0.477,0.5525,0.6077,0.6379,0.7584,0.7431,0.7179,0.7531,0.7229,0.7381,0.7431,0.703,0.6423,0.4266,0.4066,0.4066,0.4116,0.4318,0.4519,0.4663,0.4787,0.4729,0.4396,0.4358,0.409,0.3619,0.3514,0.344,0.349,0.3559,0.3599,0.3658,0.3728,0.3792,0.3854,0.3968,0.4075,0.4069,0.1597,0.0,0.0,0.0,0.0,0.0,0.0,0.0,0.0,0.0,0.0,0.0,0.0,0.0,0.0,0.0,0.0,0.0,0.0,0.0,0.0,0.0,0.0,0.0,0.0,0.0,-0.3089,-0.4142,-0.455,-0.4595,-0.4798,-0.5101,-0.593,-0.6417,-0.6409,-0.6754,-0.7118,-0.7423,-0.7853,-0.8039,-0.8346,-0.8653,-0.8532,-0.8775,-0.939,-0.8961,-0.8221,-0.8836,-0.9576,-0.8918,-0.8319,-0.9551,-0.9798,-0.9775,-0.9863,-0.9917,-0.0359,0.0,0.0,0.0,0.0,0.0,0.0,0.0,0.0849,0.131,0.1561,0.2163,0.2814,0.3264,0.3364,0.3667,0.4016,0.4066,0.4216,0.5272,0.5322,0.6176,0.693,0.7232,0.7537,0.7839,0.7988,0.7988,0.7885,0.7988,0.7988,0.7988,0.7939,0.7534,0.6877,0.6675,0.6675,0.6695,0.6802,0.6932,0.6876,0.684,0.6589,0.5893,0.585,0.5534,0.49,0.4904,0.4889,0.4845,0.4912,0.4841,0.479,0.4804,0.4693,0.4637,0.4582,0.447,0.4413,0.3279,0.2558,0.1955,0.1455,0.1064,0.0,0.0,0.0,0.0,0.0,0.0,0.0,0.0,0.0,0.0,0.0,0.0,0.0,0.0,0.0,0.0,0.0,0.0,0.0,0.0,0.0,0.0,0.0,0.0,-0.2968,-0.3273,-0.3654,-0.4694,-0.5277,-0.5136,-0.5223,-0.5466,-0.5647,-0.5955,-0.5955,-0.6016,-0.6385,-0.7121,-0.6938,-0.706,-0.6752,-0.6569,-0.7079,-0.7408,-0.6744,-0.6692,-0.7973,-0.9045,-0.91,-0.9545,-1.0151,0.0,0.0,0.0449,0.0676,0.0592,0.0235,0.0193,0.0841,0.2052,0.2715,0.2916,0.3615,0.4268,0.4518,0.4718,0.5168,0.5318,0.542,0.5622,0.6681,0.6681,0.7185,0.7686,0.7988,0.7889,0.7988,0.7988,0.7988,0.7988,0.7988,0.7988,0.7988,0.7988,0.7885,0.7786,0.7786,0.7786,0.7772,0.7803,0.8029,0.8111,0.821,0.8052,0.7559,0.7251,0.698,0.6324,0.6004,0.5964,0.5963,0.5941,0.5962,0.5959,0.5975,0.5975,0.6031,0.6031,0.6086,0.6139,0.6139,0.5353,0.4075,0.3408,0.2572,0.1791,0.0,0.0,0.0,0.1456,0.0,0.0,0.084,0.0,0.0,0.0,0.0,0.0,0.0,0.0,0.0,0.0,0.0,0.0,0.0,0.0,0.0,0.0,0.0,0.0,0.0,0.0,0.0,0.0,0.0,0.0,-0.3629,-0.3873,-0.4059,-0.4246,-0.4375,-0.5039,-0.5837,-0.5286,-0.4858,-0.523,-0.5425,-0.5206,-0.5102,-0.5079,-0.5562,-0.6554,-0.7501,-0.8166,-0.8606,-0.902,0.0,0.0269,0.1389,0.1901,0.1847,0.099,0.1118,0.2159,0.3465,0.4066,0.4117,0.4266,0.507,0.5927,0.6079,0.6628,0.7332,0.7584,0.7633,0.7736,0.7637,0.7939,0.7939,0.7988,0.7988,0.7988,0.7988,0.7988,0.7988,0.7988,0.7988,0.7988,0.7988,0.7988,0.7988,0.7988,0.8005,0.8123,0.8238,0.8374,0.8492,0.8635,0.8645,0.8433,0.841,0.8414,0.8139,0.8204,0.8329,0.8465,0.8589,0.865,0.8771,0.8881,0.8881,0.8768,0.8602,0.8432,0.8322,0.8211,0.7817,0.6362,0.5472,0.486,0.4136,0.3632,0.3465,0.3576,0.3465,0.2962,0.2572,0.2013,0.0,0.0,0.0,0.0,0.0,0.0,0.0,0.0,0.0,0.0,0.0,0.0,0.0,0.0,0.0,0.0,0.0,0.0,0.0,0.0,0.0,0.0,0.0,0.0,-0.2155,-0.2401,-0.3154,-0.3529,-0.4134,0.0,-0.3551,-0.337,-0.4209,-0.4278,-0.3451,-0.3612,-0.409,0.0,0.0,-0.5619,-0.6168,-0.626,-0.6435,0.1791,0.2592,0.2948,0.3092,0.3214,0.3835,0.3878,0.3656,0.482,0.5425,0.5472,0.6426,0.6877,0.7434,0.7434,0.7686,0.7839,0.7988,0.7939,0.7988,0.7988,0.7988,0.8038,0.8137,0.8038,0.8137,0.8137,0.8333,0.8137,0.8088,0.8134,0.7988,0.8184,0.8137,0.8038,0.7992,0.8116,0.8211,0.8391,0.8472,0.8625,0.8774,0.8879,0.8923,0.8937,0.8937,0.8937,0.8937,0.8937,0.8937,0.8937,0.8937,0.8937,0.8937,0.8881,0.8881,0.8881,0.8881,0.8937,0.8937,0.8657,0.8263,0.7648,0.6255,0.5306,0.4749,0.4804,0.5083,0.5083,0.4524,0.3631,0.2905,0.2069,0.1175,0.0,0.0,0.0,0.0,0.0,0.0,0.0,0.0,0.0,0.0,0.0,0.0,0.0,0.0,0.0,0.0,0.0,0.0,0.0,0.0,0.0,0.0,0.0,-0.0864,0.0,0.0,0.0,0.0,0.0,0.0,0.0,0.0,-0.1214,0.0,0.0,0.0,0.0,0.0,-0.4119,-0.4132,-0.441,0.2903,0.3614,0.4148,0.4616,0.522,0.6081,0.6085,0.5748,0.641,0.6781,0.6883,0.7587,0.7988,0.7939,0.7939,0.7939,0.7988,0.7988,0.7988,0.7988,0.8134,0.8478,0.8577,0.8871,0.9262,0.9262,0.9509,0.985,0.941,0.9406,0.9505,0.8871,0.8775,0.8432,0.8204,0.8062,0.8228,0.833,0.8501,0.8567,0.8713,0.8804,0.8858,0.8937,0.8937,0.8937,0.8937,0.8937,0.8937,0.8937,0.8937,0.8937,0.8937,0.8937,0.8937,0.8937,0.8937,0.8937,0.8937,0.8937,0.8937,0.8937,0.8881,0.7986,0.7204,0.6702,0.6647,0.6647,0.6366,0.5864,0.4747,0.3631,0.246,0.1399,0.0,0.0,0.0,0.0,0.0,0.0,0.0,0.0,0.0,0.0,0.0,0.0,0.0,0.0,0.0,0.0,0.0,0.0,0.0,0.0,0.0,0.0,0.0,0.0,0.0,0.0,0.0,0.0,0.0,0.0,0.0,0.0,0.0,0.0,0.0,0.0,0.0,0.0,0.0,-0.2195,-0.2469,0.3837,0.4059,0.509,0.6185,0.7285,0.7469,0.7513,0.7807,0.7746,0.7978,0.7935,0.7988,0.7988,0.7988,0.7988,0.8187,0.8382,0.8478,0.8772,0.8333,0.8871,0.9361,0.9948,1.0194,1.0485,1.1409,1.1653,1.1068,1.1604,1.1361,1.0725,1.0145,1.0233,0.9908,0.9245,0.8874,0.8962,0.9055,0.88,0.8611,0.8743,0.8862,0.8937,0.8937,0.8937,0.8937,0.8937,0.8937,0.8937,0.8937,0.8937,0.8937,0.8937,0.8937,0.8937,0.8937,0.8937,0.8937,0.8937,0.8937,0.8937,0.8937,0.8881,0.866,0.8211,0.7986,0.7875,0.7875,0.7651,0.7202,0.6197,0.5137,0.4021,0.2572,0.0,0.0,0.0,0.0,0.0,0.0,0.0,0.0,0.0,0.0,0.0,0.0,0.0,0.0,0.0,0.0,0.0,0.0,0.0,0.0,0.0,0.0,0.0,0.0,0.0,0.0,0.0,0.0,0.0,0.0,0.0,0.0,0.0,0.0,0.0,0.0,0.0,0.0,0.0,0.0,0.0,0.5487,0.6293,0.6558,0.7004,0.7366,0.7453,0.7555,0.7658,0.7804,0.8028,0.7971,0.8035,0.8137,0.8333,0.8333,0.8676,0.941,0.9554,1.0141,1.048,1.0676,1.0725,1.1361,1.1507,1.175,1.175,1.1896,1.2237,1.2339,1.2145,1.1912,1.1536,1.1638,1.1451,1.092,1.0489,0.9943,0.9928,0.9087,0.8774,0.8852,0.8893,0.8937,0.8937,0.8937,0.8937,0.8937,0.8937,0.8937,0.8937,0.8937,0.8937,0.8937,0.8937,0.8937,0.8937,0.8937,0.8937,0.8937,0.8937,0.8937,0.8937,0.8937,0.8937,0.8881,0.8937,0.8937,0.8937,0.8712,0.8263,0.7537,0.6478,0.5361,0.3744,0.2181,0.1176,0.0,0.0,0.0,0.0,0.0,0.0,0.0,0.0,0.0,0.0,0.0,0.0,0.0,0.0,0.0,0.0,0.0,0.0,0.0,0.0,0.0,0.0,0.0,0.0,0.0,0.0,0.0,0.0,0.0,0.0,0.0,0.0,0.0,0.0,0.0,0.0,0.0,0.0,0.0,0.6517,0.7095,0.7095,0.7187,0.7351,0.7848,0.8163,0.8375,0.9047,0.9411,0.9433,0.917,0.9164,0.9608,0.9752,0.9895,1.0774,1.0823,1.1116,1.1653,1.2188,1.2285,1.2479,1.2818,1.3397,1.3397,1.359,1.374,1.348,1.3788,1.3883,1.3161,1.3248,1.3188,1.2653,1.1549,1.0975,1.076,0.9619,0.9122,0.9047,0.8992,0.8937,0.8937,0.8937,0.8937,0.8937,0.8937,0.8937,0.8937,0.8937,0.8937,0.8937,0.8937,0.8937,0.8937,0.8937,0.8937,0.8937,0.8937,0.8937,0.8937,0.8937,0.8937,0.8937,0.8937,0.8937,0.8937,0.8937,0.8488,0.7485,0.6422,0.5586,0.4247,0.2739,0.1454,0.0,0.0,0.0,0.0,0.0,0.0,0.0,0.0,0.0,0.0,0.0,0.0,0.0,0.0,0.0,0.0,0.0,0.0,0.0,0.0,0.0,0.0,0.0,0.0,0.0,0.0,0.0,0.0,0.0,0.0,0.0,0.0,0.0,0.0,0.0,0.0,0.0,0.0,0.0,0.7095,0.7095,0.7095,0.7228,0.7492,0.8412,0.9023,0.9494,1.0671,1.1384,1.1539,1.0868,1.1205,1.1604,1.1896,1.2037,1.2086,1.2183,1.2285,1.2624,1.2727,1.3397,1.3932,1.422,1.4657,1.5099,1.5289,1.5449,1.546,1.5561,1.5243,1.4794,1.4669,1.4542,1.3277,1.2316,1.1891,1.1724,1.0941,0.9889,0.9482,0.9047,0.8937,0.8937,0.8937,0.8937,0.8937,0.8937,0.8937,0.8937,0.8937,0.8937,0.8937,0.8937,0.8937,0.8937,0.8937,0.8937,0.8937,0.8937,0.8937,0.8937,0.8937,0.8937,0.8937,0.8937,0.8937,0.8937,0.8937,0.8602,0.7595,0.6982,0.6089,0.5027,0.3519,0.2014,0.0,0.0,0.0,0.0,0.0,0.0,0.0,0.0,0.0,0.0,0.0,0.0,0.0,0.0,0.0,0.0,0.0,0.0,0.0,0.0,0.0,0.0,0.0,0.0,0.0,0.0,0.0,0.0,0.0,0.0,0.0,0.0,0.0,0.0,0.0,0.0,0.0,0.0,0.0,0.7095,0.7095,0.7095,0.7665,0.854,0.8846,0.9432,1.0343,1.1066,1.1865,1.2749,1.3087,1.2909,1.1945,1.1896,1.2377,1.3494,1.3536,1.4316,1.4956,1.4519,1.4997,1.5242,1.5092,1.554,1.573,1.5852,1.5965,1.6092,1.6226,1.6357,1.6171,1.6501,1.6439,1.622,1.5112,1.4019,1.3564,1.2817,1.1919,1.1378,1.0621,0.9099,0.8937,0.8937,0.8937,0.8937,0.8937,0.8937,0.8937,0.8937,0.8937,0.8937,0.8937,0.8937,0.8937,0.8937,0.8937,0.8937,0.8937,0.8937,0.8937,0.8937,0.8937,0.8937,0.8937,0.8937,0.8937,0.8937,0.8937,0.8266,0.8266,0.7651,0.6255,0.4803,0.3413,0.0,0.0,0.0,0.0,0.0,0.0,0.0,0.0,0.0,0.0,0.0,0.0,0.0,0.0,0.0,0.0,0.0,0.0,0.0,0.0,0.0,0.0,0.0,0.0,0.0,0.0,0.0,0.0,0.0,0.0,0.0,0.1545,0.0,0.0,0.0,0.0,0.3422,0.3757,0.3222]},{"header":{"parameterUnit":"m.s-1","parameterCategory":1,"la1":31.0,"la2":29.5877,"lo1":-88.7671,"lo2":-86.6584,"dy":0.0162,"dx":0.0185,"nx":115,"ny":88,"refTime":"2024-08-02T06:00:00:Z","depth":0,"parameterNumber":3,"parameterNumberName":"V-component_of_WINDS"},"data":[0.0,0.0,0.0,0.0,0.0,0.0,0.0,0.0,0.0,0.0,0.0,0.0,0.0,0.0,0.0,0.0,0.0,0.0,0.0,0.0,0.0,0.0,0.0,0.0,0.0,0.0,0.0,0.0,0.0,0.0,0.0,0.0,0.0,0.0,0.0,0.0,0.0,0.0,0.0,0.0,0.0,0.0,0.0,0.0,0.0,0.0,0.0,0.0,0.0,0.0,0.0,0.0,0.0,0.0,0.0,0.0,0.0,0.0,0.0,0.0,0.0,0.0,0.0,0.0,0.0,0.0,0.0,0.0,0.0,0.0,0.0,0.0,0.0,0.0,0.0,0.0,0.0,0.0,0.0,0.0,0.0,0.0,0.0,0.0,0.0,0.0,0.0,0.0,0.0,0.0,0.0,0.0,0.0,0.0,0.0,0.0,0.0,0.0,0.0,0.0,0.0,0.0,0.0,0.0,0.0,0.0,0.0,0.0,0.0,0.0,0.0,0.0,0.0,0.0,0.0,0.0,0.0,0.0,0.0,0.0,0.0,0.0,0.0,0.0,0.0,0.0,0.0,0.0,0.0,0.0,0.0,0.0,0.0,0.0,0.0,0.0,0.0,0.0,0.0,0.0,0.0,0.0,0.0,0.0,0.0,0.0,0.0,0.0,0.0,0.0,0.0,0.0,0.0,0.0,0.0,0.0,0.0,0.0,0.0,0.0,0.0,0.0,0.0,0.0,0.0,0.0,0.0,0.0,0.0,0.0,0.0,0.0,0.0,0.0,0.0,0.0,0.0,0.0,0.0,0.0,0.0,0.0,0.0,0.0,0.0,0.0,0.0,0.0,0.0,0.0,0.0,0.0,0.0,0.0,0.0,0.0,0.0,0.0,0.0,0.0,0.0,0.0,0.0,0.0,0.0,0.0,0.0,0.0,0.0,0.0,0.0,0.0,0.0,0.0,0.0,0.0,0.0,0.0,0.0,0.0,0.0,0.0,0.0,0.0,0.0,0.0,0.0,0.0,0.0,0.0,0.0,0.0,0.0,0.0,0.0,0.0,0.0,0.0,0.0,0.0,0.0,0.0,0.0,0.0,0.0,0.0,0.0,0.0,0.0,0.0,0.0,0.0,0.0,0.0,0.0,0.0,0.0,0.0,0.0,0.0,0.0,0.0,0.0,0.0,0.0,0.0,0.0,0.0,0.0,0.0,0.0,0.0,0.0,0.0,0.0,0.0,0.0,0.0,0.0,0.0,0.0,0.0,0.0,0.0,0.0,0.0,0.0,0.0,0.0,0.0,0.0,0.0,0.0,0.0,0.0,0.0,0.0,0.0,0.0,0.0,0.0,0.0,0.0,0.0,0.0,0.0,0.0,0.0,0.0,0.0,0.0,0.0,0.0,0.0,0.0,0.0,0.0,0.0,0.0,0.0,0.0,0.0,0.0,0.0,0.0,0.0,0.0,0.0,0.0,0.0,0.0,0.0,0.0,0.0,0.0,0.0,0.0,0.0,0.0,0.0,0.0,0.0,0.0,0.0,0.0,0.0,0.0,0.0,0.0,0.0,0.0,0.0,0.0,0.0,0.0,0.0,0.0,0.0,0.0,0.0,0.0,0.0,0.0,0.0,0.0,0.0,0.0,0.0,0.0,0.0,0.0,0.0,0.0,0.0,0.0,0.0,0.0,0.0,0.0,0.0,0.0,0.0,0.0,0.0,0.0,0.0,0.0,0.0,0.0,0.0,0.0,0.0,0.0,0.0,0.0,0.0,0.0,0.0,0.0,0.0,0.0,0.0,0.0,0.0,0.0,0.0,0.0,0.0,0.0,0.0,0.0,0.0,0.0,0.0,0.0,0.0,0.0,0.0,0.0,0.0,0.0,0.0,0.0,0.0,0.0,0.0,0.0,0.0,0.0,0.0,0.0,0.0,0.0,0.0,0.0,0.0,0.0,0.0,0.0,0.0,0.0,0.0,0.0,0.0,0.0,0.0,0.0,0.0,0.0,0.0,0.0,0.0,0.0,0.0,0.0,0.0,0.0,0.0,0.0,0.0,0.0,0.0,0.0,0.0,0.0,0.0,0.0,0.0,0.0,0.0,0.0,0.0,0.0,0.0,0.0,0.0,0.0,0.0,0.0,0.0,0.0,0.0,0.0,0.0,0.0,0.0,0.0,0.0,0.0,0.0,0.0,0.0,0.0,0.0,0.0,0.0,0.0,0.0,0.0,0.0,0.0,0.0,0.0,0.0,0.0,0.0,0.0,0.0,0.0,0.0,0.0,0.0,0.0,0.0,0.0,0.0,0.0,0.0,0.0,0.0,0.0,0.0,0.0,0.0,0.0,0.0,0.0,0.0,0.0,0.0,0.0,0.0,0.0,0.0,0.0,0.0,0.0,0.0,0.0,0.0,0.0,0.0,0.0,0.0,0.0,0.0,0.0,0.0,0.0,0.0,0.0,0.0,0.0,0.0,0.0,0.0,0.0,0.0,0.0,0.0,0.0,0.0,0.0,0.0,0.0,0.0,0.0,0.0,0.0,0.0,0.0,0.0,0.0,0.0,0.0,0.0,0.0,0.0,0.0,0.0,0.0,0.0,0.0,0.0,0.0,0.0,0.0,0.0,0.0,0.0,0.0,0.0,0.0,0.0,0.0,0.0,0.0,0.0,0.0,0.0,0.0,0.0,0.0,0.0,0.0,0.0,0.0,0.0,0.0,0.0,0.0,0.0,0.0,0.0,0.0,0.0,0.0,0.0,0.0,0.0,0.0,0.0,0.0,0.0,0.0,0.0,0.0,0.0,0.0,0.0,0.0,0.0,0.0,0.0,0.0,0.0,0.0,0.0,0.0,0.0,0.0,0.0,0.0,0.0,0.0,0.0,0.0,0.0,0.0,0.0,0.0,0.0,0.0,0.0,0.0,0.0,0.0,0.0,0.0,0.0,0.0,0.0,0.0,0.0,0.0,0.0,0.0,0.0,0.0,0.0,0.0,0.0,0.0,0.0,0.0,0.0,0.0,0.0,0.0,0.0,0.0,0.0,0.0,0.0,0.0,0.0,0.0,0.0,0.0,0.0,0.0,0.0,0.0,0.0,0.0,0.0,0.0,0.0,0.0,0.0,0.0,0.0,0.0,0.0,0.0,0.0,0.0,0.0,0.0,0.0,0.0,0.0,0.0,0.0,0.0,0.0,0.0,0.0,0.0,0.0,0.0,0.0,0.0,0.0,0.0,0.0,0.0,0.0,0.0,0.0,0.0,0.0,0.0,0.0,0.0,0.0,0.0,0.0,0.0,0.0,0.0,0.0,0.0,0.0,0.0,0.0,0.0,0.0,0.0,0.0,0.0,0.0,0.0,0.0,0.0,0.0,0.0,0.0,0.0,0.0,0.0,0.0,0.0,0.0,0.0,0.0,0.0,0.0,0.0,0.0,0.0,0.0,0.0,0.0,0.0,0.0,0.0,0.0,0.0,0.0,0.0,0.0,0.0,0.0,0.0,0.0,0.0,0.0,0.0,0.0,0.0,0.0,0.0,0.0,0.0,0.0,0.0,0.0,0.0,0.0,0.0,0.0,0.0,0.0,0.0,0.0,0.0,0.0,0.0,0.0,0.0,0.0,0.0,0.0,0.0,0.0,0.0,0.0,0.0,0.0,0.0,0.0,0.0,0.0,0.0,0.0,0.0,0.0,0.0,0.0,0.0,0.0,0.0,0.0,0.0,0.0,0.0,0.0,0.0,0.0,0.0,0.0,0.0,0.0,0.0,0.0,0.0,0.0,0.0,0.0,0.0,0.0,0.0,0.0,0.0,0.0,0.0,0.0,0.0,0.0,0.0,0.0,0.0,0.0,0.0,0.0,0.0,0.0,0.0,0.0,0.0,0.0,0.0,0.0,0.0,0.0,0.0,0.0,0.0,0.0,0.0,0.0,0.0,0.0,0.0,0.0,0.0,0.0,0.0,0.0,0.0,0.0,0.0,0.0,0.0,0.0,0.0,0.0,0.0,0.0,0.0,0.0,0.0,0.0,0.0,0.0,0.0,0.0,0.0,0.0,0.0,0.0,0.0,0.0,0.0,0.0,0.0,0.0,0.0,0.0,0.0,0.0,0.0,0.0,0.0,0.0,0.0,0.0,0.0,0.0,0.0,0.0,0.0,0.0,0.0,0.0,0.0,0.0,0.0,0.0,0.0,0.0,0.0,0.0,0.0,0.0,0.0,0.0,0.0,0.0,0.0,0.0,0.0,0.0,0.0,0.0,0.0,0.0,0.0,0.0,0.0,0.0,0.0,0.0,0.0,0.0,3.0846,0.0,0.0,0.0,0.0,0.0,0.0,0.0,0.0,0.0,0.0,0.0,0.0,0.0,0.0,0.0,0.0,0.0,0.0,0.0,0.0,0.0,0.0,0.0,0.0,0.0,0.0,0.0,0.0,0.0,0.0,0.0,0.0,0.0,0.0,0.0,0.0,0.0,0.0,0.0,0.0,0.0,0.0,0.0,0.0,0.0,0.0,0.0,0.0,0.0,0.0,0.0,0.0,0.0,0.0,0.0,0.0,0.0,0.0,0.0,0.0,0.0,0.0,0.0,0.0,0.0,0.0,0.0,0.0,0.0,0.0,0.0,0.0,0.0,0.0,0.0,0.0,0.0,0.0,0.0,0.0,0.0,0.0,0.0,0.0,0.0,0.0,0.0,0.0,0.0,0.0,0.0,0.0,0.0,0.0,0.0,0.0,0.0,0.0,0.0,0.0,0.0,0.0,0.0,0.0,0.0,0.0,0.0,0.0,0.0,0.0,3.2911,3.4043,3.2883,3.1902,3.1277,0.0,0.0,0.0,0.0,0.0,0.0,0.0,0.0,0.0,0.0,0.0,0.0,0.0,0.0,0.0,0.0,0.0,0.0,0.0,0.0,0.0,0.0,0.0,0.0,0.0,0.0,0.0,0.0,0.0,0.0,0.0,0.0,0.0,0.0,0.0,0.0,0.0,0.0,0.0,0.0,0.0,0.0,0.0,0.0,0.0,0.0,0.0,0.0,0.0,0.0,0.0,0.0,0.0,0.0,0.0,0.0,0.0,0.0,0.0,0.0,0.0,0.0,0.0,0.0,0.0,0.0,0.0,0.0,0.0,0.0,0.0,0.0,0.0,0.0,0.0,0.0,0.0,0.0,0.0,0.0,0.0,0.0,0.0,0.0,0.0,0.0,0.0,0.0,0.0,0.0,0.0,0.0,0.0,0.0,0.0,0.0,0.0,0.0,0.0,0.0,0.0,0.0,0.0,0.0,0.0,0.0,0.0,0.0,0.0,0.0,0.0,0.0,3.3019,3.1849,3.1006,0.0,0.0,0.0,0.0,0.0,0.0,0.0,0.0,0.0,0.0,0.0,0.0,0.0,0.0,0.0,0.0,0.0,0.0,0.0,0.0,0.0,0.0,0.0,0.0,0.0,0.0,0.0,0.0,0.0,0.0,0.0,0.0,0.0,0.0,0.0,0.0,0.0,0.0,0.0,0.0,0.0,0.0,0.0,0.0,0.0,0.0,0.0,0.0,0.0,0.0,0.0,0.0,0.0,0.0,0.0,0.0,0.0,0.0,0.0,0.0,0.0,0.0,0.0,0.0,0.0,0.0,0.0,0.0,0.0,0.0,0.0,0.0,0.0,0.0,0.0,0.0,0.0,0.0,0.0,0.0,0.0,0.0,0.0,0.0,0.0,0.0,0.0,0.0,0.0,0.0,0.0,0.0,0.0,0.0,0.0,0.0,0.0,0.0,0.0,0.0,0.0,0.0,0.0,0.0,0.0,0.0,0.0,0.0,0.0,0.0,3.1997,3.362,3.2842,0.0,2.9373,0.0,0.0,0.0,0.0,0.0,0.0,0.0,0.0,0.0,0.0,0.0,0.0,0.0,0.0,0.0,0.0,0.0,0.0,0.0,0.0,0.0,0.0,0.0,0.0,0.0,0.0,0.0,0.0,0.0,0.0,0.0,0.0,0.0,0.0,0.0,0.0,0.0,0.0,0.0,0.0,0.0,0.0,0.0,0.0,0.0,0.0,0.0,0.0,0.0,0.0,0.0,0.0,0.0,0.0,0.0,0.0,0.0,0.0,0.0,0.0,0.0,0.0,0.0,0.0,0.0,0.0,0.0,0.0,0.0,0.0,0.0,0.0,0.0,0.0,0.0,0.0,0.0,0.0,0.0,0.0,0.0,0.0,0.0,0.0,0.0,0.0,0.0,0.0,0.0,0.0,0.0,0.0,0.0,0.0,0.0,0.0,0.0,0.0,0.0,0.0,0.0,0.0,0.0,0.0,0.0,0.0,0.0,0.0,0.0,0.0,3.1399,3.2963,3.1253,2.9708,0.0,0.0,0.0,0.0,0.0,0.0,0.0,0.0,0.0,0.0,0.0,0.0,0.0,0.0,0.0,0.0,0.0,0.0,0.0,0.0,0.0,0.0,0.0,0.0,0.0,0.0,0.0,0.0,0.0,0.0,0.0,0.0,0.0,0.0,0.0,0.0,0.0,0.0,0.0,0.0,0.0,0.0,0.0,0.0,0.0,0.0,0.0,0.0,0.0,0.0,0.0,0.0,0.0,0.0,0.0,0.0,0.0,0.0,0.0,0.0,0.0,0.0,0.0,0.0,0.0,0.0,0.0,0.0,0.0,0.0,0.0,0.0,0.0,0.0,0.0,0.0,0.0,0.0,0.0,0.0,0.0,0.0,0.0,0.0,0.0,0.0,0.0,0.0,0.0,0.0,0.0,0.0,0.0,0.0,0.0,0.0,0.0,0.0,0.0,0.0,0.0,0.0,0.0,0.0,0.0,0.0,0.0,0.0,0.0,0.0,3.0055,3.0487,3.1587,3.0175,2.8698,2.7378,0.0,0.0,0.0,0.0,0.0,0.0,0.0,0.0,0.0,0.0,0.0,0.0,0.0,0.0,0.0,0.0,0.0,0.0,0.0,0.0,0.0,0.0,0.0,0.0,0.0,0.0,0.0,0.0,0.0,0.0,0.0,0.0,0.0,0.0,0.0,0.0,0.0,0.0,0.0,0.0,0.0,0.0,0.0,0.0,0.0,0.0,0.0,0.0,0.0,0.0,0.0,0.0,0.0,0.0,0.0,0.0,0.0,0.0,0.0,0.0,0.0,0.0,0.0,0.0,0.0,0.0,0.0,0.0,0.0,0.0,0.0,0.0,0.0,0.0,0.0,0.0,0.0,0.0,0.0,0.0,0.0,0.0,0.0,0.0,0.0,0.0,0.0,0.0,0.0,0.0,0.0,0.0,0.0,0.0,0.0,0.0,0.0,0.0,0.0,0.0,0.0,0.0,0.0,0.0,0.0,0.0,0.0,0.0,3.0494,2.9479,2.9124,2.9658,3.0058,2.8849,0.0,0.0,0.0,0.0,0.0,0.0,0.0,0.0,0.0,0.0,0.0,0.0,0.0,0.0,0.0,0.0,0.0,0.0,0.0,0.0,0.0,0.0,0.0,0.0,0.0,0.0,0.0,0.0,0.0,0.0,0.0,0.0,0.0,0.0,0.0,0.0,0.0,0.0,0.0,0.0,0.0,0.0,0.0,0.0,0.0,0.0,0.0,0.0,0.0,0.0,0.0,0.0,0.0,0.0,0.0,0.0,0.0,0.0,0.0,0.0,0.0,0.0,0.0,0.0,0.0,0.0,0.0,0.0,0.0,0.0,0.0,0.0,0.0,0.0,0.0,0.0,0.0,0.0,0.0,0.0,0.0,0.0,0.0,0.0,0.0,0.0,0.0,0.0,0.0,0.0,0.0,0.0,0.0,0.0,0.0,0.0,0.0,0.0,0.0,0.0,0.0,0.0,0.0,0.0,0.0,0.0,0.0,0.0,0.0,2.8461,2.8532,2.8591,2.8636,2.7347,2.5991,0.0,0.0,0.0,0.0,0.0,0.0,0.0,0.0,0.0,0.0,0.0,0.0,0.0,0.0,0.0,0.0,0.0,0.0,0.0,0.0,0.0,0.0,0.0,0.0,0.0,0.0,0.0,0.0,0.0,0.0,0.0,0.0,0.0,0.0,0.0,0.0,0.0,0.0,0.0,0.0,0.0,0.0,0.0,0.0,0.0,0.0,0.0,0.0,0.0,0.0,0.0,0.0,0.0,0.0,0.0,0.0,0.0,0.0,0.0,0.0,0.0,0.0,0.0,0.0,0.0,0.0,0.0,0.0,0.0,0.0,0.0,0.0,0.0,0.0,0.0,0.0,0.0,0.0,0.0,0.0,0.0,0.0,0.0,0.0,0.0,0.0,0.0,0.0,0.0,0.0,0.0,0.0,0.0,0.0,0.0,0.0,0.0,0.0,0.0,0.0,0.0,0.0,0.0,0.0,0.0,0.0,0.0,0.0,0.0,2.6933,0.0,2.7697,2.7204,2.5582,2.4188,0.0,0.0,0.0,0.0,0.0,0.0,0.0,0.0,0.0,0.0,0.0,0.0,0.0,0.0,0.0,0.0,0.0,0.0,0.0,0.0,0.0,0.0,0.0,0.0,0.0,0.0,0.0,0.0,0.0,0.0,0.0,0.0,0.0,0.0,0.0,0.0,0.0,0.0,0.0,0.0,0.0,0.0,0.0,0.0,0.0,0.0,0.0,0.0,0.0,0.0,0.0,0.0,0.0,0.0,0.0,0.0,0.0,0.0,0.0,0.0,0.0,0.0,0.0,0.0,0.0,0.0,0.0,0.0,0.0,0.0,0.0,0.0,0.0,0.0,0.0,0.0,0.0,0.0,0.0,0.0,0.0,0.0,0.0,0.0,0.0,0.0,0.0,0.0,0.0,0.0,0.0,0.0,0.0,0.0,0.0,0.0,0.0,0.0,0.0,0.0,0.0,0.0,0.0,0.0,0.0,0.0,0.0,0.0,2.493,2.61,2.6643,2.6396,2.5263,2.5144,2.371,0.0,0.0,0.0,0.0,0.0,0.0,0.0,0.0,0.0,0.0,0.0,0.0,0.0,0.0,0.0,0.0,0.0,0.0,0.0,0.0,0.0,0.0,0.0,0.0,0.0,0.0,0.0,0.0,0.0,0.0,0.0,0.0,0.0,0.0,0.0,0.0,0.0,0.0,0.0,0.0,0.0,0.0,0.0,0.0,0.0,0.0,0.0,0.0,0.0,0.0,0.0,0.0,0.0,0.0,0.0,0.0,0.0,0.0,0.0,0.0,0.0,0.0,0.0,0.0,0.0,0.0,0.0,0.0,0.0,0.0,0.0,0.0,0.0,0.0,0.0,0.0,0.0,0.0,0.0,0.0,0.0,0.0,0.0,0.0,0.0,0.0,0.0,0.0,0.0,0.0,0.0,0.0,0.0,0.0,0.0,0.0,0.0,0.0,0.0,0.0,0.0,0.0,0.0,0.0,0.0,0.0,0.0,0.0,0.0,2.3748,2.5336,2.5852,2.5056,2.3675,2.2504,0.0,0.0,0.0,0.0,0.0,0.0,0.0,0.0,0.0,0.0,0.0,0.0,0.0,0.0,0.0,0.0,0.0,0.0,0.0,0.0,0.0,0.0,0.0,0.0,0.0,0.0,0.0,0.0,0.0,0.0,0.0,0.0,0.0,0.0,0.0,0.0,0.0,0.0,0.0,0.0,0.0,0.0,0.0,0.0,0.0,0.0,0.0,0.0,0.0,0.0,0.0,0.0,0.0,0.0,0.0,0.0,0.0,0.0,0.0,0.0,0.0,0.0,0.0,0.0,0.0,0.0,0.0,0.0,0.0,0.0,0.0,0.0,0.0,0.0,0.0,0.0,0.0,0.0,0.0,0.0,0.0,0.0,0.0,0.0,0.0,0.0,0.0,0.0,0.0,0.0,0.0,0.0,0.0,0.0,0.0,0.0,0.0,0.0,0.0,0.0,0.0,0.0,0.0,0.0,0.0,0.0,0.0,0.0,0.0,2.2718,2.4682,2.5265,2.4154,2.2701,2.1748,2.1361,0.0,0.0,0.0,0.0,0.0,0.0,0.0,0.0,0.0,0.0,0.0,0.0,0.0,0.0,0.0,0.0,0.0,0.0,0.0,0.0,0.0,0.0,0.0,0.0,0.0,0.0,0.0,0.0,0.0,0.0,0.0,0.0,0.0,0.0,0.0,0.0,0.0,0.0,0.0,0.0,0.0,0.0,0.0,0.0,0.0,0.0,0.0,0.0,0.0,0.0,0.0,0.0,0.0,0.0,0.0,0.0,0.0,0.0,0.0,0.0,0.0,0.0,0.0,0.0,0.0,0.0,0.0,0.0,0.0,0.0,0.0,0.0,0.0,0.0,0.0,0.0,0.0,0.0,0.0,0.0,0.0,0.0,0.0,0.0,0.0,0.0,0.0,0.0,0.0,0.0,0.0,0.0,0.0,0.0,0.0,0.0,0.0,0.0,0.0,0.0,0.0,0.0,0.0,0.0,0.0,0.0,0.0,0.0,2.2482,2.4422,2.4599,2.2858,2.214,2.1419,0.0,0.0,0.0,0.0,0.0,0.0,0.0,0.0,0.0,0.0,0.0,0.0,0.0,0.0,0.0,0.0,0.0,0.0,0.0,0.0,0.0,0.0,0.0,0.0,0.0,0.0,0.0,0.0,0.0,0.0,0.0,0.0,0.0,0.0,0.0,0.0,0.0,0.0,0.0,0.0,0.0,0.0,0.0,0.0,0.0,0.0,0.0,0.0,0.0,0.0,0.0,0.0,0.0,0.0,0.0,0.0,0.0,0.0,0.0,0.0,0.0,0.0,0.0,0.0,0.0,0.0,0.0,0.0,0.0,0.0,0.0,0.0,0.0,0.0,0.0,0.0,0.0,0.0,0.0,0.0,0.0,0.0,0.0,0.0,0.0,0.0,0.0,0.0,0.0,0.0,0.0,0.0,0.0,0.0,0.0,0.0,0.0,0.0,0.0,0.0,0.0,0.0,0.0,0.0,0.0,0.0,0.0,0.0,0.0,2.2142,2.3258,2.3698,2.3274,2.1852,2.0979,0.0,0.0,0.0,0.0,0.0,0.0,0.0,0.0,0.0,0.0,0.0,0.0,0.0,0.0,0.0,0.0,0.0,0.0,0.0,0.0,0.0,0.0,0.0,0.0,0.0,0.0,0.0,0.0,0.0,0.0,0.0,0.0,0.0,0.0,0.0,0.0,0.0,0.0,0.0,0.0,0.0,0.0,0.0,0.0,0.0,0.0,0.0,0.0,0.0,0.0,0.0,0.0,0.0,0.0,0.0,0.0,0.0,0.0,0.0,0.0,0.0,0.0,0.0,0.0,0.0,0.0,0.0,0.0,0.0,0.0,0.0,0.0,0.0,0.0,0.0,0.0,0.0,0.0,0.0,0.0,0.0,0.0,0.0,0.0,0.0,0.0,0.0,0.0,0.0,0.0,0.0,0.0,0.0,0.0,0.0,0.0,0.0,0.0,0.0,0.0,0.0,0.0,0.0,0.0,0.0,0.0,0.0,0.0,2.2682,2.2497,2.2928,2.2931,2.2563,2.1339,2.0585,0.0,0.0,0.0,0.0,0.0,0.0,0.0,0.0,0.0,0.0,0.0,0.0,0.0,0.0,0.0,0.0,0.0,0.0,0.0,0.0,0.0,0.0,0.0,0.0,0.0,0.0,0.0,0.0,0.0,0.0,0.0,0.0,0.0,0.0,0.0,0.0,0.0,0.0,0.0,0.0,0.0,0.0,0.0,0.0,0.0,0.0,0.0,0.0,0.0,0.0,0.0,0.0,0.0,0.0,0.0,0.0,0.0,0.0,0.0,0.0,0.0,0.0,0.0,0.0,0.0,0.0,0.0,0.0,0.0,0.0,0.0,0.0,0.0,0.0,0.0,0.0,0.0,0.0,0.0,0.0,0.0,0.0,0.0,0.0,0.0,0.0,0.0,0.0,0.0,0.0,0.0,0.0,0.0,0.0,0.0,0.0,0.0,0.0,0.0,0.0,0.0,0.0,0.0,0.0,0.0,0.0,0.0,0.0,2.2911,2.3047,2.2851,2.2193,2.1182,2.0732,2.0155,0.0,0.0,0.0,0.0,0.0,0.0,0.0,0.0,0.0,0.0,0.0,0.0,0.0,0.0,0.0,0.0,0.0,0.0,0.0,0.0,0.0,0.0,0.0,0.0,0.0,0.0,0.0,0.0,0.0,0.0,0.0,0.0,0.0,0.0,0.0,0.0,0.0,0.0,0.0,0.0,0.0,0.0,0.0,0.0,0.0,0.0,0.0,0.0,0.0,0.0,0.0,0.0,0.0,0.0,0.0,0.0,0.0,0.0,0.0,0.0,0.0,0.0,0.0,0.0,0.0,0.0,0.0,0.0,0.0,0.0,0.0,0.0,0.0,0.0,0.0,0.0,0.0,0.0,0.0,0.0,0.0,0.0,0.0,0.0,0.0,0.0,0.0,0.0,0.0,0.0,0.0,0.0,0.0,0.0,0.0,0.0,0.0,0.0,0.0,0.0,0.0,0.0,0.0,0.0,0.0,0.0,0.0,0.0,2.2014,2.1649,2.161,2.1293,2.0752,2.0283,1.9805,0.0,0.0,0.0,0.0,0.0,0.0,0.0,0.0,0.0,0.0,0.0,0.0,0.0,0.0,0.0,0.0,0.0,0.0,0.0,0.0,0.0,0.0,0.0,0.0,0.0,0.0,0.0,0.0,0.0,0.0,0.0,0.0,0.0,0.0,0.0,0.0,0.0,0.0,0.0,0.0,0.0,0.0,0.0,0.0,0.0,0.0,0.0,0.0,2.4612,0.0,0.0,0.0,0.0,0.0,0.0,0.0,0.0,0.0,0.0,0.0,0.0,0.0,0.0,0.0,0.0,0.0,0.0,0.0,0.0,0.0,0.0,0.0,0.0,0.0,0.0,0.0,0.0,0.0,0.0,0.0,0.0,0.0,0.0,0.0,0.0,0.0,0.0,0.0,0.0,0.0,0.0,0.0,0.0,0.0,0.0,0.0,0.0,0.0,0.0,0.0,0.0,0.0,0.0,0.0,0.0,0.0,0.0,0.0,2.1189,2.1543,2.1159,2.0801,2.0605,2.0342,1.9922,0.0,0.0,0.0,0.0,0.0,0.0,0.0,0.0,0.0,0.0,0.0,0.0,0.0,0.0,0.0,0.0,0.0,0.0,0.0,0.0,0.0,0.0,0.0,0.0,0.0,0.0,0.0,0.0,0.0,0.0,0.0,0.0,0.0,0.0,0.0,0.0,0.0,0.0,0.0,0.0,0.0,0.0,0.0,0.0,0.0,0.0,0.0,0.0,0.0,0.0,0.0,0.0,0.0,0.0,0.0,0.0,0.0,0.0,0.0,0.0,0.0,0.0,0.0,0.0,0.0,0.0,0.0,0.0,0.0,0.0,0.0,0.0,0.0,0.0,0.0,0.0,0.0,0.0,0.0,0.0,0.0,0.0,0.0,0.0,0.0,0.0,0.0,0.0,0.0,0.0,0.0,0.0,0.0,0.0,0.0,0.0,0.0,0.0,0.0,0.0,0.0,0.0,0.0,0.0,0.0,0.0,0.0,2.073,2.0664,2.1714,2.1001,2.0615,2.0615,2.0615,2.0204,1.9326,0.0,0.0,0.0,0.0,0.0,0.0,0.0,0.0,0.0,0.0,0.0,0.0,0.0,0.0,0.0,0.0,0.0,0.0,0.0,0.0,0.0,0.0,0.0,0.0,0.0,0.0,0.0,0.0,0.0,0.0,0.0,0.0,0.0,0.0,0.0,0.0,0.0,0.0,2.5187,2.6152,0.0,0.0,0.0,0.0,0.0,0.0,0.0,0.0,2.6549,0.0,0.0,0.0,0.0,0.0,0.0,0.0,0.0,0.0,0.0,0.0,0.0,0.0,0.0,0.0,0.0,0.0,0.0,0.0,0.0,0.0,0.0,0.0,0.0,0.0,0.0,0.0,0.0,0.0,0.0,0.0,0.0,0.0,0.0,0.0,0.0,0.0,0.0,0.0,0.0,0.0,0.0,0.0,0.0,0.0,0.0,0.0,0.0,0.0,0.0,0.0,0.0,0.0,0.0,0.0,0.0,2.1509,2.1288,2.1029,2.0847,2.0683,2.0615,2.0615,2.0615,2.0204,1.9336,0.0,0.0,0.0,0.0,0.0,0.0,0.0,0.0,0.0,0.0,0.0,0.0,0.0,0.0,0.0,0.0,0.0,0.0,0.0,0.0,0.0,0.0,0.0,0.0,0.0,0.0,0.0,0.0,0.0,0.0,0.0,0.0,0.0,0.0,0.0,0.0,0.0,0.0,0.0,2.9624,3.0309,0.0,0.0,0.0,0.0,0.0,0.0,0.0,0.0,2.6587,0.0,0.0,0.0,0.0,0.0,0.0,0.0,0.0,0.0,0.0,0.0,0.0,0.0,0.0,0.0,0.0,0.0,0.0,0.0,0.0,0.0,0.0,0.0,0.0,0.0,0.0,0.0,0.0,0.0,0.0,0.0,0.0,0.0,0.0,0.0,0.0,0.0,0.0,0.0,0.0,0.0,0.0,0.0,0.0,0.0,0.0,0.0,0.0,0.0,0.0,0.0,0.0,0.0,0.0,0.0,2.0353,2.125,2.134,2.0634,2.0615,2.0498,2.0244,2.0225,1.9627,0.0,0.0,0.0,0.0,0.0,0.0,0.0,0.0,0.0,0.0,0.0,0.0,0.0,0.0,0.0,0.0,0.0,0.0,0.0,0.0,0.0,0.0,0.0,0.0,0.0,0.0,0.0,0.0,0.0,0.0,0.0,0.0,0.0,0.0,0.0,0.0,0.0,0.0,0.0,0.0,2.9927,3.1045,3.1929,0.0,0.0,0.0,0.0,0.0,0.0,2.7278,2.7102,0.0,0.0,0.0,0.0,0.0,0.0,0.0,0.0,0.0,0.0,0.0,0.0,0.0,0.0,0.0,0.0,0.0,0.0,0.0,0.0,0.0,0.0,0.0,0.0,0.0,0.0,0.0,0.0,0.0,0.0,0.0,0.0,0.0,0.0,0.0,0.0,0.0,0.0,0.0,0.0,0.0,0.0,0.0,0.0,0.0,0.0,0.0,0.0,0.0,0.0,0.0,0.0,0.0,0.0,0.0,1.9367,2.0892,2.1343,2.0634,2.0615,2.0352,1.9932,1.9912,1.9132,0.0,0.0,0.0,0.0,0.0,0.0,0.0,0.0,0.0,0.0,0.0,0.0,0.0,0.0,0.0,0.0,0.0,0.0,0.0,0.0,0.0,0.0,0.0,0.0,0.0,0.0,0.0,0.0,0.0,0.0,0.0,0.0,0.0,0.0,0.0,0.0,0.0,0.0,0.0,0.0,0.0,3.1702,3.2935,3.2509,0.0,0.0,0.0,0.0,2.8222,2.7996,0.0,0.0,0.0,0.0,0.0,0.0,0.0,0.0,0.0,0.0,0.0,0.0,0.0,0.0,0.0,0.0,0.0,0.0,0.0,0.0,0.0,0.0,0.0,0.0,0.0,0.0,0.0,0.0,0.0,0.0,0.0,0.0,0.0,0.0,0.0,0.0,0.0,0.0,0.0,0.0,0.0,0.0,0.0,0.0,0.0,0.0,0.0,0.0,0.0,0.0,0.0,0.0,0.0,0.0,0.0,0.0,1.9328,2.0262,2.0702,2.0595,2.0615,2.039,1.9894,1.9912,1.9438,0.0,0.0,0.0,0.0,0.0,0.0,0.0,0.0,0.0,0.0,0.0,0.0,0.0,0.0,0.0,0.0,0.0,0.0,0.0,0.0,0.0,0.0,0.0,0.0,0.0,0.0,0.0,0.0,0.0,0.0,0.0,0.0,0.0,0.0,0.0,0.0,0.0,0.0,0.0,0.0,0.0,3.4076,3.2982,3.2764,3.2332,0.0,0.0,2.934,2.8875,2.9202,0.0,0.0,0.0,0.0,0.0,0.0,0.0,0.0,0.0,0.0,0.0,0.0,0.0,0.0,0.0,0.0,0.0,0.0,0.0,0.0,0.0,0.0,0.0,0.0,0.0,0.0,0.0,0.0,0.0,0.0,0.0,0.0,0.0,0.0,0.0,0.0,0.0,0.0,0.0,0.0,0.0,0.0,0.0,0.0,0.0,0.0,0.0,0.0,0.0,0.0,0.0,0.0,0.0,0.0,0.0,1.9241,1.9374,2.0936,2.1413,2.0653,2.0615,2.0282,1.957,1.9561,1.8771,0.0,0.0,0.0,0.0,0.0,0.0,0.0,0.0,0.0,0.0,0.0,0.0,0.0,0.0,0.0,0.0,0.0,0.0,0.0,0.0,0.0,0.0,0.0,0.0,0.0,0.0,0.0,0.0,0.0,0.0,0.0,0.0,0.0,0.0,0.0,0.0,0.0,0.0,0.0,0.0,0.0,0.0,3.3678,3.3512,0.0,0.0,0.0,2.934,2.9402,0.0,0.0,0.0,0.0,0.0,0.0,0.0,0.0,0.0,0.0,0.0,0.0,0.0,0.0,0.0,0.0,0.0,0.0,0.0,0.0,0.0,0.0,0.0,0.0,0.0,0.0,0.0,0.0,0.0,0.0,0.0,0.0,0.0,0.0,0.0,0.0,0.0,0.0,0.0,0.0,0.0,0.0,0.0,0.0,0.0,0.0,0.0,0.0,0.0,0.0,0.0,0.0,0.0,0.0,0.0,0.0,0.0,1.9357,2.1403,2.19,2.0653,2.0615,2.0253,1.9473,1.9346,0.0,0.0,0.0,0.0,0.0,0.0,0.0,0.0,0.0,0.0,0.0,0.0,0.0,0.0,0.0,0.0,0.0,0.0,0.0,0.0,0.0,0.0,0.0,0.0,0.0,0.0,0.0,2.1694,0.0,0.0,0.0,0.0,0.0,0.0,0.0,0.0,0.0,0.0,0.0,0.0,0.0,0.0,3.324,3.4682,3.4478,3.4056,0.0,0.0,2.9654,2.9955,2.9289,2.8586,0.0,0.0,0.0,0.0,0.0,0.0,0.0,0.0,0.0,0.0,0.0,0.0,0.0,0.0,0.0,0.0,0.0,0.0,0.0,0.0,0.0,0.0,0.0,0.0,0.0,0.0,0.0,0.0,0.0,0.0,0.0,0.0,0.0,0.0,0.0,0.0,0.0,0.0,0.0,0.0,0.0,0.0,0.0,0.0,0.0,0.0,0.0,0.0,0.0,0.0,0.0,0.0,0.0,0.0,1.934,1.9364,2.1047,2.1542,2.0644,2.0615,2.038,1.9883,1.9492,1.9043,0.0,0.0,0.0,0.0,0.0,0.0,0.0,0.0,0.0,0.0,0.0,0.0,0.0,0.0,0.0,0.0,0.0,0.0,0.0,0.0,0.0,0.0,0.0,0.0,0.0,0.0,0.0,0.0,0.0,0.0,0.0,0.0,0.0,0.0,0.0,0.0,0.0,0.0,0.0,0.0,0.0,3.4826,3.5942,3.5615,3.5283,0.0,3.2988,3.1072,3.0633,3.0495,2.9905,2.836,0.0,0.0,0.0,0.0,0.0,0.0,0.0,0.0,0.0,0.0,0.0,0.0,0.0,0.0,0.0,0.0,0.0,0.0,0.0,0.0,0.0,0.0,0.0,0.0,0.0,0.0,0.0,0.0,0.0,0.0,0.0,0.0,0.0,0.0,0.0,0.0,0.0,0.0,0.0,0.0,0.0,0.0,0.0,0.0,0.0,0.0,0.0,0.0,0.0,0.0,0.0,0.0,0.0,1.9594,2.0226,2.1909,2.2634,2.2398,2.2366,2.22,2.1767,2.1225,2.0663,0.0,0.0,0.0,0.0,0.0,0.0,0.0,0.0,0.0,0.0,0.0,0.0,0.0,0.0,0.0,0.0,0.0,0.0,0.0,0.0,0.0,0.0,0.0,0.0,0.0,0.0,0.0,0.0,2.4363,2.3978,2.3701,0.0,0.0,0.0,0.0,0.0,0.0,0.0,0.0,0.0,0.0,3.5457,3.5136,3.5481,0.0,0.0,3.287,3.1601,3.114,3.0545,2.9767,2.8775,2.8323,0.0,0.0,0.0,0.0,0.0,0.0,0.0,0.0,0.0,0.0,0.0,0.0,0.0,0.0,0.0,0.0,0.0,0.0,0.0,0.0,0.0,0.0,0.0,0.0,0.0,0.0,0.0,0.0,0.0,0.0,0.0,0.0,0.0,0.0,0.0,0.0,0.0,0.0,0.0,0.0,0.0,0.0,0.0,0.0,0.0,0.0,0.0,0.0,0.0,0.0,0.0,0.0,1.9884,2.0804,2.2286,2.3131,2.3279,2.312,2.2885,2.262,2.2046,2.1498,0.0,0.0,0.0,0.0,0.0,0.0,0.0,0.0,0.0,0.0,0.0,0.0,0.0,0.0,0.0,0.0,0.0,0.0,0.0,0.0,0.0,0.0,0.0,0.0,0.0,0.0,0.0,0.0,2.5643,2.4866,2.4098,0.0,0.0,0.0,0.0,0.0,0.0,0.0,0.0,0.0,0.0,3.623,3.5662,3.5736,3.5377,3.4083,3.258,3.15,3.1206,3.0784,3.0318,2.9718,0.0,0.0,0.0,0.0,0.0,0.0,0.0,0.0,0.0,0.0,0.0,0.0,0.0,0.0,0.0,0.0,0.0,0.0,0.0,0.0,0.0,0.0,0.0,0.0,0.0,0.0,0.0,1.8076,0.0,0.0,2.059,0.0,0.0,0.0,0.0,0.0,0.0,0.0,0.0,0.0,0.0,0.0,0.0,0.0,0.0,0.0,0.0,0.0,0.0,0.0,0.0,0.0,0.0,2.0214,2.0794,2.2001,2.2643,2.2775,2.2234,2.2045,2.2012,2.1498,2.1208,2.1207,0.0,0.0,0.0,0.0,0.0,0.0,0.0,0.0,0.0,0.0,0.0,0.0,0.0,0.0,0.0,0.0,0.0,0.0,0.0,0.0,0.0,0.0,0.0,0.0,0.0,0.0,2.6436,2.5641,2.4858,0.0,0.0,0.0,0.0,0.0,0.0,0.0,0.0,0.0,0.0,3.662,3.7332,3.8121,3.665,3.526,3.454,3.2331,3.0712,3.0763,3.1513,3.1967,0.0,0.0,0.0,0.0,0.0,0.0,0.0,0.0,0.0,0.0,0.0,0.0,0.0,0.0,0.0,0.0,0.0,0.0,0.0,0.0,0.0,0.0,0.0,0.0,0.0,0.0,0.0,2.0255,2.0288,0.0,0.0,0.0,0.0,0.0,0.0,0.0,0.0,0.0,0.0,0.0,2.7343,2.8263,0.0,0.0,0.0,0.0,0.0,0.0,0.0,0.0,0.0,0.0,0.0,0.0,2.0515,2.1717,2.2891,2.4043,2.5172,2.4665,2.4374,2.4386,2.389,2.297,2.1707,0.0,0.0,0.0,0.0,0.0,0.0,0.0,0.0,0.0,0.0,0.0,0.0,0.0,0.0,0.0,0.0,0.0,0.0,0.0,0.0,0.0,0.0,0.0,0.0,0.0,2.8656,0.0,0.0,0.0,0.0,0.0,0.0,0.0,0.0,0.0,0.0,0.0,3.5599,3.6591,3.8194,3.9068,3.8491,3.7815,3.7085,0.0,0.0,0.0,0.0,0.0,0.0,0.0,0.0,0.0,0.0,0.0,0.0,0.0,0.0,3.6046,3.3157,3.2055,3.1626,3.1783,0.0,0.0,0.0,0.0,0.0,0.0,0.0,0.0,0.0,0.0,0.0,0.0,0.0,0.0,2.1801,0.0,2.2091,0.0,0.0,0.0,0.0,0.0,0.0,0.0,0.0,2.8512,2.9153,2.8812,2.9697,2.9653,0.0,2.7632,2.6965,0.0,0.0,0.0,0.0,0.0,0.0,0.0,0.0,2.1181,2.2338,2.325,2.4418,2.582,2.5335,2.5134,2.531,2.4808,2.3828,2.2377,2.2286,2.2427,0.0,0.0,0.0,0.0,0.0,0.0,0.0,0.0,0.0,0.0,0.0,0.0,0.0,0.0,0.0,0.0,0.0,0.0,0.0,0.0,0.0,0.0,0.0,3.0393,0.0,0.0,0.0,0.0,0.0,0.0,0.0,0.0,0.0,3.2574,3.5194,3.7499,3.8428,3.9402,3.9738,3.8871,0.0,0.0,0.0,0.0,0.0,0.0,0.0,3.4609,3.5326,3.5022,3.4841,3.5335,3.6755,3.766,3.7098,0.0,0.0,3.569,3.469,3.439,3.4566,3.4792,3.4989,3.5164,3.55,3.5712,0.0,0.0,0.0,0.0,0.0,0.0,0.0,0.0,2.24,2.2742,0.0,2.3494,0.0,0.0,0.0,0.0,0.0,2.7253,0.0,0.0,3.0719,3.1467,3.1452,3.1452,3.1481,3.1394,2.9785,2.9122,2.9187,2.5582,0.0,0.0,0.0,0.0,0.0,0.0,2.217,2.267,2.2954,2.3659,2.4775,2.4343,2.4305,2.4865,2.4368,2.3802,2.3261,2.314,2.3496,2.4305,2.3542,0.0,0.0,0.0,0.0,0.0,0.0,0.0,0.0,0.0,0.0,0.0,0.0,0.0,0.0,0.0,0.0,0.0,0.0,0.0,0.0,3.1668,0.0,0.0,0.0,0.0,0.0,0.0,0.0,0.0,0.0,0.0,3.6517,3.6896,3.8185,4.0904,0.0,0.0,0.0,0.0,3.6852,3.628,3.5368,3.4841,3.4803,3.6026,3.6966,3.7069,0.0,0.0,3.7331,3.8354,3.886,3.7397,3.8384,3.9388,3.9292,3.7967,3.7199,3.7621,3.735,3.7263,3.7754,3.8392,3.8922,2.6106,0.0,0.0,0.0,0.0,2.4189,2.4732,2.538,2.5707,2.5697,2.5546,2.5617,0.0,0.0,0.0,0.0,0.0,0.0,2.8637,2.9435,3.0279,3.0925,3.1496,3.1496,3.1496,3.1438,3.0434,2.9986,2.9951,2.8269,2.6114,2.3667,0.0,0.0,0.0,0.0,2.217,2.2699,2.2973,2.3835,2.5347,2.4858,2.5154,2.6277,2.5322,2.4981,2.543,2.4983,2.507,2.5749,2.5097,0.0,0.0,0.0,0.0,0.0,0.0,0.0,0.0,0.0,0.0,0.0,0.0,0.0,0.0,0.0,0.0,0.0,0.0,0.0,3.2068,3.3142,3.3707,0.0,0.0,0.0,0.0,0.0,0.0,0.0,0.0,0.0,3.9914,4.0448,4.0524,0.0,0.0,4.0196,3.8514,3.851,3.8639,3.8483,3.82,0.0,3.8025,3.7463,3.7397,3.8516,3.9094,3.9241,3.8816,3.9094,3.9241,3.8765,3.9094,3.9388,3.9373,3.9043,3.8773,3.8899,3.8817,3.8758,3.8921,3.9228,3.9328,2.8363,2.6968,2.596,2.5692,2.5941,2.6227,2.6675,2.7237,2.7875,2.811,2.8052,2.7931,2.7782,2.7633,2.713,0.0,0.0,0.0,2.9455,3.025,3.0617,3.1029,3.1467,3.1496,3.1496,3.1482,3.0688,3.0464,3.0777,2.9919,2.8377,2.6186,0.0,0.0,2.2829,2.2754,2.287,2.3194,2.3362,2.4036,2.5259,2.5714,2.642,2.7319,2.6445,2.609,2.6395,2.6288,2.6441,2.6835,2.668,2.6666,0.0,0.0,0.0,0.0,0.0,0.0,0.0,0.0,0.0,0.0,0.0,2.9979,2.8931,0.0,0.0,0.0,3.172,3.3177,3.4888,3.6098,0.0,0.0,0.0,0.0,0.0,0.0,0.0,4.0742,4.2053,4.2817,4.2911,4.3159,4.2582,4.0509,4.07,4.0494,3.9044,0.0,3.9388,3.9388,3.9388,3.9388,3.9388,3.8567,3.8267,3.9241,3.9388,3.9388,3.9388,3.9388,3.9388,3.9388,3.9388,3.9388,3.9388,3.9388,3.9388,3.9388,3.9388,3.9388,3.9388,3.9388,3.9388,2.996,2.9948,2.8859,2.8405,2.8345,2.8272,2.8345,2.8515,2.9291,2.998,3.0459,3.0193,3.0044,2.9956,2.892,0.0,2.9595,3.0144,3.0777,3.1496,3.1496,3.1496,3.1496,3.1496,3.1496,3.1482,3.0733,3.0777,3.1438,3.0748,3.0116,2.9522,2.7975,2.6849,2.6162,2.488,2.426,2.4272,2.4272,2.4538,2.5096,2.6857,2.7978,2.8371,2.7658,2.7077,2.6692,2.7197,2.7569,2.767,2.8133,2.8233,2.7811,0.0,0.0,0.0,0.0,0.0,0.0,0.0,0.0,0.0,0.0,0.0,0.0,0.0,0.0,0.0,3.5824,0.0,3.8859,3.9836,0.0,0.0,0.0,4.1539,4.1792,4.3457,4.4307,4.3638,0.0,0.0,4.5385,4.5027,4.4209,4.2665,4.131,4.0405,4.0226,3.9674,3.9388,3.9388,3.9388,3.9388,3.9388,3.9307,3.9292,3.9373,3.9388,3.9388,3.9388,3.9388,3.9388,3.9388,3.9388,3.9388,3.9388,3.9388,3.9388,3.9388,3.9388,3.9388,3.9388,3.9388,3.9388,3.1304,3.1911,3.1663,3.1122,3.0429,2.9694,3.0195,3.1483,3.1026,3.1056,3.1425,3.0855,3.0471,3.0256,3.0556,3.0822,3.1011,3.1145,3.1307,3.1496,3.1496,3.1496,3.1496,3.1496,3.1496,3.1467,3.1307,3.1307,3.1482,3.1322,3.1145,3.0953,2.9978,2.864,2.7044,2.6658,2.6544,2.65,2.653,2.6799,2.7393,2.8239,2.9045,2.9752,2.8667,2.8282,2.8807,2.8009,2.8055,2.9035,2.8741,2.9187,3.0548,2.9006,0.0,0.0,0.0,0.0,0.0,0.0,0.0,0.0,0.0,3.3039,3.0873,0.0,3.3903,0.0,3.777,3.9458,3.9807,4.1029,0.0,0.0,4.3146,4.3683,4.6052,4.5553,4.5404,4.6454,4.7013,4.6994,4.6057,4.5473,4.4504,4.2947,4.1819,4.0494,3.8754,3.901,3.9388,3.9388,3.9388,3.9388,3.9388,3.9388,3.9388,3.9388,3.9388,3.9388,3.9388,3.9388,3.9388,3.9388,3.9388,3.9388,3.9388,3.9388,3.9388,3.9388,3.9388,3.9388,3.9388,3.9388,3.9388,3.1742,3.2607,3.2593,3.2536,3.2393,3.1452,3.1623,3.2558,3.25,3.2555,3.276,3.2554,3.185,3.0881,3.1604,3.178,3.1511,3.1496,3.1496,3.1496,3.1496,3.1496,3.1496,3.1496,3.1496,3.1496,3.1496,3.1496,3.1496,3.1496,3.1496,3.1482,3.1058,3.0279,2.9188,2.8197,2.7506,2.7125,2.752,2.8186,2.9106,2.9428,2.9981,3.0792,2.9826,2.9496,2.9998,2.961,2.9455,2.9619,2.9796,3.0302,3.1078,3.0094,2.9945,0.0,0.0,0.0,0.0,0.0,0.0,0.0,0.0,0.0,0.0,0.0,3.6463,3.7677,4.0391,4.2222,4.2517,4.3913,4.5263,4.6383,4.6063,4.6489,4.8216,4.7498,4.7242,4.8094,4.8225,4.7899,4.7046,4.6239,4.5055,4.3197,4.2124,4.0812,3.9003,3.9068,3.9388,3.9388,3.9388,3.9388,3.9388,3.9388,3.9388,3.9388,3.9388,3.9388,3.9388,3.9388,3.9388,3.9388,3.9388,3.9388,3.9388,3.9388,3.9388,3.9388,3.9388,3.9388,3.9388,3.9388,3.9388,3.2092,3.2961,3.2961,3.3463,3.4143,3.331,3.2961,3.3031,3.3705,3.3975,3.3955,3.4243,3.3305,3.157,3.2183,3.2123,3.1511,3.1496,3.1496,3.1496,3.1496,3.1496,3.1496,3.1496,3.1496,3.1496,3.1496,3.1496,3.1496,3.1496,3.1524,3.164,3.1553,3.1496,3.1393,2.9588,2.8246,2.7512,2.8246,2.9213,3.0405,3.045,3.0822,3.1566,3.0992,3.0672,3.0782,3.1327,3.1118,3.0107,3.1096,3.1566,3.1121,3.1054,3.1584,0.0,3.2901,0.0,0.0,0.0,0.0,0.0,0.0,0.0,0.0,3.9133,4.0,4.0469,4.3269,4.5252,4.5841,4.72,4.8308,4.8917,4.9018,4.9018,4.9001,4.9018,4.8968,4.8866,4.8866,4.8595,4.7777,4.6878,4.5423,4.3589,4.2374,4.1283,4.0036,3.9538,3.9388,3.9388,3.9388,3.9388,3.9388,3.9388,3.9343,3.9284,3.9328,3.9343,3.926,3.9313,3.9388,3.9388,3.9388,3.9388,3.9388,3.9388,3.9388,3.9388,3.9388,3.9388,3.9388,3.9388,3.9388,3.4041,3.492,3.4953,3.5052,3.5213,3.5034,3.4953,3.492,3.4279,3.3831,3.3594,3.3677,3.2901,3.16,3.2183,3.2138,3.1511,3.1496,3.1496,3.1496,3.1496,3.1496,3.1496,3.1496,3.1496,3.1496,3.1496,3.1496,3.1496,3.1496,3.1796,3.2355,3.1796,3.1436,3.1346,0.0,0.0,0.0,3.0778,3.0998,3.1248,3.1278,3.1638,3.2339,3.1747,0.0,3.2149,3.181,3.1731,3.2019,3.2278,0.0,0.0,0.0,0.0,0.0,0.0,0.0,0.0,0.0,0.0,0.0,3.8903,3.8885,3.8261,4.1446,4.3344,4.2924,4.552,4.7335,4.7454,4.8267,4.8849,4.8984,4.9001,4.9018,4.9018,4.9001,4.8781,4.8159,4.8091,4.7834,4.7031,4.571,4.469,4.4096,4.2864,4.1914,4.1509,4.0289,3.946,3.9388,3.9553,3.946,3.9388,3.9394,3.9227,3.8826,3.9044,3.914,3.8736,3.905,3.9379,3.9328,3.9388,3.9343,3.9358,3.9388,3.9298,3.9373,3.9358,3.9388,3.9388,3.9388,3.9388,3.4576,0.0,3.5489,3.531,0.0,3.4981,3.4801,3.45,3.4304,3.397,3.3514,3.3499,3.2946,3.2004,3.2333,3.2123,3.1496,3.1496,3.1496,3.1496,3.1496,3.1496,3.1496,3.1496,3.1697,3.2035,3.202,3.2216,3.2544,3.2528,3.2718,3.3093,3.2718,3.2497,3.242,3.2513,3.2351,3.2035,3.2367,3.2528,3.2528,3.2528,3.2718,3.3077,0.0,0.0,0.0,0.0,0.0,0.0,0.0,0.0,0.0,0.0,0.0,3.6692,3.6547,3.6671,3.7373,3.81,3.9003,4.0034,4.1174,4.1475,4.0749,4.3771,4.5537,4.5185,4.7134,4.846,4.846,4.8781,4.9018,4.8984,4.868,4.8477,4.8426,4.8139,4.7784,4.7462,4.7361,4.709,4.6363,4.5631,4.4717,4.399,4.3184,4.2489,4.2029,4.1262,4.0706,4.0672,4.0672,4.0377,3.9722,3.9558,3.9137,3.8277,3.8197,3.8257,3.7973,3.8197,3.8422,3.8422,3.8437,3.8387,3.8387,3.8437,3.8387,3.8402,3.8387,3.8387,3.8467,3.896,3.9388,3.4758,3.5504,3.5489,3.51,3.4503,3.4503,3.4069,3.3365,0.0,0.0,0.0,3.3499,3.314,3.2497,3.2632,3.2243,3.1511,3.1496,3.1496,3.1496,3.1496,3.1553,3.1697,3.1697,3.2064,3.2761,3.2788,3.3066,3.3582,3.3608,3.3675,3.3761,3.3675,3.3608,3.3608,3.371,3.3521,3.2986,3.3349,3.3608,3.3608,3.3608,3.3659,3.3761,3.3786,3.3836,3.3962,3.4479,3.433,3.3429,3.3853,3.4506,3.5236,3.5402,3.6501,3.877,3.9148,3.9445,4.0079,4.0764,4.1322,4.1576,4.2861,4.3595,4.3623,4.5449,4.6599,4.6599,4.7834,4.8595,4.8612,4.8612,4.8612,4.8595,4.8071,4.7716,4.7669,4.7192,4.6802,4.6633,4.6599,4.6329,4.5618,4.5454,4.5079,4.3892,4.3578,4.3306,4.2614,4.2157,4.182,4.182,4.1596,4.1246,4.0285,3.9774,3.9168,3.8022,3.7855,3.7752,3.7526,3.7639,3.7748,3.7816,3.7696,3.7928,3.7879,3.8041,3.7815,3.7815,3.7815,3.7815,3.7921,3.8693,3.932,3.5359,3.5489,3.5489,3.5115,3.4503,3.4503,3.3784,3.2677,3.2751,3.3051,3.3499,3.3499,3.3125,3.2542,3.311,3.2691,3.1525,3.1496,3.1496,0.0,3.1496,3.1853,3.2437,3.2422,3.2788,3.3417,3.3469,3.3521,3.3582,3.3608,3.3887,3.4333,3.3887,3.3608,3.3633,3.4186,3.4406,3.4309,3.3836,3.3608,3.3608,3.3608,3.3887,3.4431,3.4471,3.4736,3.5293,3.5402,3.57,3.6192,3.6312,3.6696,3.7415,3.8012,3.8593,3.8988,3.9605,3.9994,4.0113,4.0798,4.1762,4.2997,4.391,4.4445,4.4479,4.5297,4.5855,4.5889,4.6684,4.709,4.709,4.7158,4.7208,4.7141,4.7039,4.6955,4.6938,4.6802,4.6481,4.5923,4.5855,4.5585,4.497,4.4773,4.4745,4.4462,4.4214,4.4293,4.3914,4.2923,4.2093,4.1901,4.1454,4.0991,4.061,4.0165,3.9453,3.8725,3.895,3.8764,3.7728,3.8403,3.8858,3.8515,3.8746,3.9172,3.9251,3.947,3.9204,3.9125,3.9078,3.9172,3.9125,3.9409,3.9246,3.5489,3.5459,3.51,3.4562,3.3888,3.3185,3.2527,3.2004,3.2333,3.2886,3.3469,3.3499,3.3335,3.3051,3.2991,3.2629,3.2092,3.2092,3.2284,3.261,3.2652,3.2826,3.3119,3.3145,3.3495,3.4112,3.4137,3.4325,3.4657,3.4681,3.484,3.5098,3.484,3.4697,3.4704,3.4981,3.5144,3.5138,3.484,3.4664,3.4681,3.4681,3.4823,3.5138,3.5144,3.5276,3.56,3.5616,3.5977,3.6761,3.7086,3.7739,3.8865,3.957,4.0098,4.0492,4.0822,4.0868,4.0552,4.1643,4.28,4.3898,4.4975,4.5571,4.5571,4.5644,4.5686,4.572,4.6363,4.6786,4.6786,4.6786,4.6786,4.6786,4.6447,4.621,4.616,4.5805,4.5449,4.5145,4.5094,4.4987,4.4649,4.4598,4.4598,4.4564,4.4293,4.4113,4.4479,4.3213,4.231,4.262,4.2129,4.1316,4.0636,4.0206,3.9496,3.8472,3.8528,3.8414,3.7799,3.8414,3.8511,3.8271,3.8513,3.8693,3.8768,3.8706,3.8722,3.8722,3.8706,3.8706,3.8706,3.8706,3.8676,3.5489,3.5444,3.4946,3.4272,3.3427,3.2251,3.1843,3.2068,3.2892,3.3618,3.4166,3.4076,3.397,3.3954,3.3452,3.3082,3.2839,3.283,3.3077,3.3556,3.3608,3.3684,3.3827,3.3836,3.4161,3.4759,3.4823,3.5098,3.5554,3.5616,3.5616,3.56,3.5616,3.5616,3.5616,3.5616,3.5616,3.5622,3.5717,3.5717,3.56,3.5616,3.565,3.5783,3.5783,3.5832,3.5946,3.5968,3.6412,3.7346,3.7802,3.8715,4.0122,4.0697,4.1215,4.174,4.181,4.1599,4.1248,4.2579,4.3711,4.4286,4.5615,4.6389,4.6371,4.6074,4.5776,4.575,4.6158,4.6442,4.6269,4.6244,4.6278,4.6261,4.5788,4.5466,4.5399,4.4925,4.4598,4.4598,4.4598,4.4615,4.4598,4.4598,4.4598,4.4513,4.4045,4.3927,4.4096,4.3115,4.2608,4.2642,4.2405,4.1641,4.0513,4.0198,3.9638,3.8423,3.8407,3.8432,3.827,3.821,3.8238,3.829,3.8327,3.856,3.8395,3.8439,3.8516,3.8621,3.8681,3.85,3.8604,3.856,3.8557,3.5537,3.5482,3.5447,3.4659,3.353,3.2817,3.2918,3.3631,3.483,3.5816,3.6305,3.572,3.5451,3.5467,3.5367,3.4659,3.3569,3.3505,3.3572,3.3633,3.3608,3.3937,3.4496,3.452,3.4871,3.5407,3.547,3.5492,3.56,3.5616,3.5616,3.5616,3.5616,3.5622,3.5622,3.5622,3.5622,3.5622,3.6075,3.6097,3.5644,3.5616,3.581,3.6312,3.6329,3.6542,3.6962,3.7039,3.7745,3.9085,3.9267,4.0014,4.1393,4.1687,4.1743,4.1814,4.1832,4.1768,4.1813,4.3138,4.4039,4.4216,4.5558,4.6442,4.646,4.6382,4.6094,4.5745,4.5641,4.5532,4.4902,4.4914,4.5038,4.5156,4.488,4.4688,4.4834,4.4666,4.4598,4.4598,4.4626,4.4598,4.4598,4.4598,4.4598,4.4692,4.4406,4.4045,4.3639,4.2811,4.1999,4.1644,4.1339,4.1262,4.0912,4.0518,4.0026,3.9773,3.9825,3.948,3.9086,3.9262,3.9679,3.8995,3.9305,3.9627,3.9705,3.9876,3.9773,3.9575,3.9627,3.9799,3.985,3.9731,3.9647,3.6875,3.6828,3.6434,3.571,3.4865,3.4591,3.4666,3.5038,3.5943,3.6782,3.746,3.7531,3.6874,3.5726,3.571,3.5138,3.4219,3.4186,3.4423,3.4769,3.4793,3.4918,3.5184,3.5184,3.5362,3.56,3.5616,3.5616,3.5616,3.56,3.5616,3.5616,3.5616,3.5778,3.6032,3.6075,3.6228,3.6542,3.6764,3.6783,3.6583,3.6563,3.6626,3.6843,3.6882,3.6943,3.7225,3.7653,3.8396,3.9461,4.0255,4.1199,4.2289,4.2638,4.281,4.2791,4.2501,4.2342,4.236,4.3363,4.4187,4.4638,4.599,4.7006,4.7479,4.7515,4.7281,4.6705,4.6281,4.5933,4.5673,4.5346,4.5284,4.5485,4.5035,4.4852,4.5597,4.5025,4.472,4.5008,4.4814,4.4598,4.4598,4.4598,4.4776,4.4875,4.4511,4.3819,4.3403,4.2422,4.161,4.1238,4.0849,4.057,4.0527,4.035,4.013,4.0113,4.0113,3.9876,3.9782,3.9808,3.9969,3.961,3.9876,4.0087,4.002,4.0113,4.0113,4.0113,4.0113,4.0113,4.0113,4.0113,3.9901,3.7822,3.7694,3.7078,3.6511,3.6082,3.6082,3.6195,3.6491,3.7129,3.7847,3.8591,3.9046,3.8276,3.6727,3.6413,3.5898,3.5245,3.4994,3.5121,3.5577,3.5616,3.56,3.5616,3.5616,3.5616,3.5616,3.5616,3.5672,3.5827,3.5989,3.6015,3.6054,3.6054,3.6228,3.6563,3.6623,3.6803,3.7171,3.7304,3.7396,3.7396,3.7542,3.7542,3.7415,3.7396,3.7541,3.7954,3.8527,3.9297,4.0247,4.1197,4.2087,4.2867,4.3286,4.3479,4.3462,4.3142,4.292,4.292,4.3665,4.4463,4.5284,4.643,4.7424,4.8104,4.8324,4.8094,4.7677,4.7198,4.6847,4.6365,4.6014,4.5965,4.6288,4.5545,4.5494,4.6209,4.5545,4.5311,4.5622,4.5451,4.5089,4.5115,4.5169,4.5363,4.5553,4.475,4.3717,4.334,4.2326,4.1441,4.0967,4.0434,4.018,4.0113,4.0113,4.0113,4.0113,4.0113,4.0113,4.0113,4.0113,4.0113,3.9876,4.0045,4.0113,4.0113,4.0113,4.0113,4.0113,4.0113,4.0113,4.0113,4.0113,4.0113,3.7822,3.7738,3.7122,3.6929,3.6792,3.6825,3.7246,3.7932,3.8581,3.9302,3.9843,3.9961,3.9598,3.8739,3.7991,3.7354,3.6624,3.5836,3.5532,3.5616,3.5616,3.5616,3.5616,3.5616,3.5622,3.5739,3.5761,3.5941,3.6374,3.6825,3.7133,3.7078,3.7039,3.7097,3.7171,3.7171,3.719,3.7323,3.7739,3.7913,3.7983,3.8405,3.8443,3.8073,3.7895,3.8479,3.9536,3.98,4.0535,4.209,4.2237,4.2639,4.3353,4.3462,4.3479,4.3479,4.3462,4.3444,4.3519,4.4124,4.4912,4.5737,4.6434,4.7388,4.8086,4.8196,4.8176,4.8248,4.8132,4.7656,4.6715,4.6478,4.643,4.6507,4.6365,4.6312,4.6454,4.6359,4.6294,4.6359,4.624,4.6161,4.6281,4.6318,4.624,4.6216,4.5788,4.4914,4.3617,4.2715,4.1827,4.0773,4.0264,4.0096,4.0121,4.0113,4.0113,4.0113,4.0113,4.0113,4.0113,4.0113,4.0113,4.0113,4.0113,4.0113,4.0113,4.0113,4.0113,4.0113,4.0113,4.0113,4.0113,4.0113,4.0113,3.9252,3.9262,3.9023,3.8913,3.8916,3.8908,3.911,3.937,3.9581,3.9842,4.0062,4.0113,3.996,3.9656,3.843,3.7499,3.6761,3.5977,3.5616,3.5616,3.5616,3.5766,3.6097,3.6097,3.6312,3.6583,3.6626,3.6706,3.6902,3.7133,3.7209,3.7209,3.7209,3.7341,3.7596,3.7649,3.7808,3.8206,3.8806,3.9181,3.9236,3.9875,4.0115,3.9946,3.9455,3.9408,3.9863,4.0873,4.1717,4.2286,4.2782,4.3203,4.3442,4.3479,4.3479,4.3479,4.3479,4.3479,4.3516,4.3772,4.4268,4.5039,4.537,4.6177,4.7223,4.7553,4.7718,4.8158,4.8324,4.8015,4.7736,4.7281,4.7176,4.7431,4.6892,4.6756,4.7219,4.6937,4.6548,4.6864,4.671,4.6548,4.6847,4.6669,4.6594,4.6869,4.6478,4.5439,4.4243,4.3593,4.2845,4.1534,4.0868,4.0607,4.0607,4.0286,4.0113,4.0113,4.0113,4.0113,4.0113,4.0113,4.0113,4.0113,4.0113,4.0113,4.0113,4.0113,4.0113,4.0113,4.0113,4.0113,4.0113,4.0113,4.0113,4.0113,4.0113,4.0113,4.0113,4.0113,4.0113,4.0113,4.0121,4.0286,4.036,4.0392,4.0563,4.0642,4.0401,3.9095,3.8167,3.7543,3.6442,3.5871,3.5876,3.6032,3.6312,3.662,3.6643,3.6843,3.7173,3.736,3.7415,3.7451,3.7596,3.7685,3.7703,3.7918,3.8221,3.8532,3.8784,3.9132,3.9541,4.0029,4.0304,4.0377,4.0802,4.1113,4.1077,4.0818,4.0671,4.0689,4.1735,4.2451,4.2708,4.3239,4.3479,4.3496,4.3614,4.3595,4.3513,4.3479,4.3479,4.3479,4.3479,4.3846,4.4617,4.4764,4.537,4.6856,4.7094,4.748,4.8067,4.8324,4.8324,4.823,4.7917,4.7877,4.8134,4.7533,4.7345,4.8132,4.7533,4.7324,4.7533,4.7345,4.7302,4.7512,4.7281,4.7302,4.7656,4.7132,4.6132,4.4809,4.4165,4.3563,4.2143,4.1464,4.1246,4.111,4.0797,4.0286,4.0204,4.0096,4.0113,4.0113,4.0113,4.0113,4.0113,4.0113,4.0113,4.0113,4.0113,4.0113,4.0113,4.0113,4.0113,4.0113,4.0113,4.0113,4.0113,4.0113,4.0113,4.0121,4.0171,4.0196,4.0146,4.0311,4.0709,4.0903,4.0972,4.1468,4.1617,4.1425,4.0102,3.9428,3.8936,3.7414,3.6509,3.6457,3.6865,3.7097,3.7192,3.7209,3.7248,3.7395,3.7738,3.7948,3.8054,3.8534,3.8802,3.8902,3.9459,3.9749,3.99,4.0487,4.0963,4.1025,4.1127,4.1172,4.1146,4.1337,4.1461,4.1448,4.1963,4.2292,4.2314,4.2373,4.2776,4.3364,4.3528,4.3532,4.3647,4.3833,4.3846,4.3646,4.3546,4.3531,4.3565,4.358,4.3945,4.4467,4.4671,4.5295,4.6599,4.6966,4.7333,4.8122,4.8324,4.8324,4.8324,4.8248,4.8248,4.8305,4.8132,4.8172,4.8248,4.8305,4.8267,4.8229,4.8113,4.8267,4.8267,4.8132,4.8113,4.8035,4.772,4.6901,4.5529,4.4803,4.3592,4.2466,4.1931,4.1832,4.1599,4.1313,4.0774,4.0336,4.0179,4.0113,4.0113,4.0113,4.0113,4.0113,4.0113,4.0113,4.0113,4.0113,4.0113,4.0113,4.0113,4.0113,4.0113,4.0113,4.0113,4.0113,4.0113,4.0113,4.0311,4.0631,4.0655,4.0868,4.1263,4.1468,4.1512,4.1556,4.1725,4.181,4.1619,4.0754,4.0028,3.9441,3.8586,3.7819,3.7127,3.7152,3.7396,3.7632,3.7685,3.7877,3.831,3.8948,3.9268,3.941,3.9981,4.0343,4.0432,4.0595,4.0846,4.1082,4.1338,4.1533,4.1822,4.2336,4.2617,4.2674,4.3203,4.3484,4.3535,4.3765,4.3877,4.3863,4.3632,4.359,4.3849,4.4125,4.4252,4.4266,4.4346,4.4364,4.4266,4.4252,4.4252,4.4252,4.4223,4.4203,4.4246,4.4241,4.4892,4.6048,4.6324,4.693,4.805,4.8324,4.8324,4.8324,4.8324,4.8344,4.8324,4.8324,4.8324,4.8324,4.8324,4.8324,4.8324,4.8324,4.8324,4.8324,4.8324,4.8324,4.8324,4.8113,4.7522,4.6625,4.5741,4.5029,4.3994,4.333,4.2528,4.2443,4.2103,4.1486,4.1007,4.0713,4.049,4.0385,4.036,4.0303,4.0254,4.0229,4.0204,4.0196,4.0096,4.0096,4.0155,4.0189,4.0172,4.0113,4.0248,4.0451,4.0392,4.0417,4.0625,4.0897,4.1223,4.1246,4.1446,4.1832,4.2059,4.2142,4.2162,4.2364,4.2444,4.221,4.135,4.0576,4.0056,3.964,3.8953,3.8222,3.7828,3.7929,3.8271,3.8668,3.9187,3.9782,4.0422,4.0717,4.0736,4.1204,4.1449,4.1482,4.1746,4.2027,4.2285,4.2556,4.2827,4.3083,4.3517,4.3781,4.3876,4.431,4.4593,4.4593,4.4593,4.4593,4.458,4.4455,4.4359,4.4318,4.4593,4.472,4.4618,4.4695,4.472,4.4618,4.4593,4.458,4.4593,4.4553,4.4514,4.4261,4.4237,4.4696,4.5658,4.6055,4.6945,4.7984,4.8577,4.8727,4.8763,4.8763,4.8745,4.8745,4.8477,4.8325,4.8324,4.8324,4.8324,4.8324,4.8324,4.8324,4.8324,4.8324,4.8324,4.8324,4.8306,4.8012,4.7278,4.6635,4.5957,4.5223,4.4291,4.3722,4.3448,4.2905,4.2239,4.1789,4.1415,4.1168,4.1007,4.1007,4.0984,4.0868,4.0821,4.0844,4.0838,4.0286,4.0096,4.0172,4.045,4.0578,4.0722,4.106,4.1348,4.0949,4.1018,4.1556,4.1768,4.1853,4.1835,4.1916,4.2024,4.2482,4.2732,4.2845,4.3142,4.3392,4.3114,4.1987,4.1362,4.1073,4.0559,4.0178,3.9832,3.9372,3.9123,3.929,3.9904,4.0565,4.1371,4.1869,4.2084,4.2052,4.2278,4.222,4.2435,4.2994,4.336,4.3504,4.4203,4.4449,4.4498,4.4606,4.4625,4.4625,4.4676,4.4695,4.4707,4.472,4.4732,4.4781,4.4954,4.4954,4.4763,4.4977,4.5,4.4793,4.4966,4.5007,4.4757,4.467,4.4707,4.4682,4.4757,4.4714,4.4631,4.4656,4.4951,4.5735,4.6337,4.7084,4.81,4.8788,4.9303,4.9326,4.9401,4.9401,4.9371,4.8881,4.8532,4.8364,4.8364,4.8383,4.8325,4.8324,4.8324,4.8324,4.8324,4.8324,4.8324,4.8306,4.7957,4.7516,4.7076,4.6709,4.5957,4.5059,4.4437,4.4035,4.336,4.2732,4.258,4.2165,4.1895,4.1556,4.1508,4.1486,4.1402,4.1358,4.1402,4.1308,4.0838,4.0676,4.0937,4.1131,4.1189,4.152,4.1946,4.2552,4.1556,4.1578,4.1746,4.2059,4.244,4.2442,4.2694,4.3032,4.3214,4.3268,4.3321,4.3427,4.3496,4.3441,4.3073,4.2707,4.2313,4.2095,4.1833,4.1533,4.1334,4.1203,4.1066,4.0867,4.1249,4.2015,4.2737,4.2982,4.3039,4.358,4.387,4.3932,4.409,4.4366,4.4665,4.4851,4.5107,4.5293,4.5313,4.5322,4.5312,4.5312,4.5342,4.5342,4.5303,4.5322,4.5332,4.5419,4.5438,4.5362,4.541,4.5438,4.5322,4.5381,4.5381,4.5303,4.5293,4.5313,4.5322,4.5322,4.5222,4.4988,4.4985,4.5228,4.5736,4.5986,4.6797,4.7815,4.8471,4.8895,4.9367,4.9532,4.9518,4.9475,4.9311,4.9059,4.8813,4.8727,4.8639,4.8364,4.8344,4.8382,4.8383,4.8363,4.8344,4.8344,4.8288,4.8251,4.7846,4.7461,4.7076,4.6507,4.5755,4.5076,4.4435,4.3759,4.334,4.3268,4.2977,4.262,4.2206,4.1814,4.1789,4.1703,4.1768,4.181,4.1746,4.1486,4.1611,4.1702,4.1607,4.165,4.2492,4.3057,4.3896,4.2183,4.2203,4.2424,4.2733,4.3014,4.3032,4.3214,4.3444,4.3479,4.3479,4.3479,4.3479,4.358,4.3656,4.3356,4.3166,4.3016,4.302,4.2859,4.2687,4.2707,4.2695,4.2545,4.2207,4.2583,4.3342,4.3938,4.4252,4.4339,4.4794,4.5003,4.4968,4.5022,4.5129,4.5245,4.5322,4.54,4.5568,4.5594,4.5594,4.5594,4.5594,4.5586,4.5594,4.5594,4.5594,4.5586,4.5594,4.5594,4.5586,4.5594,4.5594,4.5594,4.5594,4.5594,4.5594,4.5594,4.5586,4.5594,4.5594,4.5513,4.5352,4.5312,4.5441,4.5837,4.6263,4.7329,4.7981,4.875,4.9435,4.9847,4.9999,4.9999,5.0024,5.0006,4.9741,4.9252,4.9139,4.9043,4.8863,4.8796,4.8815,4.8779,4.8657,4.8568,4.8513,4.8383,4.8345,4.8214,4.7829,4.7498,4.7076,4.6617,4.6012,4.5333,4.4655,4.3886,4.3793,4.3392,4.3087,4.281,4.2346,4.2426,4.2424,4.2284,4.2239,4.2353,4.2382,4.2282,4.226,4.2091,4.2718,4.374,4.4681,4.5458,4.2788,4.2826,4.3286,4.3479,4.3462,4.3479,4.3462,4.3479,4.3479,4.3531,4.3563,4.3565,4.3791,4.402,4.3546,4.324,4.3542,4.3636,4.3629,4.3684,4.3828,4.386,4.37,4.3618,4.4092,4.4819,4.5419,4.5445,4.536,4.5484,4.5549,4.5485,4.5522,4.5568,4.5531,4.5549,4.5584,4.5627,4.5632,4.5665,4.5669,4.5665,4.5673,4.5665,4.564,4.5618,4.5612,4.5594,4.5594,4.5594,4.5594,4.5594,4.5594,4.5594,4.5594,4.5594,4.5594,4.5594,4.5594,4.5594,4.5594,4.5559,4.5568,4.5594,4.582,4.6657,4.7511,4.8077,4.9538,5.0037,5.0556,5.0634,5.0585,5.0554,5.0614,5.0325,4.9846,4.9608,4.9566,4.9489,4.9475,4.9489,4.9401,4.9218,4.8963,4.8947,4.8779,4.8657,4.8586,4.8329,4.8145,4.7975,4.7516,4.7021,4.6305,4.5608,4.4801,4.4196,4.3699,4.3375,4.3339,4.3123,4.3285,4.3267,4.2903,4.3029,4.3451,4.3374,4.3272,4.3653,4.407,4.4823,4.5648,4.6529,4.7354,4.3339,4.3321,4.3463,4.3479,4.3479,4.3479,4.3496,4.3496,4.3496,4.3679,4.3868,4.3878,4.4121,4.4455,4.4256,4.4405,4.4604,4.4649,4.4832,4.5122,4.515,4.5169,4.4921,4.4582,4.4716,4.5321,4.554,4.5603,4.5612,4.5607,4.5603,4.562,4.5624,4.5603,4.5601,4.5624,4.5648,4.5733,4.5761,4.577,4.5817,4.5809,4.5809,4.5822,4.5783,4.57,4.561,4.5594,4.5594,4.5594,4.5612,4.5627,4.5603,4.5594,4.5594,4.5594,4.5594,4.5594,4.5594,4.5594,4.5594,4.5594,4.5594,4.5594,4.5594,4.596,4.6874,4.7721,4.849,4.9433,5.0471,5.0683,5.0683,5.0683,5.0683,5.0643,5.0421,5.0159,4.9866,4.965,4.9561,4.9504,4.9518,4.9489,4.9371,4.9356,4.9234,4.9094,4.893,4.8779,4.8692,4.8586,4.8053,4.7574,4.75,4.6764,4.5938,4.5186,4.4562,4.3809,4.3791,4.3773,4.3883,4.3736,4.3391,4.3774,4.4452,4.4912,4.4941,4.5526,4.6119,4.6884,4.7633,4.8483,4.9262,4.3479,4.3479,4.3479,4.3479,4.3479,4.3496,4.358,4.371,4.3724,4.3962,4.4237,4.4276,4.4482,4.4806,4.4849,4.5011,4.5263,4.5332,4.54,4.5556,4.564,4.5692,4.5665,4.5341,4.5323,4.5696,4.5692,4.5711,4.5736,4.5731,4.5745,4.5744,4.5737,4.5745,4.5744,4.5718,4.5776,4.5836,4.5834,4.5857,4.589,4.5899,4.5899,4.5894,4.5871,4.5807,4.5745,4.5751,4.5751,4.5744,4.5757,4.5684,4.5629,4.5594,4.5594,4.5594,4.5594,4.5594,4.5594,4.5594,4.5594,4.5594,4.5594,4.5594,4.5748,4.5922,4.6759,4.7836,4.8567,4.9298,5.0491,5.0683,5.0683,5.0683,5.0683,5.0683,5.0644,5.0493,5.0325,5.0123,5.0104,5.0111,5.0056,4.9885,4.9787,4.9773,4.9489,4.9341,4.9311,4.9171,4.9142,4.894,4.8411,4.8178,4.8402,4.796,4.7132,4.6471,4.5883,4.5021,4.4433,4.4433,4.4451,4.425,4.4122,4.4874,4.5535,4.6012,4.6672,4.7141,4.7786,4.8732,4.9422,4.9816,5.0717,4.3531,4.3563,4.3563,4.3614,4.3662,4.3695,4.3852,4.4058,4.4087,4.4304,4.4618,4.4688,4.4842,4.5118,4.518,4.5362,4.5556,4.5616,4.5648,4.5676,4.577,4.5796,4.5788,4.5767,4.5765,4.5832,4.5808,4.5834,4.5877,4.5899,4.5852,4.5885,4.589,4.5857,4.5885,4.5899,4.5894,4.592,4.5948,4.5967,4.5988,4.5988,4.5985,4.5955,4.5952,4.5923,4.5872,4.5867,4.5885,4.5899,4.5899,4.5797,4.5687,4.5637,4.5624,4.5632,4.5653,4.5645,4.561,4.5629,4.5635,4.5612,4.5594,4.5594,4.5748,4.6336,4.7144,4.8086,4.8913,4.9885,5.0596,5.0683,5.0683,5.0683,5.0683,5.0683,5.0683,5.0683,5.0624,5.0624,5.0493,5.0462,5.0451,5.0336,5.026,5.0128,4.984,4.9617,4.9603,4.9561,4.9504,4.9597,4.9201,4.9195,4.9426,4.9487,4.8615,4.8027,4.7404,4.6738,4.5979,4.6611,4.6735,4.522,4.5131,4.6048,4.6985,4.7755,4.8324,4.8728,4.9404,5.0291,5.079,5.1112,5.1958,4.3644,4.3927,4.3909,4.4106,4.4378,4.4406,4.4419,4.4487,4.4482,4.4695,4.5007,4.503,4.5211,4.5438,4.5513,4.5624,4.572,4.5756,4.5783,4.5809,4.5877,4.5891,4.59,4.5939,4.5986,4.5988,4.5955,4.5927,4.5935,4.5899,4.5959,4.5916,4.592,4.5924,4.5928,4.5907,4.5988,4.605,4.6075,4.6113,4.6174,4.6191,4.6152,4.608,4.6075,4.6027,4.5932,4.5907,4.5899,4.5899,4.5899,4.5881,4.5872,4.5857,4.5817,4.577,4.5776,4.5764,4.5677,4.5703,4.5692,4.5635,4.5618,4.561,4.5813,4.642,4.7311,4.8345,4.9499,5.0548,5.0654,5.0683,5.0683,5.0683,5.0683,5.0683,5.0683,5.0683,5.0683,5.0683,5.0683,5.0683,5.0624,5.0594,5.0504,5.0432,5.0306,5.0092,4.9999,4.9949,4.9885,4.9995,5.0101,5.0274,5.0534,5.0617,5.0303,4.9771,4.9293,4.9124,4.8814,4.9559,4.9227,4.7657,4.711,4.7831,4.8679,4.9527,5.0206,5.08,5.1347,5.1834,5.1995,5.216,5.2399,4.3323,4.3676,4.4116,4.4419,4.458,4.4593,4.4695,4.4861,4.4872,4.5052,4.5292,4.5381,4.5493,4.5661,4.57,4.5769,4.585,4.5864,4.5867,4.5903,4.5971,4.5998,4.6027,4.6072,4.6142,4.6174,4.6142,4.6094,4.6113,4.6115,4.6094,4.6093,4.6113,4.6113,4.6113,4.6119,4.6133,4.6211,4.6211,4.623,4.6289,4.6289,4.625,4.6211,4.6211,4.6173,4.614,4.6091,4.6113,4.6115,4.6113,4.6113,4.6113,4.6094,4.6035,4.5886,4.5896,4.5862,4.5783,4.5811,4.5825,4.5776,4.5745,4.5751,4.5964,4.6591,4.7613,4.8833,4.9843,5.0784,5.0712,5.0712,5.0683,5.0683,5.0693,5.0702,5.0683,5.0683,5.0683,5.0683,5.0683,5.0683,5.0683,5.0673,5.0683,5.0683,5.0683,5.0554,5.0369,5.0313,5.0225,5.0607,5.0886,5.1523,5.1892,5.2186,5.2125,5.1618,5.1282,5.1092,5.095,5.1329,5.1038,4.9987,4.9911,5.0194,5.0696,5.1602,5.2251,5.2695,5.2825,5.2914,5.3019,5.3167,5.3293,4.3093,4.3466,4.4342,4.4751,4.4793,4.4793,4.4954,4.515,4.5201,4.5352,4.5618,4.5632,4.5696,4.5796,4.5813,4.5855,4.5948,4.5955,4.5971,4.603,4.6106,4.6144,4.6174,4.623,4.6289,4.6269,4.6269,4.6289,4.6269,4.6269,4.6289,4.6269,4.6289,4.6289,4.6269,4.625,4.6289,4.6289,4.6289,4.6289,4.6289,4.6289,4.6289,4.6289,4.6289,4.6289,4.6269,4.6269,4.6269,4.6269,4.6269,4.6289,4.6289,4.6289,4.6191,4.6011,4.5985,4.5947,4.5903,4.5924,4.5935,4.5862,4.589,4.5972,4.6512,4.7315,4.8413,4.9679,5.0461,5.0923,5.0855,5.0799,5.0764,5.0739,5.0758,5.075,5.0702,5.0683,5.0683,5.0683,5.0693,5.0693,5.0712,5.0683,5.0683,5.0683,5.0683,5.0683,5.0554,5.0575,5.0668,5.1214,5.1764,5.266,5.3301,5.3979,5.3886,5.3582,5.3372,5.3239,5.2875,5.2675,5.2328,5.2262,5.2779,5.3054,5.3423,5.3308,5.3489,5.3659,5.3866,5.3888,5.3796,5.372,5.3758,4.3459,4.3811,4.466,4.5211,4.5419,4.5409,4.5475,4.5522,4.5521,4.5621,4.5769,4.5757,4.5826,4.5896,4.5909,4.5967,4.6042,4.6082,4.6119,4.618,4.623,4.625,4.6269,4.6289,4.6289,4.6289,4.6289,4.6289,4.6289,4.6289,4.6289,4.6289,4.6289,4.6289,4.6289,4.6289,4.6289,4.6289,4.6289,4.6289,4.6289,4.6289,4.6289,4.6289,4.6289,4.6289,4.6289,4.6289,4.6289,4.6289,4.6289,4.6289,4.6289,4.6289,4.6289,4.6248,4.6225,4.6149,4.6027,4.6027,4.6156,4.6095,4.6049,4.634,4.7284,4.8456,4.9651,5.0748,5.1049,5.1042,5.1022,5.102,5.0985,5.0918,5.0871,5.0805,5.0748,5.0805,5.078,5.0747,5.0782,5.0739,5.0721,5.0693,5.0683,5.0683,5.0683,5.0683,5.0779,5.0837,5.126,5.1864,5.2593,5.3476,5.4152,5.4899,5.5026,5.4992,5.4946,5.487,5.447,5.4108,5.4668,5.4771,5.5116,5.4893,5.4466,5.4314,5.4475,5.4436,5.4401,5.4404,5.4406,5.4324,5.4154,4.2823,4.3445,4.3809,4.4603,4.5488,4.5179,4.5271,4.5641,4.5757,4.5794,4.5831,4.5855,4.5909,4.5998,4.6082,4.615,4.6211,4.6211,4.623,4.6269,4.6289,4.6289,4.6289,4.6289,4.6289,4.6289,4.6289,4.6289,4.6289,4.6289,4.6289,4.6289,4.6289,4.6289,4.6289,4.6289,4.6289,4.6289,4.6289,4.6289,4.6289,4.6289,4.6289,4.6289,4.6289,4.6289,4.6289,4.6289,4.6289,4.6289,4.6289,4.6582,4.6914,4.7109,4.7207,4.7793,4.7793,4.7285,4.6365,4.625,4.6465,4.6797,4.6933,4.7492,4.864,4.9532,5.0332,5.1076,5.1151,5.1148,5.1117,5.1094,5.1063,5.1039,5.0996,5.0905,5.0871,5.0925,5.0945,5.0889,5.0848,5.0844,5.0805,5.0764,5.073,5.0683,5.0683,5.0683,5.0933,5.1241,5.1818,5.2596,5.3404,5.4257,5.482,5.545,5.5416,5.5393,5.5393,5.5366,5.5495,5.5547,5.5684,5.5684,5.5503,5.5303,5.516,5.5121,5.5061,5.4966,5.4833,5.4809,5.475,5.4532,5.4404,4.2032,4.2859,4.3046,4.3998,4.5295,4.4763,4.5045,4.5799,4.5872,4.5912,4.5967,4.5988,4.6072,4.6145,4.625,4.6269,4.6289,4.6289,4.6289,4.6289,4.6289,4.6269,4.625,4.625,4.6211,4.622,4.6172,4.6172,4.6172,4.6191,4.6211,4.6289,4.625,4.6269,4.6289,4.6269,4.623,4.6289,4.6289,4.6289,4.6289,4.6289,4.6289,4.6289,4.6289,4.6289,4.6289,4.6289,4.6289,4.668,4.6719,4.7109,4.7754,4.7949,4.8125,4.8555,4.8633,4.8242,4.7461,4.7187,4.7246,4.7539,4.8203,4.8789,4.9726,5.0312,5.0624,5.1244,5.1263,5.1218,5.118,5.119,5.1156,5.1145,5.1116,5.1033,5.0978,5.1025,5.1042,5.101,5.0979,5.0991,5.0952,5.0863,5.0789,5.0712,5.0683,5.0702,5.1049,5.1501,5.201,5.2741,5.376,5.4472,5.4895,5.5395,5.5511,5.5684,5.5684,5.5684,5.5684,5.5684,5.5684,5.5684,5.5684,5.561,5.5423,5.5524,5.5629,5.5411,5.5224,5.5121,5.4993,5.4804,5.4775,4.1327,4.2237,4.2883,4.3765,4.4783,4.4724,4.5127,4.589,4.5903,4.5988,4.6087,4.6191,4.625,4.6269,4.6289,4.6289,4.6289,4.6289,4.6289,4.6289,4.6289,4.6211,4.6168,4.6089,4.6053,4.5981,4.5988,4.5981,4.594,4.5995,4.6113,4.6247,4.6168,4.62,4.6201,4.615,4.6173,4.623,4.623,4.625,4.625,4.625,4.6269,4.6289,4.6289,4.6289,4.6289,4.6289,4.6641,4.7246,4.7324,4.791,4.8574,4.8769,4.8984,4.9258,4.9316,4.9023,4.8613,4.834,4.8223,4.832,4.8926,4.9922,5.0371,5.0976,5.1308,5.1348,5.1348,5.1348,5.1348,5.1365,5.1286,5.1249,5.1224,5.1144,5.1101,5.1107,5.1131,5.1094,5.1099,5.1131,5.1108,5.1011,5.0919,5.084,5.0833,5.0861,5.1249,5.1674,5.2021,5.2713,5.3837,5.4472,5.4664,5.503,5.553,5.5684,5.5684,5.5684,5.5684,5.5684,5.5684,5.5684,5.5684,5.5684,5.5684,5.5673,5.5662,5.5673,5.5588,5.5423,5.5387,5.5306,5.5343,4.1031,4.144,4.1737,4.2953,4.4654,4.4212,4.4802,4.5922,4.6113,4.6153,4.623,4.6269,4.6289,4.6289,4.6289,4.6289,4.6289,4.6289,4.625,4.62,4.6152,4.6106,4.6027,4.5978,4.594,4.5899,4.5894,4.5899,4.5907,4.5876,4.5928,4.6001,4.5988,4.6001,4.6005,4.6011,4.6036,4.6042,4.6072,4.6069,4.6047,4.605,4.6087,4.6174,4.6194,4.6225,4.6269,4.6289,4.6836,4.7402,4.7656,4.8496,4.9433,4.9629,4.9883,5.0215,5.0234,5.0058,4.959,4.9316,4.8945,4.9531,5.0234,5.0898,5.084,5.125,5.1367,5.1387,5.1387,5.1387,5.1387,5.1387,5.1365,5.1342,5.1313,5.1254,5.1218,5.1227,5.1199,5.1184,5.121,5.1254,5.121,5.1154,5.106,5.0978,5.0992,5.1073,5.1447,5.2146,5.2631,5.3165,5.4275,5.4959,5.5171,5.5449,5.5705,5.5705,5.5705,5.5684,5.5684,5.5684,5.5684,5.5684,5.5684,5.5684,5.5684,5.5684,5.5684,5.5703,5.5703,5.5651,5.5673,5.5684,5.5684,4.0947,4.1054,4.1055,4.2186,4.3869,4.3738,4.4434,4.5667,4.6149,4.6289,4.6289,4.6289,4.6288,4.6248,4.623,4.6191,4.6172,4.6152,4.6113,4.6075,4.6033,4.5986,4.5905,4.5852,4.585,4.582,4.5797,4.578,4.5788,4.5792,4.5811,4.5811,4.5809,4.5836,4.5912,4.5899,4.5899,4.5899,4.5899,4.6113,4.6219,4.634,4.6625,4.683,4.7008,4.7025,4.711,4.7226,4.7578,4.8105,4.8535,4.9121,4.9922,5.0547,5.0803,5.1115,5.1253,5.1019,5.0454,4.9883,4.9707,5.041,5.0898,5.1289,5.1387,5.1387,5.1387,5.1387,5.1387,5.1387,5.1387,5.1387,5.1387,5.1367,5.1367,5.1321,5.1318,5.1315,5.1292,5.127,5.1308,5.1328,5.1308,5.1269,5.1177,5.122,5.1517,5.1501,5.1548,5.2413,5.3613,5.4177,5.4904,5.5423,5.5843,5.5844,5.5808,5.5779,5.5779,5.5705,5.5684,5.5716,5.5716,5.5684,5.5684,5.5684,5.5695,5.5705,5.5695,5.5684,5.5722,5.581,5.5684,5.5684,5.5684,4.1077,4.1191,4.1191,4.1699,4.2598,4.3359,4.4238,4.5195,4.5937,4.6269,4.6269,4.6269,4.622,4.6138,4.6091,4.6069,4.5985,4.5947,4.5924,4.5931,4.5923,4.5866,4.582,4.577,4.5749,4.5624,4.5629,4.565,4.5613,4.5642,4.5637,4.5629,4.5673,4.5703,4.5876,4.5894,4.5894,4.589,4.5891,4.6401,4.6819,4.7023,4.748,4.7845,4.8006,4.7951,4.7989,4.7996,4.8433,4.9134,4.9344,4.9909,5.0728,5.0918,5.1031,5.1105,5.1135,5.1068,5.099,5.0463,5.0586,5.1035,5.1308,5.1367,5.1387,5.1387,5.1387,5.1387,5.1387,5.1387,5.1387,5.1387,5.1387,5.1387,5.1387,5.1387,5.1367,5.1367,5.1348,5.1328,5.1367,5.1387,5.1387,5.1367,5.1269,5.1431,5.1905,5.2008,5.1867,5.2849,5.4214,5.4699,5.5253,5.5707,5.602,5.5955,5.5915,5.5877,5.587,5.5844,5.5817,5.5836,5.5798,5.5738,5.5789,5.5843,5.5789,5.5726,5.5914,5.6085,5.5948,5.5925,5.5791,5.5934,5.6242,4.1151,4.1191,4.1191,4.1348,4.1777,4.3125,4.418,4.5039,4.5793,4.6173,4.6145,4.6082,4.6008,4.5958,4.5951,4.5948,4.5899,4.5894,4.5881,4.583,4.5825,4.5757,4.5688,4.5661,4.5651,4.562,4.5594,4.5594,4.5593,4.5594,4.5594,4.5594,4.5603,4.5632,4.5676,4.5687,4.5687,4.5822,4.6201,4.6735,4.7059,4.7538,4.8026,4.8432,4.8516,4.8572,4.866,4.8699,4.9093,4.9745,4.9876,5.0275,5.0908,5.1063,5.1074,5.1079,5.1084,5.1094,5.1079,5.0871,5.0932,5.1173,5.1288,5.1317,5.1367,5.1387,5.1387,5.1387,5.1367,5.1367,5.1387,5.1387,5.1387,5.1387,5.1387,5.1387,5.1387,5.1387,5.1387,5.1367,5.1387,5.1387,5.1387,5.1445,5.1387,5.166,5.2129,5.2324,5.2259,5.3513,5.4839,5.5034,5.5433,5.5897,5.6164,5.6121,5.6083,5.6071,5.6071,5.6065,5.6044,5.5975,5.5998,5.5982,5.6001,5.6022,5.6137,5.6272,5.6454,5.6539,5.6728,5.6705,5.6656,5.7039,5.7569,4.1191,4.1191,4.115,4.1322,4.1773,4.3105,4.4316,4.5324,4.5852,4.6033,4.6021,4.5932,4.5896,4.5872,4.5852,4.5803,4.5786,4.5794,4.5789,4.5725,4.5725,4.5688,4.5627,4.5594,4.5612,4.5594,4.5594,4.5594,4.5594,4.5594,4.5594,4.5594,4.5594,4.5593,4.561,4.561,4.561,4.583,4.632,4.7034,4.7516,4.8093,4.8773,4.9109,4.9254,4.9274,4.9283,4.9343,4.9466,4.9918,5.0196,5.0371,5.0824,5.0959,5.0959,5.0953,5.0953,5.0946,5.092,5.092,5.093,5.1068,5.1136,5.1205,5.1277,5.1269,5.1269,5.1289,5.1307,5.1308,5.1328,5.1341,5.1348,5.1348,5.1387,5.1387,5.1387,5.1387,5.1387,5.1387,5.1387,5.1387,5.1406,5.1484,5.1523,5.1914,5.2344,5.2441,5.2617,5.3808,5.4902,5.5137,5.541,5.5859,5.6172,5.6309,5.6273,5.6279,5.6305,5.6373,5.6181,5.6123,5.6178,5.6236,5.6242,5.6341,5.6656,5.6881,5.7334,5.776,5.8088,5.7954,5.7647,5.8017,5.8607,4.1191,4.1171,4.1051,4.146,4.2303,4.3192,4.4556,4.6004,4.5944,4.5894,4.5909,4.5876,4.5834,4.579,4.579,4.5713,4.5645,4.5624,4.5616,4.5618,4.5635,4.5603,4.5603,4.5594,4.5594,4.5594,4.5594,4.5594,4.5594,4.5594,4.5594,4.5594,4.5594,4.5594,4.5594,4.5594,4.5691,4.6067,4.6721,4.749,4.8163,4.8971,4.9663,5.0056,5.0258,5.0277,5.0322,5.0371,5.045,5.0586,5.0644,5.0673,5.0712,5.0693,5.0693,5.0693,5.0721,5.073,5.0748,5.0766,5.0789,5.0893,5.0996,5.1058,5.1122,5.1141,5.1152,5.1145,5.1152,5.1184,5.1205,5.123,5.1269,5.1308,5.1387,5.1387,5.1387,5.1387,5.1387,5.1387,5.1387,5.1387,5.1387,5.1465,5.1562,5.1797,5.2148,5.2402,5.2695,5.3457,5.4414,5.4922,5.5254,5.5742,5.6055,5.6387,5.6424,5.6394,5.6631,5.6687,5.647,5.6601,5.7038,5.7147,5.6641,5.6733,5.7455,5.8013,5.849,5.8887,5.916,5.903,5.8681,5.8946,5.9359,4.1016,4.0914,4.087,4.0997,4.1418,4.2758,4.4323,4.5811,4.5861,4.5832,4.5807,4.5722,4.5676,4.5648,4.5648,4.5627,4.562,4.5594,4.5603,4.5594,4.5594,4.5594,4.5586,4.5568,4.5586,4.5568,4.5568,4.5513,4.5568,4.5577,4.5549,4.5594,4.554,4.5568,4.5586,4.5614,4.6028,4.6567,4.7288,4.8048,4.8913,4.976,5.0356,5.0606,5.0683,5.0683,5.0683,5.0683,5.0683,5.0683,5.0683,5.0683,5.0683,5.0683,5.0693,5.0693,5.0693,5.0693,5.0683,5.0683,5.0712,5.0738,5.0795,5.0945,5.1014,5.1069,5.1063,5.1036,5.1036,5.1069,5.1121,5.1167,5.1228,5.1295,5.1367,5.1387,5.1387,5.1387,5.1387,5.1387,5.1387,5.1387,5.1387,5.1406,5.1504,5.168,5.1953,5.2324,5.2578,5.3262,5.416,5.4707,5.498,5.541,5.6152,5.6582,5.6562,5.6575,5.6973,5.7363,5.75,5.7734,5.8144,5.8183,5.791,5.8105,5.8581,5.9101,5.9551,5.9785,6.0019,5.9902,5.9839,6.0034,6.0229,4.0874,4.0797,4.0746,4.0912,4.1391,4.2595,4.3995,4.5183,4.5606,4.5711,4.5715,4.5643,4.5594,4.5603,4.5603,4.5603,4.5594,4.5594,4.5594,4.5594,4.5549,4.5466,4.5448,4.5371,4.5273,4.5273,4.5222,4.5129,4.5243,4.5223,4.5203,4.5371,4.541,4.5495,4.5655,4.6018,4.6663,4.724,4.7904,4.8586,4.9413,5.025,5.0558,5.0683,5.0683,5.0683,5.0683,5.0683,5.0683,5.0683,5.0683,5.0683,5.0683,5.0683,5.0683,5.0683,5.0683,5.0683,5.0683,5.0683,5.0683,5.0683,5.0693,5.0782,5.0859,5.0908,5.0916,5.0916,5.0932,5.0972,5.1049,5.1121,5.121,5.127,5.1328,5.1387,5.1387,5.1387,5.1387,5.1387,5.1387,5.1387,5.1387,5.1387,5.1601,5.2012,5.2383,5.2715,5.2656,5.2656,5.3789,5.4746,5.4844,5.5039,5.5898,5.6875,5.7148,5.7402,5.793,5.8281,5.8496,5.8633,5.8828,5.9121,5.9355,5.9512,5.9629,6.0117,6.0527,6.0703,6.0801,6.0781,6.0781,6.0937,6.1141,4.0777,4.0755,4.0718,4.108,4.1851,4.2632,4.3437,4.4278,4.5081,4.5537,4.5584,4.5594,4.5594,4.5594,4.5594,4.5559,4.5504,4.5466,4.5391,4.5513,4.5371,4.5253,4.5107,4.5052,4.4966,4.472,4.4657,4.4806,4.467,4.4732,4.4889,4.5063,4.5224,4.5396,4.5695,4.6465,4.7204,4.7981,4.8366,4.8836,4.9586,5.026,5.0683,5.0683,5.0683,5.0683,5.0683,5.0683,5.0683,5.0683,5.0683,5.0683,5.0683,5.0683,5.0683,5.0683,5.0683,5.0683,5.0683,5.0683,5.0683,5.0683,5.0693,5.0731,5.0766,5.0782,5.0799,5.0799,5.0814,5.084,5.0933,5.1011,5.1092,5.1205,5.1289,5.1348,5.1387,5.1387,5.1387,5.1387,5.1387,5.1387,5.1387,5.1406,5.1465,5.2148,5.2656,5.2949,5.3027,5.2656,5.3496,5.4765,5.4941,5.5234,5.6289,5.7187,5.7851,5.8301,5.8828,5.914,5.9297,5.9375,5.9433,5.9883,6.0371,6.043,6.0605,6.0937,6.1172,6.1328,6.1445,6.1582,6.168,6.1621,6.1601,4.0647,4.0589,4.0547,4.1027,4.1777,4.2,4.2577,4.3431,4.4259,4.4953,4.5498,4.5566,4.5568,4.5513,4.5513,4.5429,4.5243,4.5192,4.5044,4.4947,4.49,4.4889,4.4732,4.4695,4.4631,4.4631,4.4593,4.4501,4.4493,4.4546,4.4649,4.4808,4.5205,4.5716,4.5927,4.6828,4.7805,4.8526,4.9028,4.9442,5.0202,5.0433,5.0683,5.0683,5.0683,5.0683,5.0683,5.0683,5.0683,5.0683,5.0683,5.0683,5.0683,5.0683,5.0683,5.0683,5.0683,5.0683,5.0683,5.0683,5.0683,5.0683,5.0683,5.0683,5.0693,5.0683,5.0683,5.0683,5.0702,5.0738,5.0811,5.0918,5.1008,5.1133,5.1243,5.1315,5.1387,5.1387,5.1387,5.1387,5.1387,5.1387,5.1387,5.1484,5.1523,5.1894,5.2441,5.2871,5.3281,5.3262,5.375,5.4765,5.5117,5.5605,5.668,5.7793,5.8594,5.914,5.9629,5.9902,6.0098,6.0332,6.0527,6.0957,6.1328,6.1211,6.1172,6.1406,6.1621,6.1699,6.1699,6.1699,6.1699,6.168,6.168,4.0574,4.0496,4.0496,4.0758,4.1165,4.1093,4.151,4.2344,4.3024,4.3805,4.4619,4.5073,4.5293,4.5201,4.515,4.5099,4.4877,4.4865,4.4793,4.4657,4.4514,4.4487,4.4433,4.4337,4.4165,4.4165,4.4106,4.408,4.4262,4.4576,4.471,4.4969,4.5635,4.6181,4.6411,4.7422,4.826,4.8788,4.9484,5.0134,5.0663,5.0673,5.0683,5.0683,5.0683,5.0683,5.0683,5.0683,5.0683,5.0683,5.0683,5.0683,5.0683,5.0683,5.0683,5.0683,5.0683,5.0683,5.0683,5.0683,5.0683,5.0683,5.0683,5.0683,5.0683,5.0683,5.0683,5.0683,5.0683,5.072,5.0839,5.0925,5.1004,5.1113,5.1196,5.1268,5.1348,5.1387,5.1387,5.1387,5.1387,5.1387,5.1543,5.1992,5.2109,5.25,5.291,5.3691,5.3965,5.4082,5.4531,5.5,5.5508,5.6211,5.7246,5.8437,5.957,6.0058,6.039,6.0703,6.0957,6.1328,6.168,6.164,6.1621,6.1621,6.166,6.1699,6.1699,6.1699,6.1699,6.1699,6.1699,6.168,6.168,4.0496,4.0496,4.0496,4.0473,4.0425,4.0223,4.0491,4.1125,4.1824,4.2486,4.3253,4.4412,4.4731,4.467,4.4593,4.4535,4.4521,4.4495,4.4487,4.4392,4.4383,4.4165,4.402,4.3927,4.3804,4.3695,4.3629,4.378,4.3962,4.4403,4.4905,4.5363,4.5999,4.6653,4.7272,4.8056,4.8827,4.9068,4.9608,5.0287,5.0544,5.0663,5.0683,5.0683,5.0683,5.0683,5.0683,5.0683,5.0683,5.0683,5.0683,5.0683,5.0683,5.0683,5.0683,5.0683,5.0683,5.0683,5.0683,5.0683,5.0683,5.0683,5.0683,5.0683,5.0683,5.0683,5.0683,5.0683,5.0683,5.0721,5.0822,5.089,5.0966,5.1042,5.1129,5.1249,5.1328,5.1426,5.1445,5.1465,5.1621,5.1621,5.207,5.2519,5.2851,5.3242,5.3867,5.4687,5.5254,5.5273,5.5488,5.5937,5.6406,5.7148,5.7969,5.914,6.041,6.0703,6.1015,6.1426,6.1699,6.1699,6.1699,6.1699,6.1699,6.168,6.168,6.166,6.168,6.166,6.164,6.1621,6.1562,6.1543,6.1601,4.0496,4.0496,4.0496,4.0372,4.0177,4.011,4.0057,4.0174,4.1479,4.207,4.2361,4.3483,4.429,4.458,4.4593,4.4441,4.4136,4.4102,4.3896,4.3744,4.3871,4.371,4.3646,4.3677,4.3582,4.3513,4.3552,4.3864,4.4213,4.458,4.5094,4.5824,4.6598,4.7075,4.7275,4.8112,4.8889,4.9118,4.9339,4.9885,5.0031,5.0237,5.0634,5.0683,5.0683,5.0683,5.0683,5.0683,5.0683,5.0683,5.0683,5.0683,5.0683,5.0683,5.0683,5.0683,5.0683,5.0683,5.0683,5.0683,5.0683,5.0683,5.0683,5.0683,5.0683,5.0683,5.0683,5.0683,5.0683,5.0683,5.0757,5.0757,5.0814,5.0945,5.1044,5.1214,5.1348,5.1504,5.1621,5.2012,5.2441,5.2734,5.3223,5.3535,5.3672,5.4101,5.4629,5.5371,5.5586,5.5976,5.6348,5.6777,5.7168,5.8027,5.8828,6.0,6.1074,6.1348,6.1504,6.164,6.1699,6.1699,6.1699,6.168,6.166,6.164,6.164,6.1582,6.1523,6.1504,6.1523,6.1504,6.1448,6.1428,6.1478]}]]